GEFSSE_con_cape1000_006.txt.gz
Probability
48 100 100 100 100 100 100 100 74 16 52 74 87 97 97 97 97 97 100 100 100 100 100 100 100 100 100 100 100 100 100 100 100 100 100 100 100 100 100 100 100 100 100
74 100 100 100 100 100 100 100 90 61 61 71 87 94 97 94 94 97 100 100 100 100 100 100 100 100 100 100 100 100 100 100 100 100 100 100 100 100 100 100 100 100 100
90 100 100 100 100 100 100 100 100 94 77 65 87 90 94 90 94 97 100 100 100 100 100 100 100 100 100 100 100 100 100 100 100 100 100 94 100 100 100 100 100 100 100
100 100 100 100 100 100 100 100 100 100 90 87 90 90 90 77 84 90 100 100 100 100 100 100 100 100 100 100 100 100 100 100 100 100 100 90 94 100 100 100 100 100 100
100 100 100 100 100 100 100 100 100 100 100 97 97 87 58 65 90 94 94 94 90 94 94 100 97 97 97 100 100 100 100 100 100 100 81 39 6 100 100 100 100 100 100
90 100 100 100 100 100 100 100 100 100 100 100 100 94 94 97 100 100 100 100 90 84 87 87 84 100 100 100 100 100 100 100 97 90 68 13 13 100 100 100 100 100 100
97 100 100 100 100 100 100 100 100 100 100 100 100 100 100 100 100 100 100 100 100 100 100 100 100 100 100 100 100 100 100 58 32 13 3 0 10 100 100 100 100 100 100
97 100 100 100 100 100 100 100 100 100 100 100 100 100 100 100 100 100 100 100 100 100 100 100 100 100 100 100 100 100 100 100 55 26 6 0 13 100 100 100 100 100 100
100 100 100 100 100 100 100 100 100 100 100 100 100 100 100 100 100 100 100 100 100 100 100 100 100 100 100 100 100 100 100 100 100 97 74 0 35 100 100 100 100 100 100
97 100 100 100 100 100 100 100 100 100 100 100 100 100 100 100 100 100 100 100 100 100 100 100 100 100 100 100 100 100 100 100 100 100 77 16 97 100 100 100 100 100 100
100 100 100 100 100 100 100 100 100 100 100 100 100 100 100 100 100 100 100 100 100 100 100 100 100 100 100 100 100 100 100 100 100 100 84 68 100 100 100 100 100 100 100
100 87 90 97 100 100 100 100 100 100 100 100 100 100 100 100 100 100 100 100 100 100 100 100 100 100 100 100 100 100 100 100 100 100 77 100 100 100 100 100 100 100 100
90 74 81 97 97 97 100 100 100 100 100 100 100 100 97 87 84 100 94 100 100 100 100 100 100 100 100 100 100 100 100 97 94 84 32 84 97 100 100 100 100 100 100
94 87 94 97 97 97 94 97 100 100 100 100 100 100 94 94 97 100 84 55 90 100 100 100 100 100 100 97 90 58 77 94 81 23 3 65 84 100 100 100 100 100 100
74 84 94 100 100 100 100 100 100 100 97 100 100 100 100 100 84 39 26 10 29 65 87 68 45 13 16 29 16 6 3 13 29 26 6 77 100 100 100 100 100 100 100
32 42 55 77 90 94 100 100 100 100 100 100 97 100 100 77 10 0 0 0 3 0 0 10 10 3 0 0 0 0 0 0 0 0 0 3 81 97 100 100 100 100 100
13 32 35 45 68 90 97 100 100 100 100 100 100 97 87 52 3 0 0 0 0 0 0 0 0 0 0 0 0 0 0 0 0 0 0 0 3 32 100 100 100 100 100
13 19 26 32 52 61 77 94 100 100 100 100 97 97 94 68 39 10 3 0 0 0 0 0 0 0 0 0 0 0 0 0 0 0 0 0 0 0 26 100 97 100 100
16 16 19 16 26 48 68 77 90 97 97 97 97 87 97 94 84 13 3 0 0 0 0 0 0 0 0 0 0 0 0 0 0 0 0 0 0 0 0 6 94 100 100
10 13 13 16 10 29 61 77 77 71 42 23 55 84 87 68 71 23 3 0 0 0 0 0 0 0 0 0 0 0 0 0 0 0 0 0 0 0 3 3 6 32 97
6 10 16 10 13 29 58 35 29 16 0 0 16 48 42 10 13 0 0 0 0 0 0 0 0 0 0 0 0 0 0 0 0 0 0 0 3 19 23 6 3 3 0
3 6 10 13 19 26 23 6 3 0 0 0 0 0 3 0 0 0 0 0 0 0 0 0 0 0 0 0 0 0 0 0 0 0 0 0 0 0 16 19 10 6 0
0 0 0 0 0 0 0 0 0 0 0 0 0 0 0 0 0 0 0 0 0 0 0 0 0 0 0 0 0 0 0 0 0 0 0 0 0 0 0 0 3 3 0
0 0 0 0 0 0 0 0 0 0 0 0 0 0 0 0 0 0 0 0 0 0 0 0 0 0 0 0 0 0 0 0 0 0 0 0 0 0 0 0 0 0 0
0 0 0 0 0 0 0 0 0 0 0 0 0 0 0 0 0 0 0 0 0 0 0 0 0 0 0 0 0 0 0 0 0 0 0 0 0 0 0 0 0 0 0
0 0 0 0 0 0 0 0 0 0 0 0 0 0 0 0 0 0 0 0 0 0 0 0 0 0 0 0 0 0 0 0 0 0 0 0 0 0 0 0 0 0 0

GEFSSE_con_cape1000_012.txt.gz
Probability
0 84 100 100 100 97 90 81 100 100 100 100 100 100 100 100 100 100 100 100 100 100 100 100 100 100 100 100 100 100 100 100 100 100 100 100 100 100 100 100 100 100 100
0 90 100 100 100 100 94 77 94 100 100 100 100 100 100 100 100 100 100 100 100 100 100 100 100 100 100 100 100 100 100 100 100 100 100 100 100 100 100 100 100 100 100
3 100 100 100 100 100 97 87 97 100 100 100 100 100 100 100 100 100 100 100 100 100 100 100 100 100 100 100 100 100 100 100 100 100 100 100 100 100 100 100 100 100 100
68 100 100 100 100 100 97 94 97 100 100 97 100 100 100 100 100 100 100 100 100 100 100 100 100 100 100 100 100 100 100 100 100 100 97 100 100 100 100 100 100 100 100
94 100 100 100 100 100 100 97 90 94 97 97 100 100 100 100 100 100 100 100 100 100 100 100 100 100 100 100 100 100 100 100 100 100 94 90 97 100 100 100 100 100 100
100 100 100 100 100 100 100 97 94 94 97 97 100 100 97 97 100 100 100 100 100 100 100 100 100 100 100 100 100 100 100 100 100 90 84 58 65 100 100 100 100 100 100
100 100 100 100 100 100 100 100 97 94 97 100 100 97 97 97 97 97 97 97 94 94 90 90 94 90 97 97 100 100 100 100 97 90 74 42 26 97 100 100 100 100 100
100 100 100 100 100 100 100 100 100 100 97 100 100 100 97 97 100 100 100 100 100 100 100 100 97 97 100 100 100 100 100 94 84 35 16 3 3 77 100 100 100 100 100
100 100 100 100 100 100 100 100 100 100 100 100 100 100 100 100 100 100 100 100 100 100 100 100 100 100 100 100 100 100 100 100 90 39 19 19 16 87 100 100 100 100 100
100 100 100 100 100 100 100 100 100 100 100 100 100 100 100 100 100 100 100 100 100 100 100 100 100 100 100 100 100 100 100 100 100 100 97 81 94 97 100 100 100 100 100
97 97 97 94 97 97 97 100 100 100 100 100 100 100 100 100 100 100 100 100 100 100 100 100 100 100 100 100 100 100 100 100 100 100 100 100 100 100 100 100 100 100 100
84 81 74 74 77 87 90 94 97 100 100 100 100 100 100 100 100 100 100 100 100 100 100 100 100 100 100 100 97 100 100 100 100 100 100 100 100 100 100 100 100 100 100
61 61 61 55 61 71 77 87 90 94 97 100 100 100 100 100 100 100 100 100 100 100 100 100 100 100 90 90 87 97 97 90 94 97 97 100 97 97 100 100 100 100 100
48 52 48 48 52 58 71 74 84 87 94 94 97 100 100 100 100 100 100 100 100 100 100 97 90 74 55 48 58 74 74 71 77 74 65 94 94 97 97 100 100 100 100
35 35 35 45 45 42 45 55 65 81 90 94 94 97 97 97 94 97 94 90 84 71 55 58 26 16 16 19 26 35 45 48 45 48 35 74 94 94 97 100 100 100 100
35 32 35 32 35 39 48 48 52 65 71 77 74 68 71 74 52 19 3 3 3 3 3 6 3 3 6 0 0 3 10 6 10 10 10 16 58 77 97 100 97 100 100
29 29 26 29 29 39 42 42 52 58 58 65 61 68 65 58 32 16 6 0 0 0 0 0 0 0 0 0 0 0 0 0 0 0 0 0 0 0 10 32 71 90 94
16 13 16 26 23 29 29 32 39 35 42 52 61 71 77 68 29 13 0 0 0 0 0 0 0 0 0 0 0 0 0 0 0 0 0 0 0 0 0 3 23 74 90
13 16 13 10 13 10 13 16 19 29 32 52 65 71 71 52 29 0 0 0 0 0 0 0 0 0 0 0 0 0 0 0 0 0 0 0 0 0 0 0 3 48 74
6 6 6 6 6 6 6 13 16 23 26 32 45 61 65 58 39 0 0 0 0 0 0 0 0 0 0 0 0 0 0 0 0 0 0 0 0 0 0 0 0 0 29
0 0 3 3 3 6 6 13 10 10 10 6 6 16 39 48 58 10 3 0 0 0 0 0 0 0 0 0 0 0 0 0 0 0 0 0 0 0 0 0 0 3 10
0 0 0 0 0 0 0 0 3 3 0 0 0 0 3 32 39 29 10 3 0 0 0 0 0 0 0 0 0 0 0 0 0 0 0 0 0 0 0 0 3 6 16
0 0 0 0 0 0 0 0 0 0 0 0 0 0 0 3 6 10 3 0 0 0 0 0 0 0 0 0 0 0 0 0 0 0 0 0 0 0 0 0 0 0 23
0 0 0 0 0 0 0 0 0 0 0 0 0 0 0 0 0 0 0 0 0 0 0 0 0 0 0 0 0 0 0 0 0 0 0 0 0 0 0 0 0 0 3
0 0 0 0 0 0 0 0 0 0 0 0 0 0 0 0 0 0 0 0 0 0 0 0 0 0 0 0 0 0 0 0 0 0 0 0 0 0 0 0 0 0 0
0 0 0 0 0 0 0 0 0 0 0 0 0 0 0 0 0 0 0 0 0 0 0 0 0 0 0 0 0 0 0 0 0 0 0 0 0 0 0 0 0 0 0

GEFSSE_con_cape1000_018.txt.gz
Probability
74 100 100 100 100 100 100 100 100 100 100 100 100 100 100 100 100 100 100 100 100 100 100 100 100 100 100 100 100 100 100 100 100 100 100 100 100 100 100 100 100 100 100
100 100 100 100 100 100 100 100 100 100 100 100 100 100 100 100 100 100 100 100 100 100 100 100 100 100 100 100 100 100 100 100 100 100 100 100 100 100 100 100 97 100 100
100 100 100 100 100 97 100 100 100 100 100 100 100 100 100 100 100 100 100 100 100 100 100 100 100 100 100 100 100 100 100 100 100 100 100 94 100 100 100 100 100 100 100
100 100 100 100 100 97 97 100 100 100 100 100 100 100 100 100 100 100 100 100 100 100 100 100 100 100 100 100 100 100 100 100 100 100 100 81 84 100 100 100 100 100 100
100 100 100 100 100 97 97 100 100 100 100 100 100 100 100 100 100 97 97 97 100 100 100 100 97 100 100 97 90 100 100 100 100 100 100 97 100 100 100 97 94 97 97
100 100 100 100 100 100 97 97 100 100 100 100 100 100 100 100 100 100 100 100 100 100 100 100 97 94 94 97 94 100 100 100 100 71 48 87 100 100 100 100 97 97 97
71 97 100 100 100 100 100 97 100 100 100 100 100 100 100 100 100 100 100 100 100 100 100 100 100 100 100 100 100 100 100 100 97 55 6 29 97 100 100 100 100 100 100
58 94 100 100 100 100 100 100 94 97 100 100 100 100 100 100 100 100 100 100 100 100 97 97 100 97 100 100 100 100 100 100 61 23 32 23 100 97 100 100 100 100 100
74 90 100 100 100 100 100 100 100 100 100 100 100 100 100 100 100 100 100 100 97 97 97 97 97 97 97 97 100 100 100 100 61 23 13 61 94 90 100 100 100 100 100
97 97 100 100 100 100 100 100 100 100 100 100 100 100 100 100 100 100 100 100 100 100 100 100 100 100 100 100 100 100 100 100 16 0 6 45 100 97 97 100 100 100 100
100 100 100 100 100 100 100 100 100 100 100 100 100 100 100 97 39 97 97 100 100 100 100 100 100 100 100 100 100 100 100 100 52 42 68 84 100 97 100 100 100 100 100
100 100 100 100 100 97 94 100 100 100 100 100 100 100 100 97 97 71 97 100 100 100 100 100 100 100 100 100 100 100 97 90 90 84 84 97 97 97 94 100 100 100 100
100 94 97 97 94 90 90 87 97 94 97 100 100 100 100 100 100 100 100 100 100 100 100 100 100 100 100 100 100 100 94 74 84 87 74 90 97 94 90 100 100 100 100
77 84 81 74 74 90 81 84 81 84 94 94 97 100 100 100 100 100 100 100 100 100 100 100 100 100 100 100 100 94 90 71 58 58 81 94 97 94 90 94 90 94 97
90 84 77 74 65 71 81 74 61 81 87 84 97 94 100 100 97 100 100 100 100 97 100 100 100 100 100 100 87 77 65 48 52 52 55 74 84 94 90 87 84 84 97
84 81 74 65 58 65 77 77 74 61 84 77 84 87 94 90 94 94 100 100 100 100 97 100 100 97 90 87 77 68 61 32 48 52 45 55 81 84 94 87 84 87 90
74 74 65 48 52 61 65 65 61 58 71 90 90 87 84 84 84 90 87 100 100 100 100 100 90 87 77 68 77 77 58 35 35 55 71 74 84 87 84 74 84 87 97
61 74 71 45 55 58 61 65 48 48 61 68 68 71 61 65 74 77 84 87 97 87 87 90 74 68 55 52 61 84 71 71 61 77 81 94 97 77 55 48 48 65 77
71 71 61 52 55 58 65 68 52 61 68 58 52 52 48 48 58 61 77 81 81 68 68 48 48 52 55 55 48 61 55 52 58 35 55 55 61 55 32 26 16 35 29
55 55 55 55 61 61 52 65 55 52 48 48 48 55 55 58 58 71 74 77 55 45 55 55 35 55 42 26 0 0 19 19 35 23 10 3 3 3 0 0 6 0 0
19 32 42 32 35 48 52 35 42 39 48 55 55 42 45 58 61 74 68 68 68 29 39 10 23 6 13 10 13 10 6 3 0 10 0 0 0 0 0 0 0 0 3
3 6 3 6 6 6 10 16 13 32 35 19 29 39 19 39 68 52 84 65 48 74 52 42 42 3 0 0 0 0 0 0 0 0 0 0 0 0 0 0 0 10 3
0 0 0 0 0 0 0 0 0 6 6 6 13 13 10 13 19 48 81 90 94 68 65 87 68 32 3 0 0 0 0 0 0 0 0 0 0 0 0 0 0 0 13
0 0 0 0 0 0 0 0 0 0 0 0 0 0 0 0 3 10 26 68 87 94 94 68 42 48 35 0 3 0 0 0 0 0 0 0 0 0 0 0 0 0 0
0 0 0 0 3 0 0 0 0 0 0 0 0 0 0 0 0 0 3 23 48 81 87 94 77 68 55 13 3 0 0 0 0 0 0 0 0 0 0 0 0 0 0
0 0 0 0 0 0 0 0 0 0 0 0 0 0 0 0 0 0 0 0 3 19 42 71 74 81 84 55 10 0 0 0 0 0 0 0 0 0 0 0 0 0 3

GEFSSE_con_cape1000_024.txt.gz
Probability
100 100 100 100 100 100 100 100 100 100 100 100 100 100 100 100 100 100 100 100 100 97 100 97 90 84 77 90 94 100 100 94 97 97 100 100 100 100 100 97 100 97 100
100 100 100 100 100 100 100 100 100 100 100 100 100 100 100 100 100 100 100 100 100 97 97 100 100 100 100 100 100 100 100 94 90 97 97 100 100 100 100 100 100 100 100
100 100 100 100 100 100 100 100 100 100 100 100 100 100 100 100 100 100 100 100 97 100 100 100 100 100 100 100 100 100 97 100 94 87 97 94 97 100 100 100 100 100 100
100 100 100 100 100 100 100 100 100 100 100 100 100 100 100 100 100 100 100 97 94 100 100 100 100 100 100 100 100 97 90 100 97 97 97 94 68 97 100 100 100 100 100
100 100 100 100 100 100 100 100 100 100 100 100 100 100 100 100 100 100 97 97 94 97 97 100 100 100 100 97 97 94 90 94 100 100 100 100 97 100 97 97 97 100 100
100 100 100 100 100 100 100 100 100 100 100 100 100 100 100 100 100 100 97 97 97 100 100 100 97 100 100 97 94 100 97 100 100 100 100 100 100 100 97 94 94 97 100
100 100 100 100 100 100 100 100 100 100 100 100 100 100 100 100 100 100 100 100 100 100 100 100 100 100 97 97 100 100 100 100 100 100 94 100 100 100 100 97 97 97 97
100 100 100 100 100 100 100 100 100 100 100 100 100 100 100 100 100 100 100 100 100 100 100 100 100 100 100 97 100 100 100 100 68 71 90 97 100 100 100 100 100 100 97
97 100 100 100 100 100 100 100 100 100 100 100 100 100 100 100 100 100 100 100 100 100 100 100 100 100 100 100 100 100 100 100 100 71 48 100 100 100 100 100 100 100 100
97 100 100 100 100 100 100 100 100 100 100 100 100 100 100 100 100 100 100 100 100 100 100 97 97 97 97 100 100 100 100 100 87 3 6 100 100 100 100 100 100 100 100
87 100 100 100 100 100 100 100 100 100 100 100 100 100 100 100 100 100 100 100 100 100 100 100 100 100 100 100 100 100 100 100 3 0 23 100 100 100 100 100 100 100 100
84 100 100 100 100 100 100 100 100 100 100 100 100 100 100 100 100 94 97 100 100 100 100 97 97 100 100 100 100 100 100 71 19 16 71 100 100 100 100 100 100 100 100
97 97 94 97 100 100 100 100 100 100 100 100 100 100 100 100 97 94 90 100 100 94 94 94 94 94 94 90 87 90 94 68 58 39 77 100 100 100 100 100 100 100 100
97 97 94 94 97 97 100 100 100 100 100 100 100 100 100 97 90 84 81 87 90 81 87 84 90 87 87 87 84 84 81 81 74 71 87 94 94 97 97 97 100 97 97
97 94 97 97 100 100 100 100 94 100 97 100 100 100 100 90 81 71 74 68 65 52 65 55 52 55 68 81 81 77 84 77 74 74 74 87 90 87 94 94 97 94 87
97 97 97 90 97 100 100 100 100 100 100 97 100 97 100 94 90 84 71 68 48 29 29 29 26 35 35 48 61 65 71 71 74 61 58 65 84 87 84 87 90 87 87
97 97 94 84 94 100 100 100 100 100 94 97 97 97 97 100 97 87 71 61 42 29 13 13 16 16 26 29 32 42 45 52 55 48 45 42 42 58 74 74 81 87 84
97 97 90 65 74 90 90 97 97 97 97 100 97 100 94 84 84 84 74 61 48 32 23 10 10 10 19 23 26 23 26 39 26 32 26 29 16 19 45 71 77 84 84
94 90 81 77 81 77 71 71 74 84 90 97 97 97 90 84 84 84 81 68 48 26 23 6 6 3 3 13 23 26 29 29 26 23 19 13 13 23 16 29 65 65 71
65 68 65 58 58 48 29 45 48 45 48 65 74 71 74 74 74 87 84 71 58 42 35 10 10 13 16 19 0 0 16 19 29 19 16 3 6 10 13 13 19 29 71
29 39 35 42 45 55 32 23 23 3 16 26 39 39 29 39 45 65 65 84 74 52 32 29 19 23 23 29 16 3 0 6 10 19 10 10 6 16 32 19 10 13 3
6 10 32 29 29 32 45 52 39 16 6 3 13 10 10 10 13 10 55 58 68 74 55 42 39 32 29 13 0 0 3 0 16 0 3 26 6 13 6 13 10 32 19
0 3 0 16 29 45 29 13 6 6 3 6 3 3 0 0 3 6 19 32 65 71 68 45 42 26 23 23 29 0 0 0 0 0 3 0 3 0 0 0 6 26 32
0 0 6 16 23 16 10 6 0 0 0 0 3 0 0 0 0 3 3 3 26 48 58 48 35 42 32 19 19 39 26 0 0 0 0 0 3 6 6 0 0 6 29
0 0 3 6 3 3 3 0 0 0 0 0 0 0 0 0 0 0 0 0 3 6 16 26 39 48 45 19 19 29 16 26 6 0 0 0 0 6 10 10 3 6 19
0 0 0 0 0 0 0 0 0 0 0 0 0 0 0 0 0 0 0 0 0 3 3 6 13 23 29 16 19 16 23 16 3 0 0 0 0 3 13 23 13 26 23

GEFSSE_con_cape1000_030.txt.gz
Probability
100 100 100 100 100 100 100 100 100 100 100 100 100 100 100 100 100 100 100 100 100 100 100 97 97 100 100 100 100 100 100 100 100 100 100 100 100 100 100 100 100 100 100
100 100 100 100 100 100 100 100 100 100 100 100 100 100 100 100 100 100 100 100 100 100 100 100 100 100 100 100 100 100 100 100 100 100 100 100 100 100 100 100 100 100 100
100 100 100 100 100 100 100 100 100 100 100 100 100 100 100 100 100 100 100 100 100 100 100 100 100 100 100 100 100 100 100 100 100 100 100 100 100 100 100 100 100 100 100
100 100 100 100 100 100 100 100 100 100 100 100 100 100 100 100 100 100 100 100 100 100 100 100 100 100 100 100 100 100 100 100 100 100 84 100 100 100 100 100 100 100 100
100 100 100 100 100 100 100 100 100 100 100 100 100 100 100 100 100 100 100 100 100 100 100 100 100 100 100 100 100 100 100 100 100 100 81 65 100 100 100 100 100 100 100
100 100 100 100 100 100 100 100 100 100 100 100 100 100 100 100 100 100 100 100 100 100 100 100 100 100 100 100 100 100 100 100 100 97 81 42 97 100 100 100 100 100 100
100 100 100 100 100 100 100 100 100 100 100 100 100 100 100 100 100 100 100 100 100 100 100 100 100 100 100 100 100 100 100 100 100 90 58 39 90 100 100 100 100 100 100
100 100 100 100 100 100 100 100 100 100 100 100 100 100 100 100 100 100 100 100 100 100 100 100 100 100 100 100 100 100 100 100 100 100 90 58 97 100 100 100 100 100 100
100 100 100 100 100 100 100 100 100 100 100 100 100 100 100 100 100 100 100 100 100 100 100 100 100 100 100 100 100 100 100 100 100 81 84 61 100 100 100 100 100 100 100
100 100 97 100 100 100 100 100 100 100 100 100 100 100 100 100 100 100 100 100 100 100 100 100 100 100 100 100 100 100 100 100 97 97 32 65 100 100 100 100 100 100 100
97 100 100 100 100 100 100 100 100 100 100 100 100 100 100 100 100 100 100 100 100 100 100 100 100 100 100 100 100 100 100 97 94 58 6 32 97 100 100 100 100 100 100
90 90 97 97 97 97 100 100 100 100 100 100 100 100 100 100 100 100 100 100 97 97 97 100 100 100 90 87 87 90 97 94 94 45 3 35 100 100 100 100 100 100 100
77 84 90 84 90 94 97 100 97 100 100 97 97 100 100 97 97 90 68 74 94 97 94 84 77 74 71 68 68 81 81 81 71 29 10 45 97 100 100 100 100 100 100
65 61 65 65 65 77 87 94 90 90 90 90 97 100 97 94 81 71 52 42 42 48 48 45 39 35 26 29 29 29 35 52 39 23 10 55 94 97 94 97 97 97 100
52 48 52 45 39 45 52 65 71 65 74 87 87 97 94 87 71 58 42 23 23 19 19 19 13 10 10 13 13 10 13 13 16 10 6 45 84 94 94 94 94 94 97
39 39 42 39 35 32 35 32 32 35 58 52 77 84 84 68 58 48 29 19 13 13 10 10 3 3 3 6 3 3 6 6 3 6 6 6 45 74 81 90 87 90 87
16 19 19 16 13 16 16 23 26 29 32 35 42 48 48 48 42 39 19 19 13 10 6 3 0 3 0 0 3 3 3 3 3 3 3 3 3 39 61 81 81 87 87
19 10 13 10 6 3 6 10 13 10 13 19 19 26 35 35 45 32 13 10 13 10 6 0 0 3 0 0 0 0 0 0 0 0 3 3 3 3 19 61 71 77 74
19 10 6 3 0 0 0 0 3 3 6 6 16 10 23 19 23 13 10 10 6 3 0 0 0 3 0 0 0 0 0 0 0 0 0 0 0 3 3 10 45 42 65
19 13 10 0 0 0 0 0 0 0 0 0 0 3 6 13 10 0 6 3 3 6 0 0 3 0 0 0 0 0 0 0 0 0 0 0 0 0 0 0 0 3 39
10 10 3 0 0 0 0 0 0 0 0 0 0 0 0 0 0 0 0 0 0 3 3 0 0 0 0 0 0 0 0 0 0 0 0 0 0 0 0 0 0 0 0
10 6 0 0 0 0 0 0 0 0 0 0 0 0 0 0 0 0 0 0 0 0 0 0 0 0 0 0 0 0 0 0 0 0 0 0 0 0 0 0 0 0 0
6 6 3 0 0 0 0 0 0 0 0 0 0 0 0 0 0 0 0 0 0 0 0 0 0 0 0 0 0 0 0 0 0 0 0 0 0 0 0 0 0 0 0
0 0 0 0 0 0 0 0 0 0 0 0 0 0 0 0 0 0 0 0 0 0 0 0 0 0 0 0 0 0 0 0 0 0 0 0 0 0 0 0 0 0 0
0 0 0 0 0 0 0 0 0 0 0 0 0 0 0 0 0 0 0 0 0 0 0 0 0 0 0 0 0 0 0 0 0 0 0 0 0 0 0 0 0 0 0
0 0 0 0 0 0 0 0 0 0 0 0 0 0 0 0 0 0 0 0 0 0 0 0 0 0 0 0 0 0 0 0 0 0 0 0 0 0 0 0 0 0 0

GEFSSE_con_cape1000_036.txt.gz
Probability
100 100 100 100 100 100 100 100 100 100 100 100 100 100 100 100 100 100 100 100 100 100 100 94 97 97 97 97 100 100 100 100 100 100 100 100 100 100 100 100 100 100 100
100 100 100 100 100 100 100 100 100 100 100 100 100 100 100 100 100 100 100 100 100 100 100 100 100 100 97 100 100 100 100 100 100 100 100 100 100 100 100 100 100 100 100
100 100 100 100 100 100 100 100 100 100 100 100 100 100 100 100 100 100 100 100 100 100 100 100 100 100 100 100 100 100 100 100 100 100 100 100 100 100 100 100 100 100 100
100 100 100 100 100 100 100 100 100 100 100 100 100 100 100 100 100 100 100 100 100 100 100 100 100 100 100 100 100 100 100 100 100 100 100 100 100 100 100 100 100 100 100
100 100 100 100 100 100 100 100 100 100 100 100 100 100 100 100 100 100 100 100 100 100 100 100 100 100 100 97 100 100 100 100 100 100 97 100 100 100 100 100 100 100 100
100 100 100 100 100 100 100 100 100 100 100 100 100 100 100 100 100 100 100 100 100 100 100 100 100 100 100 100 97 100 100 100 100 87 90 100 100 100 100 100 100 100 100
100 100 100 100 100 100 100 100 100 100 100 100 100 100 100 100 100 100 100 100 100 100 100 100 100 100 100 100 97 100 100 100 100 97 97 94 100 100 100 100 100 100 100
100 100 100 100 100 100 100 100 100 100 100 100 100 100 100 100 100 100 100 100 100 100 100 100 100 100 100 100 100 100 100 100 100 97 90 90 100 100 100 100 100 100 100
100 100 100 100 100 100 100 100 100 100 100 100 100 100 100 100 100 100 100 100 100 100 100 100 100 100 100 100 100 100 100 100 97 97 87 81 94 100 100 100 100 100 100
100 100 100 100 100 100 100 100 100 100 100 100 100 100 100 100 100 100 100 100 100 100 100 100 100 100 100 100 100 100 100 100 94 97 100 81 90 100 100 100 100 100 100
100 100 100 100 100 100 100 100 100 100 100 100 100 100 100 100 100 100 100 100 100 100 100 100 100 100 100 100 100 97 97 94 87 94 84 81 90 97 100 100 100 100 100
94 94 84 94 97 100 100 100 97 97 100 100 100 100 100 100 100 100 100 100 100 100 100 94 97 97 87 84 84 90 87 87 84 81 81 87 97 97 97 100 100 100 100
71 84 77 74 81 84 90 94 94 94 94 100 100 100 100 100 97 100 100 97 94 100 94 90 97 84 77 65 58 58 61 65 71 68 55 94 97 87 87 100 100 100 100
61 58 48 45 52 61 65 68 68 77 77 77 87 90 94 90 94 84 74 71 61 52 55 65 61 55 48 45 39 39 35 39 39 45 39 65 84 84 84 90 100 100 100
45 39 23 26 26 23 29 35 39 42 45 45 52 68 84 84 81 61 52 39 29 23 26 23 26 26 29 29 23 19 19 16 19 16 23 35 48 71 68 90 97 100 97
19 10 10 3 3 3 13 13 13 13 23 19 19 29 42 58 58 45 39 16 10 10 13 10 10 6 10 6 10 6 6 6 6 10 10 10 32 42 65 65 87 97 97
6 6 3 0 0 0 0 0 0 3 3 3 3 6 13 19 26 23 16 16 10 6 6 6 6 6 6 6 6 3 3 3 3 3 3 6 6 13 29 45 58 84 84
6 0 0 0 0 0 0 0 0 0 0 0 0 0 3 6 13 13 13 13 10 3 3 3 3 3 6 6 3 0 3 3 3 3 3 3 3 3 6 29 35 61 61
0 0 0 0 0 0 0 0 0 0 0 0 0 0 0 3 3 0 0 0 3 3 3 3 6 6 3 6 0 0 0 3 0 0 3 3 3 3 3 3 23 26 39
0 0 0 0 0 0 0 0 0 0 0 0 0 0 0 0 0 0 0 0 0 0 0 0 0 0 0 0 0 0 3 3 0 0 0 0 3 3 3 3 3 10 23
0 0 0 0 0 0 0 0 0 0 0 0 0 0 0 0 0 0 0 0 0 0 0 0 0 0 0 0 0 0 0 0 0 0 0 0 0 0 0 0 0 3 3
0 0 0 0 0 0 0 0 0 0 0 0 0 0 0 0 0 0 0 0 0 0 0 0 0 0 0 0 0 0 0 0 0 0 0 0 0 0 0 0 0 3 3
0 0 0 0 0 0 0 0 0 0 0 0 0 0 0 0 0 0 0 0 0 0 0 0 0 0 0 0 0 0 0 0 0 0 0 0 0 0 0 0 0 0 0
0 0 0 0 0 0 0 0 0 0 0 0 0 0 0 0 0 0 0 0 0 0 0 0 0 0 0 0 0 0 0 0 0 0 0 0 0 0 0 0 0 0 0
0 0 0 0 0 0 0 0 0 0 0 0 0 0 0 0 0 0 0 0 0 0 0 0 0 0 0 0 0 0 0 0 0 0 0 0 0 0 0 0 0 0 0
0 0 0 0 0 0 0 0 0 0 0 0 0 0 0 0 0 0 0 0 0 0 0 0 0 0 0 0 0 0 0 0 0 0 0 0 0 0 0 0 0 0 0

GEFSSE_con_cape1000_042.txt.gz
Probability
81 100 100 100 100 100 100 100 100 100 100 100 100 100 100 100 100 100 97 97 100 97 90 97 97 90 97 97 94 100 100 100 100 100 100 100 100 100 100 100 100 100 100
94 100 100 100 100 100 100 100 100 100 100 100 100 100 100 100 100 100 100 100 100 100 90 94 97 97 97 97 97 100 100 100 100 100 100 100 100 100 100 100 100 100 100
100 100 100 100 100 100 100 100 100 100 100 100 100 100 100 100 100 100 100 100 100 100 97 100 100 100 97 97 100 100 100 100 100 100 100 100 100 100 100 100 100 100 100
100 100 100 100 100 100 100 100 100 100 100 100 100 100 100 100 100 100 100 100 100 100 100 94 97 100 100 90 94 100 100 100 100 100 100 100 100 100 100 100 100 100 100
100 100 100 100 100 100 100 100 100 100 100 100 100 100 100 100 100 100 100 100 100 100 100 97 100 100 100 90 97 100 100 100 97 100 94 100 100 100 100 100 100 100 100
100 100 100 100 100 100 100 100 100 100 100 100 100 100 100 100 100 100 100 100 100 100 100 100 100 100 100 97 97 100 100 97 97 55 65 87 100 100 100 100 100 100 100
100 100 100 100 100 100 100 100 100 100 100 100 100 100 100 100 100 100 100 100 100 100 100 100 100 100 100 100 97 97 100 100 94 55 61 74 100 100 100 100 100 100 100
100 100 100 100 100 100 100 100 100 100 100 100 100 100 100 100 100 100 100 100 100 100 100 100 100 100 100 100 100 97 100 100 94 71 71 81 100 100 100 100 100 100 100
97 97 100 100 100 100 100 100 100 100 100 100 100 100 100 100 100 100 100 100 100 100 100 100 100 100 100 100 100 100 100 100 94 97 77 97 100 100 100 100 100 100 100
97 97 97 97 97 97 94 94 94 97 97 97 97 97 100 100 100 100 100 100 100 100 100 100 100 100 97 100 100 100 100 97 65 84 94 100 97 100 100 100 100 100 100
100 97 90 90 97 97 94 90 90 90 94 94 94 94 97 97 100 100 100 100 100 100 100 100 97 97 97 97 97 100 94 84 48 65 84 97 97 97 100 100 100 100 100
97 94 97 94 90 87 81 90 87 87 94 97 97 97 97 97 97 97 100 100 100 100 100 100 97 94 94 90 87 90 81 61 45 52 68 94 94 94 97 100 100 100 100
90 90 90 87 87 74 74 77 81 87 90 94 90 94 97 97 94 97 97 100 100 97 100 97 97 94 87 81 74 71 71 61 52 45 45 90 87 90 97 97 100 100 100
87 81 74 90 87 84 81 77 71 68 74 74 77 81 87 97 100 94 100 100 94 94 94 94 100 90 90 84 74 77 68 65 42 23 58 84 87 87 87 87 97 100 100
94 90 84 94 84 84 84 61 52 58 39 42 58 58 71 65 81 81 90 90 81 81 81 77 74 84 87 81 71 65 71 68 61 35 35 68 74 84 77 77 81 90 100
94 94 87 84 77 71 58 55 39 29 29 23 23 19 39 42 58 68 74 77 74 81 77 74 68 71 71 68 65 55 61 61 61 65 35 42 74 68 71 71 74 77 87
90 84 77 71 55 48 42 35 29 13 10 10 10 10 6 13 26 42 52 52 58 55 71 61 55 52 55 55 55 61 68 68 61 71 58 52 45 58 58 71 71 71 71
84 74 61 23 42 35 26 19 10 3 3 3 0 0 3 3 10 19 23 29 42 39 32 39 29 29 35 35 42 42 55 61 58 65 55 58 45 13 26 42 45 61 61
77 68 52 32 23 13 10 6 6 6 0 0 0 0 0 3 3 10 10 23 19 13 13 13 16 23 19 26 26 39 39 42 58 39 35 32 35 39 16 16 35 39 35
58 48 42 26 19 10 6 6 0 0 0 0 0 0 0 0 3 0 0 3 0 0 3 6 6 10 13 16 13 16 23 26 29 26 26 23 26 26 16 6 23 16 23
39 39 29 16 13 6 3 0 0 0 0 0 0 0 0 0 0 0 0 0 0 0 0 0 3 3 3 3 3 6 16 16 10 19 16 16 6 13 13 13 16 19 19
35 26 29 19 13 10 6 0 0 0 0 0 0 0 0 0 0 0 0 0 0 0 0 0 0 0 0 0 0 0 3 6 23 10 19 16 10 10 10 3 13 26 13
35 42 26 35 26 19 6 0 0 3 0 0 0 0 0 0 0 0 0 0 0 0 0 0 0 0 0 0 0 0 3 3 10 16 13 6 16 13 10 10 10 13 19
29 35 52 58 58 42 29 3 0 6 0 0 0 0 0 0 0 0 0 0 0 0 0 0 0 0 0 0 0 0 0 0 0 10 13 3 6 6 6 3 10 16 23
39 52 65 74 74 55 35 26 26 10 3 0 0 0 0 0 0 0 0 0 0 0 0 0 0 0 0 0 0 0 0 0 0 0 6 6 6 3 3 6 6 13 26
65 65 68 81 77 68 35 29 19 16 6 0 0 0 0 0 0 0 0 0 0 0 0 0 0 0 0 0 0 0 0 0 0 0 0 0 6 6 6 6 3 10 13

GEFSSE_con_cape1000_048.txt.gz
Probability
100 100 100 100 100 100 100 100 100 100 100 100 100 100 100 100 100 100 100 100 94 94 90 94 97 100 90 90 94 97 94 100 94 90 94 100 100 100 100 100 100 100 100
100 100 100 100 100 100 100 100 100 100 100 100 100 100 100 100 100 100 100 100 97 94 97 94 97 97 97 90 90 94 94 94 94 94 100 100 100 100 100 100 100 100 100
100 100 100 100 100 100 100 100 100 100 100 100 100 100 100 100 100 100 100 100 94 90 87 87 94 94 90 90 87 90 90 94 94 97 100 100 100 100 100 100 100 100 100
97 100 100 100 100 100 100 100 100 100 100 100 100 100 100 100 100 100 100 100 100 94 90 77 87 94 84 81 84 90 94 94 90 100 100 100 100 100 100 97 97 100 100
100 100 100 100 100 100 100 100 100 100 100 100 100 100 100 100 100 100 100 100 100 97 97 90 84 90 90 84 84 90 97 94 97 97 100 100 100 100 100 97 97 100 100
100 100 100 100 100 100 100 100 100 100 100 100 100 100 100 100 100 100 100 100 100 97 97 97 100 100 94 94 84 87 97 97 97 90 97 100 100 100 100 100 100 100 100
100 100 100 100 100 100 100 100 100 100 100 100 100 100 100 100 100 100 100 100 100 100 100 100 100 100 100 97 97 94 97 100 100 97 97 100 100 100 100 100 100 100 100
100 100 100 100 100 100 100 100 100 100 100 100 100 100 100 100 100 100 100 100 100 100 100 100 100 100 100 100 100 97 97 100 90 68 97 100 100 100 100 100 100 100 100
100 100 100 100 100 100 100 100 100 100 100 100 100 100 100 97 97 97 100 100 97 100 100 100 100 100 100 100 100 100 97 100 94 100 94 100 100 100 100 100 100 100 100
100 100 100 100 97 97 100 100 100 100 100 100 97 97 97 94 90 90 94 94 97 97 100 100 100 100 100 100 100 100 100 100 65 55 84 94 94 100 97 100 100 100 100
100 100 100 94 94 94 94 94 97 100 94 90 100 100 94 94 94 87 90 90 90 90 100 100 100 100 100 100 100 100 100 94 35 32 81 90 94 97 100 100 100 100 100
97 97 97 87 90 87 87 94 87 87 90 94 94 90 84 87 87 87 90 90 90 97 94 100 100 97 97 97 97 100 87 87 45 26 77 81 87 94 94 100 100 100 100
97 90 87 87 84 84 74 74 77 84 90 87 87 81 81 84 87 84 90 90 97 90 94 97 100 94 94 87 81 81 71 58 42 35 77 84 87 97 97 97 97 97 100
94 94 90 87 84 87 81 71 77 71 65 65 61 55 65 65 84 81 90 94 97 97 97 97 94 97 94 90 81 74 74 61 55 55 74 84 90 94 94 97 97 94 100
90 90 87 87 90 87 77 77 58 58 35 29 32 32 29 35 55 58 68 90 90 87 87 90 90 87 77 77 77 77 77 74 65 61 65 87 87 94 94 90 94 90 90
90 94 94 90 81 74 71 58 52 32 35 19 10 6 6 13 29 35 52 84 84 87 84 90 87 84 84 81 74 74 71 65 71 71 65 81 87 90 94 94 90 90 94
87 87 81 74 74 58 45 35 26 19 3 3 6 3 3 3 6 6 23 48 71 71 77 77 74 74 81 74 71 71 65 65 65 74 71 71 61 81 84 87 87 90 94
87 84 77 42 42 42 39 26 10 6 3 3 3 3 0 0 3 3 10 13 32 35 39 58 61 55 52 52 58 52 61 61 58 74 74 71 71 55 71 87 87 87 90
90 84 77 65 45 32 26 19 13 10 3 3 3 0 0 0 0 3 6 6 16 26 26 26 39 29 35 42 32 35 35 42 55 48 52 68 68 68 58 52 84 84 87
87 81 81 68 48 39 23 23 16 6 3 0 0 0 0 0 0 3 3 6 6 10 23 23 23 26 23 26 0 0 26 32 42 45 52 45 52 58 58 45 55 55 77
81 77 81 68 68 58 48 39 42 35 13 3 0 0 0 0 0 0 0 3 3 3 16 6 10 10 16 23 6 6 6 13 19 35 48 48 52 48 52 65 61 48 35
81 84 90 87 84 68 77 65 61 35 26 13 3 0 0 0 0 0 0 0 0 3 0 3 0 3 0 0 6 0 0 3 35 3 32 48 26 48 52 39 55 61 42
81 90 65 94 87 84 68 55 52 42 48 32 10 6 0 0 0 0 0 0 0 0 0 0 0 0 0 0 0 0 0 0 0 6 13 26 29 35 29 39 26 45 35
77 77 97 97 90 87 81 74 68 55 35 26 19 13 0 0 0 0 0 0 0 0 0 0 0 0 3 3 0 0 0 0 0 0 0 3 19 19 19 10 13 29 39
55 77 94 94 94 94 84 74 65 61 42 26 16 6 0 0 0 0 0 0 0 0 0 0 0 0 0 0 0 0 0 0 0 0 0 0 3 6 13 19 10 19 23
65 81 87 94 94 87 84 74 65 48 32 23 13 6 3 0 0 0 0 0 0 0 0 0 0 0 0 0 0 0 0 0 0 0 0 0 0 0 6 3 10 13 16

GEFSSE_con_cape1000_054.txt.gz
Probability
100 100 100 100 100 100 100 100 100 100 100 100 100 100 100 100 100 100 100 100 100 100 100 97 100 97 100 100 100 100 100 100 100 100 100 100 100 100 100 100 97 94 100
100 100 100 100 100 100 100 100 100 100 100 100 100 100 100 100 100 100 100 100 100 100 100 94 97 97 100 100 100 100 100 97 100 100 100 100 100 100 100 100 100 97 100
100 100 100 100 100 100 100 100 100 100 100 100 100 100 100 100 100 100 100 100 100 97 100 100 97 94 97 100 100 100 100 97 97 100 100 100 100 100 100 100 100 100 97
100 100 100 100 100 100 100 100 100 100 100 100 100 100 100 100 100 100 100 100 100 100 100 100 90 87 90 90 97 97 90 97 100 100 81 97 90 100 100 100 100 100 100
100 100 100 100 100 100 100 100 100 100 100 100 100 100 100 100 100 100 100 100 100 100 97 97 90 84 84 81 84 94 94 97 100 94 71 68 97 100 100 100 100 100 100
100 100 100 100 100 100 100 100 100 100 100 100 100 100 100 100 100 100 100 100 97 97 97 97 97 90 84 90 81 87 97 100 94 68 55 84 97 100 100 100 100 100 100
100 100 100 100 100 100 100 100 100 100 100 100 100 100 100 100 100 100 100 100 100 97 97 100 100 100 90 77 87 90 97 97 81 61 55 90 100 100 100 100 100 100 100
100 100 100 100 100 100 100 100 100 100 100 100 100 100 100 100 100 100 100 100 100 100 100 100 100 100 100 97 90 94 97 97 81 58 77 81 97 100 100 100 100 100 100
100 100 100 100 100 100 100 100 100 100 100 100 100 100 100 100 100 100 100 100 100 100 100 100 100 100 100 100 100 100 100 94 58 45 77 81 94 100 100 100 100 100 100
94 94 94 100 100 100 100 100 100 100 100 100 97 97 97 97 94 90 90 100 100 100 100 100 100 100 100 100 100 100 100 90 48 32 39 84 97 97 100 100 100 100 100
81 90 90 94 90 94 97 100 100 100 97 97 97 97 84 71 71 84 90 87 87 100 100 100 100 100 100 100 100 97 94 74 42 13 19 84 90 94 94 100 100 100 100
84 84 77 81 81 77 77 77 81 81 71 61 55 52 42 42 42 61 84 87 87 90 94 97 100 100 97 94 94 97 84 68 52 19 19 84 84 87 94 100 100 100 100
84 81 74 74 71 74 74 68 61 42 26 19 16 16 19 13 16 19 26 39 55 77 71 77 90 87 90 81 77 74 77 71 45 23 26 84 81 84 94 97 100 100 100
77 71 71 61 61 61 55 35 32 19 10 3 3 6 10 3 3 0 3 23 23 26 42 39 45 65 65 55 48 42 61 58 42 19 16 81 87 87 94 97 97 100 100
71 71 65 55 48 45 26 19 3 6 6 0 0 0 3 0 0 0 0 0 6 3 6 6 10 23 29 29 35 39 32 32 32 29 19 77 87 94 94 94 94 97 100
71 68 61 45 29 16 16 10 0 6 0 0 0 0 0 0 0 0 0 0 0 0 0 0 0 0 3 6 6 6 10 13 16 6 6 35 94 94 97 94 94 97 97
71 68 58 39 23 16 10 6 6 3 0 0 0 0 0 0 0 0 0 0 0 0 0 0 0 0 0 0 0 0 0 3 3 3 6 13 32 81 90 94 94 97 97
61 48 29 26 10 10 6 6 0 0 0 0 0 0 0 0 0 0 0 0 0 0 0 0 0 0 0 0 0 0 0 0 0 0 0 3 6 26 48 94 94 97 97
48 39 19 16 10 10 6 0 0 0 0 0 0 0 0 0 0 0 0 0 0 0 0 0 0 0 0 0 0 0 0 0 0 0 0 0 0 3 10 32 87 94 94
29 19 13 13 10 3 3 0 0 0 0 0 0 0 0 0 0 0 0 0 0 0 0 0 0 0 0 0 0 0 0 0 0 0 0 0 0 0 6 3 23 52 87
23 13 10 13 3 0 0 0 0 0 0 0 0 0 0 0 0 0 0 0 0 0 0 0 0 0 0 0 0 0 0 0 0 0 0 0 0 0 0 6 6 6 13
16 13 10 3 3 3 3 0 0 0 0 0 0 0 0 0 0 0 0 0 0 0 0 0 0 0 0 0 0 0 0 0 0 0 0 0 0 0 3 3 6 6 0
13 10 6 3 0 0 0 0 0 0 0 0 0 0 0 0 0 0 0 0 0 0 0 0 0 0 0 0 0 0 0 0 0 0 0 0 0 0 0 0 0 3 3
13 10 6 6 0 0 0 0 0 0 0 0 0 0 0 0 0 0 0 0 0 0 0 0 0 0 0 0 0 0 0 0 0 0 0 0 0 0 0 0 0 3 0
10 10 10 3 0 0 0 0 0 0 0 0 0 0 0 0 0 0 0 0 0 0 0 0 0 0 0 0 0 0 0 0 0 0 0 0 0 0 0 0 0 0 0
10 16 16 3 6 3 3 0 0 0 0 0 0 0 0 0 0 0 0 0 0 0 0 0 0 0 0 0 0 0 0 0 0 0 0 0 0 0 0 0 0 0 0

GEFSSE_con_cape1000_060.txt.gz
Probability
97 100 100 100 100 100 100 100 100 100 100 100 100 100 100 100 100 100 100 100 100 100 94 90 97 100 100 100 100 97 97 97 97 94 84 90 90 94 100 94 97 90 97
100 100 100 100 100 100 100 100 100 100 100 100 100 100 100 100 100 100 100 100 100 97 90 97 100 100 100 100 100 100 97 97 100 97 94 87 90 90 97 97 94 94 97
100 100 100 100 100 100 100 100 100 100 100 100 100 100 100 100 100 100 100 100 100 97 87 90 90 94 100 100 100 97 97 97 100 100 100 100 100 97 97 94 97 97 100
100 100 100 100 100 100 100 100 100 100 100 100 100 100 100 100 100 100 100 97 97 97 90 87 87 97 97 97 100 97 100 100 100 100 94 100 97 97 100 97 100 100 97
100 100 100 100 100 100 100 100 100 100 100 100 100 100 100 100 100 100 97 94 94 94 84 94 81 81 87 94 94 97 100 100 100 97 84 97 100 100 100 100 100 100 100
100 100 100 100 100 100 100 100 100 100 100 100 100 100 100 100 100 97 97 100 100 94 84 90 87 94 84 87 94 100 100 100 97 71 87 100 100 100 100 100 100 100 100
100 100 100 100 100 100 100 100 100 100 100 100 100 100 100 100 100 100 100 100 100 100 94 94 90 97 94 94 94 100 100 100 65 71 90 97 100 100 100 100 100 100 100
100 100 100 100 100 100 100 100 100 100 100 100 100 100 100 100 100 100 100 100 100 100 100 100 97 94 97 100 94 100 97 97 81 65 90 97 100 100 100 100 100 100 100
100 100 100 100 100 100 100 100 100 100 100 100 100 100 100 100 100 100 100 100 100 100 100 100 100 100 100 100 100 100 100 97 32 71 74 100 100 100 100 100 100 100 100
94 97 100 100 100 100 100 100 100 100 100 100 100 100 100 100 100 100 97 100 100 100 100 100 100 100 100 100 100 100 100 84 42 48 87 90 100 100 100 100 100 100 100
90 90 90 94 90 94 100 100 97 97 100 94 84 81 65 48 55 68 87 90 100 100 100 97 97 100 100 100 100 100 84 58 45 42 58 84 100 100 100 100 100 100 100
81 81 81 81 84 81 84 68 52 45 39 32 29 29 23 19 26 45 52 74 87 90 90 94 97 97 94 94 94 94 71 68 48 48 45 81 97 97 97 100 100 100 100
77 77 81 77 74 68 68 45 32 16 16 16 13 10 6 3 3 0 10 19 26 61 71 81 84 84 90 84 81 81 68 68 65 58 48 81 90 87 87 100 100 100 100
61 68 68 68 65 55 42 32 16 16 6 6 0 3 0 0 0 0 0 6 13 16 26 42 48 48 68 77 68 68 65 61 61 61 45 81 90 84 87 97 100 100 100
48 58 55 58 48 29 23 19 6 6 0 0 0 0 0 0 0 0 0 0 3 3 3 0 6 29 32 39 39 45 42 39 48 45 39 58 87 84 87 94 97 97 100
39 48 48 35 26 16 10 3 6 0 0 0 0 0 0 0 0 0 0 0 0 0 0 0 0 0 0 10 10 13 6 26 26 29 23 23 58 77 87 94 97 97 90
35 29 32 29 16 10 6 0 0 0 0 0 0 0 0 0 0 0 0 0 0 0 0 0 0 0 0 0 0 3 0 0 6 6 16 23 32 55 81 87 90 94 97
29 26 19 26 10 6 0 0 0 0 0 0 0 0 0 0 0 0 0 0 0 0 0 0 0 0 0 0 0 0 0 0 0 0 3 3 16 26 45 77 87 90 94
19 16 16 16 6 3 3 0 0 0 0 0 0 0 0 0 0 0 0 0 0 0 0 0 0 0 0 0 0 0 0 0 0 0 0 0 0 16 23 32 65 77 90
16 13 13 10 6 3 0 0 0 0 0 0 0 0 0 0 0 0 0 0 0 0 0 0 0 0 0 0 0 0 0 0 0 0 0 0 0 0 10 16 26 35 65
16 10 6 3 3 0 0 0 0 0 0 0 0 0 0 0 0 0 0 0 0 0 0 0 0 0 0 0 0 0 0 0 0 0 0 0 0 0 0 3 13 13 23
16 6 6 6 0 0 0 0 0 0 0 0 0 0 0 0 0 0 0 0 0 0 0 0 0 0 0 0 0 0 0 0 0 0 0 0 0 0 0 0 3 6 13
10 6 6 0 0 0 0 0 0 0 0 0 0 0 0 0 0 0 0 0 0 0 0 0 0 0 0 0 0 0 0 0 0 0 0 0 0 0 0 0 0 3 6
6 6 3 0 0 0 0 0 0 0 0 0 0 0 0 0 0 0 0 0 0 0 0 0 0 0 0 0 0 0 0 0 0 0 0 0 0 0 0 0 0 0 6
6 3 0 0 0 0 0 0 0 0 0 0 0 0 0 0 0 0 0 0 0 0 0 0 0 0 0 0 0 0 0 0 0 0 0 0 0 0 0 0 0 0 0
3 6 3 0 0 0 0 0 0 0 0 0 0 0 0 0 0 0 0 0 0 0 0 0 0 0 0 0 0 0 0 0 0 0 0 0 0 0 0 0 0 0 0

GEFSSE_con_cape1000_066.txt.gz
Probability
39 68 100 100 100 100 100 100 100 100 100 100 100 100 100 100 100 100 100 100 97 97 97 100 100 97 97 87 87 90 87 94 84 71 74 68 81 81 84 94 90 84 94
42 77 100 100 100 100 100 100 100 100 100 100 100 100 100 100 100 100 100 100 97 87 87 94 97 100 97 100 100 94 94 94 87 84 87 77 81 87 94 90 90 94 97
58 77 97 100 100 100 100 100 100 100 100 100 100 100 100 100 100 100 100 97 87 81 81 87 90 94 100 100 97 97 97 97 97 97 94 87 90 94 94 90 94 94 100
55 65 68 100 100 100 100 100 100 100 100 100 100 100 100 100 100 97 94 97 90 77 77 84 87 97 97 97 97 100 97 100 100 100 97 87 87 97 94 90 94 97 97
52 77 100 100 100 100 100 100 100 100 100 100 100 100 100 100 97 94 94 90 84 81 71 77 81 90 94 100 100 100 100 100 97 97 87 94 94 94 94 90 94 97 94
81 87 100 100 100 100 100 100 100 100 100 100 100 100 100 100 97 97 94 97 87 84 77 74 87 90 90 100 100 100 100 100 100 87 87 90 100 100 97 94 97 97 97
71 81 94 100 100 100 100 100 100 100 100 100 100 100 100 100 100 100 97 97 100 97 94 90 90 97 94 94 100 100 100 97 87 77 94 90 100 100 100 97 97 97 97
77 84 97 100 100 100 100 100 100 100 100 100 100 100 100 97 97 100 100 100 100 100 97 94 97 100 100 100 100 97 100 100 55 42 58 100 100 100 100 97 97 97 100
81 87 97 90 97 100 100 100 100 100 100 100 100 100 100 100 100 97 94 97 100 100 100 100 97 97 100 100 97 100 97 100 90 52 42 97 100 100 100 97 100 100 100
94 97 97 97 97 97 97 100 100 100 100 100 100 100 100 100 97 97 97 97 97 97 97 97 97 100 100 100 100 97 94 90 84 65 55 97 100 100 100 100 100 100 100
97 97 97 94 97 97 94 94 100 100 97 97 97 84 87 87 90 90 87 90 90 97 97 94 94 94 100 94 94 97 94 81 58 61 81 94 100 94 100 100 100 100 100
97 94 97 94 100 97 94 100 100 97 94 77 74 71 68 74 77 68 61 77 81 84 87 81 90 94 87 87 90 90 77 74 55 55 87 90 94 90 97 100 100 100 100
97 97 94 94 97 100 100 97 87 81 77 61 55 55 58 52 52 58 65 68 81 84 87 84 84 77 77 90 84 77 71 39 52 55 77 90 90 90 90 90 97 97 100
90 90 87 90 97 100 90 84 71 55 48 39 45 45 29 32 35 42 58 58 68 81 87 81 84 77 77 87 87 81 87 84 61 58 90 90 90 94 84 87 90 94 97
90 87 90 90 90 87 87 77 48 42 29 26 29 19 13 10 13 13 32 52 52 61 65 77 74 87 90 90 84 81 84 77 71 71 81 77 81 74 81 77 84 84 90
84 87 84 84 87 87 74 68 42 29 26 26 13 10 6 3 6 13 13 26 26 39 55 58 58 74 68 65 65 71 71 74 84 77 71 74 71 74 77 77 81 81 84
84 84 84 77 81 68 61 45 32 29 23 3 3 0 0 0 3 6 6 10 6 19 45 45 48 48 42 39 52 52 52 55 55 65 65 68 61 65 74 90 87 87 84
77 77 71 58 65 58 55 39 26 16 10 3 0 0 0 0 3 6 3 3 6 10 16 19 23 29 29 29 32 29 39 45 42 39 45 52 55 45 55 81 84 84 77
77 74 74 61 65 58 42 29 23 13 13 6 0 0 0 0 0 0 3 3 3 3 10 10 13 16 13 16 19 19 19 23 23 19 26 32 39 42 52 58 68 81 74
71 71 68 58 58 55 32 26 23 16 13 3 0 0 0 0 0 0 0 3 3 3 3 6 16 13 13 10 0 3 10 10 10 13 16 16 23 29 29 35 42 48 77
55 58 61 52 48 52 32 23 16 13 10 6 0 0 0 0 0 0 0 0 0 0 0 3 0 6 0 3 0 0 0 0 3 6 6 10 10 13 19 26 42 48 55
45 45 45 48 45 45 32 26 26 13 6 3 0 0 0 0 0 0 0 0 0 3 3 3 3 3 0 0 0 3 3 0 0 0 3 6 3 3 6 0 16 45 55
45 35 42 58 55 48 29 23 19 16 10 3 0 0 0 0 0 0 0 0 0 0 0 0 0 0 0 0 0 0 0 0 0 0 0 0 0 3 6 6 6 16 29
39 35 42 55 48 48 42 23 10 13 6 3 3 0 3 0 0 0 0 0 0 0 0 0 0 0 0 0 0 0 0 0 0 0 0 0 0 0 0 0 0 6 16
39 42 39 48 52 55 45 32 42 13 10 0 3 10 13 0 0 0 0 0 0 0 0 0 0 0 0 0 0 0 0 0 0 0 0 0 0 0 0 0 0 0 10
48 48 29 48 68 52 42 29 52 42 35 19 35 13 13 6 6 0 0 3 0 0 0 0 0 0 0 0 0 0 0 0 0 0 0 0 0 0 0 0 0 0 0

GEFSSE_con_cape1000_072.txt.gz
Probability
81 94 100 100 100 100 100 100 100 100 100 100 100 100 100 100 100 100 100 100 97 97 97 97 94 90 90 94 94 87 97 81 81 71 61 77 84 81 71 71 74 81 94
87 100 100 100 100 100 100 100 100 100 100 100 100 100 100 100 100 100 97 90 94 94 97 90 87 90 97 94 87 87 90 90 84 74 61 68 74 77 68 71 77 81 90
84 100 100 100 100 100 100 100 100 100 100 100 100 100 100 100 100 100 94 90 90 90 94 94 94 100 100 94 90 90 94 90 90 87 77 68 71 74 74 74 81 87 87
81 87 97 100 100 100 100 100 100 100 100 100 100 100 100 94 94 94 90 87 87 84 90 94 94 94 97 97 100 97 94 94 84 84 81 74 58 71 77 81 84 84 87
77 84 100 100 100 100 100 100 100 100 100 100 97 97 94 94 94 90 90 94 84 81 81 87 90 90 97 97 100 100 97 90 90 87 81 81 77 84 81 87 84 90 94
84 90 100 100 100 100 100 100 100 100 100 100 97 97 94 90 97 94 90 81 84 81 84 84 81 84 84 100 100 100 97 97 94 90 81 81 87 90 84 84 87 94 94
90 81 97 100 100 100 100 100 100 100 100 100 100 97 97 100 90 94 84 84 87 81 81 90 81 81 84 100 100 97 100 97 94 94 81 87 90 94 87 90 94 94 97
97 84 100 100 100 100 100 100 100 97 97 97 97 97 97 94 94 94 84 90 90 94 90 87 90 77 77 97 97 97 97 100 90 90 90 90 97 97 100 97 97 97 97
97 90 90 97 100 100 100 100 97 97 97 97 97 97 97 97 97 97 97 94 90 94 90 94 90 90 90 94 97 94 97 97 94 90 94 94 100 97 94 94 97 97 97
97 94 90 94 97 94 97 100 97 97 100 100 100 94 94 97 97 94 94 90 90 90 94 97 97 94 94 90 87 94 97 94 68 77 71 90 100 97 90 94 97 97 97
100 97 90 97 100 100 97 97 100 100 100 97 97 87 87 94 90 97 94 94 90 90 87 87 90 94 87 90 87 97 97 74 35 61 68 100 100 97 94 94 94 97 97
94 97 97 97 97 97 100 100 100 97 97 97 87 77 84 84 84 77 90 90 84 84 77 74 87 84 84 87 87 87 74 61 39 71 81 97 94 94 94 94 94 94 97
94 94 97 97 97 97 97 100 100 100 94 77 71 71 71 68 65 71 74 81 90 84 81 77 81 81 84 84 84 77 74 58 52 45 74 97 94 94 94 94 90 94 97
94 94 94 97 97 97 97 100 94 84 74 61 61 52 42 52 55 52 68 61 74 77 84 84 84 77 84 81 81 87 81 74 65 55 81 94 94 90 94 90 90 94 97
94 94 94 97 97 97 94 90 77 77 58 55 52 29 26 26 29 29 45 65 65 74 77 81 81 77 81 77 77 84 77 77 71 71 71 90 90 94 90 90 87 90 94
90 94 94 94 94 90 84 84 77 55 58 32 26 13 13 13 23 29 45 48 58 71 68 77 77 74 77 77 77 77 68 74 81 81 77 90 87 94 94 94 90 84 84
94 94 94 94 90 84 81 68 52 42 32 19 16 10 3 6 10 13 23 45 45 52 52 71 52 61 71 65 74 61 68 71 74 74 81 77 77 84 87 81 81 81 81
84 90 94 84 87 81 74 61 48 32 23 16 13 6 3 0 3 10 16 13 23 35 45 61 58 61 58 45 55 45 52 65 48 45 58 71 68 61 81 81 81 87 84
81 77 77 81 74 68 65 55 35 35 23 10 10 3 6 0 0 10 13 13 23 26 26 16 42 39 39 42 29 39 45 52 45 35 42 45 58 55 45 65 74 84 90
74 74 74 71 74 68 61 58 29 23 19 10 13 10 3 0 0 10 13 3 10 16 26 29 16 16 26 26 6 16 23 39 39 45 32 35 48 29 39 42 58 65 81
65 74 74 65 61 68 68 45 39 23 26 13 13 6 3 0 0 3 6 3 6 13 10 10 13 13 13 13 13 16 16 16 16 29 29 26 29 26 26 45 52 52 48
68 71 68 74 61 71 74 68 68 48 19 23 16 13 3 0 0 0 3 13 10 6 6 6 6 13 10 6 13 16 10 13 16 10 19 23 23 16 10 19 32 42 35
55 65 58 68 74 74 74 61 48 58 42 29 32 26 10 0 0 3 3 3 3 10 13 3 6 6 10 10 6 3 6 23 13 3 10 6 16 13 13 26 32 39 39
52 55 65 65 74 77 74 65 45 48 48 52 48 45 26 6 6 3 0 0 3 6 6 3 3 3 3 10 3 6 10 3 3 3 3 6 3 3 0 0 6 26 35
39 45 55 74 77 84 81 77 71 55 61 61 61 65 55 32 13 6 6 6 6 3 6 3 3 0 3 6 3 0 3 6 6 3 3 3 0 3 6 3 6 16 23
39 48 58 68 74 84 84 81 77 71 68 58 68 68 65 58 42 19 10 16 10 10 3 3 0 0 0 0 0 3 0 0 0 0 3 6 3 3 0 3 3 10 13

GEFSSE_con_cape1000_078.txt.gz
Probability
90 100 100 100 100 100 100 100 100 100 100 100 100 100 100 100 100 100 100 97 97 97 90 90 94 97 97 90 94 100 100 100 94 90 81 81 87 87 94 94 94 94 100
94 100 100 100 100 100 100 100 100 100 100 100 100 100 100 100 100 100 97 97 97 90 87 87 94 100 94 94 97 97 100 100 87 90 81 77 81 84 90 94 94 90 100
94 100 100 100 100 100 100 100 100 100 100 100 100 100 100 100 100 94 90 94 94 90 84 94 94 97 97 97 97 97 97 90 97 84 81 61 77 84 87 94 97 97 100
97 100 100 100 100 100 100 100 100 100 100 100 100 100 100 100 97 90 87 84 90 90 87 90 90 94 94 97 97 100 97 94 97 81 42 45 68 81 84 90 94 97 100
100 100 100 100 100 100 100 100 100 100 100 100 100 100 100 100 94 90 84 84 87 87 87 84 87 87 94 97 100 100 94 90 87 61 26 32 68 84 90 90 94 100 100
94 100 100 100 100 100 100 100 100 100 100 100 100 100 100 100 94 90 87 87 87 87 87 87 81 84 87 97 100 100 90 94 81 45 39 48 68 90 97 94 94 97 97
94 100 100 100 100 100 100 100 100 100 100 100 100 100 97 94 94 87 87 84 84 87 87 77 74 74 81 94 100 100 94 94 58 39 45 55 71 97 97 94 94 100 100
94 97 100 100 100 100 100 100 100 100 100 100 100 100 100 97 97 94 90 87 87 81 84 81 77 65 74 90 100 97 97 94 65 45 45 58 87 100 100 97 97 100 97
94 97 100 100 100 100 100 100 100 100 100 100 100 100 97 94 97 97 100 100 100 94 90 87 71 58 74 90 100 100 100 100 35 45 42 65 97 100 97 97 97 97 97
87 97 100 100 100 100 100 100 100 100 100 100 100 97 97 97 97 97 100 100 97 100 97 90 81 84 90 100 100 100 94 71 26 26 26 68 97 97 97 97 97 97 97
74 94 94 94 94 97 97 100 100 100 100 100 97 94 94 77 74 90 94 94 94 90 94 87 94 100 94 94 94 94 55 6 23 16 32 71 94 100 97 97 97 97 97
71 84 84 87 90 94 97 94 90 94 87 77 68 65 61 32 35 77 87 90 90 90 84 81 87 90 81 68 65 65 13 13 19 16 35 71 87 100 97 97 97 97 97
61 71 81 84 87 90 94 94 87 74 65 58 58 48 26 16 16 39 35 68 68 68 61 71 74 58 58 35 29 23 16 13 6 13 35 68 90 97 97 97 97 97 97
61 71 74 77 74 74 74 77 65 52 45 39 26 23 13 10 10 10 10 16 16 19 26 42 45 45 35 23 26 19 19 19 6 13 29 65 90 97 90 94 94 94 97
61 65 68 61 65 55 61 55 55 45 35 13 13 16 10 6 3 6 3 3 6 3 6 13 23 29 16 19 19 23 29 26 16 13 19 58 87 90 94 90 90 94 94
58 65 61 48 45 42 42 35 35 32 13 10 16 6 6 3 0 0 0 0 0 0 0 6 6 3 3 6 10 13 19 23 13 10 16 45 84 94 97 97 90 90 87
48 52 48 48 42 32 29 29 19 13 10 10 0 0 0 0 0 0 0 0 0 0 0 0 0 0 0 0 3 6 16 16 16 13 13 29 45 94 97 97 97 97 94
45 42 39 45 35 26 26 16 13 10 3 3 0 0 0 0 0 0 0 0 0 0 0 0 0 0 0 0 0 0 3 6 10 10 10 10 13 32 77 100 97 100 90
26 29 32 35 29 23 16 13 10 0 0 0 0 0 0 0 0 0 0 0 0 0 0 0 0 0 0 0 0 0 0 3 3 3 6 13 6 6 6 48 90 87 90
19 29 32 29 16 19 3 3 0 0 0 0 0 0 0 0 0 0 0 0 0 0 0 0 0 0 0 0 0 0 0 0 0 0 3 0 0 3 0 3 29 65 84
19 19 26 32 16 6 3 3 0 0 0 0 0 0 0 0 0 0 0 0 0 0 0 0 0 0 0 0 0 0 0 0 0 0 0 0 0 0 0 0 0 0 13
13 19 26 23 16 6 3 3 0 0 0 0 0 0 0 0 0 0 0 0 0 0 0 0 0 0 0 0 0 0 0 0 0 0 0 0 0 0 0 0 0 0 0
23 26 23 19 16 3 3 3 0 0 0 0 0 0 0 0 0 0 0 0 0 0 0 0 0 0 0 0 0 0 0 0 0 0 0 0 0 0 0 0 0 0 0
26 23 16 16 6 3 3 3 0 0 0 0 0 0 0 0 0 0 0 0 0 0 0 0 0 0 0 0 0 0 0 0 0 0 0 0 0 0 0 0 0 0 0
16 13 10 13 10 6 6 6 0 0 0 0 0 0 0 0 0 0 0 0 0 0 0 0 0 0 0 0 0 0 0 0 0 0 0 0 0 0 0 0 0 0 0
13 23 13 16 10 6 6 3 0 0 0 0 0 0 0 0 0 0 0 0 0 0 0 0 0 0 0 0 0 0 0 0 0 0 0 0 0 0 0 0 0 0 0

GEFSSE_con_cape1000_084.txt.gz
Probability
55 94 100 100 100 100 100 100 100 100 100 100 100 100 100 100 100 100 100 100 97 97 87 81 84 84 74 74 77 81 81 84 77 71 81 84 94 94 94 97 97 87 100
77 100 100 100 100 100 100 100 100 100 100 100 100 100 100 100 100 100 100 100 97 87 87 90 87 77 74 81 84 94 87 77 84 81 84 81 87 90 84 94 97 84 94
90 100 100 100 100 100 100 100 100 100 100 100 100 100 100 100 100 97 94 90 87 87 87 90 87 77 84 84 87 90 90 84 74 74 81 68 77 84 84 90 94 94 97
87 97 97 100 100 100 100 100 100 100 100 100 100 100 100 100 100 94 87 87 87 90 94 90 87 81 84 90 94 94 94 87 84 74 61 68 71 81 84 94 94 97 94
90 97 97 100 100 100 100 100 100 100 100 100 100 100 100 97 97 87 87 87 90 84 87 87 84 84 87 94 97 100 100 100 87 61 52 68 81 87 90 94 97 97 94
97 97 97 97 100 100 100 100 100 100 100 100 100 100 100 97 97 90 90 87 84 87 81 77 81 84 90 97 97 97 100 97 71 52 58 71 84 94 97 97 97 97 100
97 97 97 97 100 100 100 100 100 100 100 100 100 100 100 97 94 87 84 90 81 87 81 74 77 81 90 97 97 100 94 94 29 48 65 74 90 100 97 97 97 100 100
97 97 97 97 100 100 100 100 100 100 100 100 100 100 97 97 97 90 87 84 84 74 74 74 71 74 90 94 97 100 94 87 48 48 65 71 94 100 97 97 97 100 100
97 97 97 97 97 100 100 100 100 100 100 100 100 100 97 97 97 94 94 87 81 74 71 65 61 65 81 94 97 97 100 87 42 52 58 81 97 97 97 97 97 97 100
97 97 97 97 97 100 100 100 100 100 100 100 100 100 100 100 90 94 97 97 90 87 77 65 61 68 87 97 100 100 100 81 39 42 45 84 94 97 97 97 97 97 100
90 94 97 97 97 100 100 100 100 100 100 100 100 100 97 87 77 84 94 87 90 81 74 68 68 87 90 94 97 97 81 23 32 39 52 87 94 97 97 97 100 97 100
87 87 94 94 94 97 97 100 97 97 90 81 74 74 65 48 39 68 81 90 87 84 81 81 81 87 68 45 65 71 19 19 19 26 52 90 90 94 94 94 100 100 100
81 84 87 87 87 94 90 94 81 74 65 61 61 61 39 29 19 29 35 45 45 65 58 65 61 55 45 32 32 26 26 26 23 23 52 77 94 94 94 94 94 97 100
71 74 84 84 81 81 84 77 71 52 48 45 39 35 19 10 13 10 10 23 23 16 23 32 42 42 35 23 23 26 16 16 19 26 45 74 90 97 94 97 94 97 97
61 65 74 81 81 65 65 65 52 48 45 32 29 16 10 10 3 3 13 3 10 10 10 10 19 26 19 16 19 16 19 19 16 16 35 61 94 97 94 90 94 90 94
52 55 55 65 52 39 52 48 45 35 35 16 10 10 10 6 0 0 0 0 0 0 0 3 3 10 10 13 13 19 23 23 16 23 26 52 71 94 94 90 90 90 90
23 32 42 42 32 29 35 39 32 29 10 13 10 6 6 3 0 0 0 0 0 0 0 0 0 0 0 6 13 13 23 26 23 23 19 29 52 74 90 94 90 90 87
19 13 23 42 26 23 26 16 10 6 10 3 3 0 0 0 0 0 0 0 0 0 0 0 0 0 0 0 0 3 16 19 26 19 26 23 35 35 65 84 90 90 87
10 6 19 23 26 16 16 13 6 0 0 0 0 0 0 0 0 0 0 0 0 0 0 0 0 0 0 0 0 3 3 6 6 16 19 13 19 29 32 42 71 87 84
6 10 16 19 16 16 13 0 0 0 0 0 0 0 0 0 0 0 0 0 0 0 0 0 0 0 0 0 0 0 0 0 3 3 6 6 16 16 19 16 42 55 71
6 6 13 10 16 6 3 0 0 0 0 0 0 0 0 0 0 0 0 0 0 0 0 0 0 0 0 0 0 0 0 0 0 0 3 3 3 6 3 6 13 16 29
6 3 3 13 6 6 3 0 0 0 0 0 0 0 0 0 0 0 0 0 0 0 0 0 0 0 0 0 0 0 0 0 0 0 0 0 0 0 0 0 3 13 10
6 3 6 6 6 0 0 0 0 0 0 0 0 0 0 0 0 0 0 0 0 0 0 0 0 0 0 0 0 0 0 0 0 0 0 0 0 0 0 0 0 0 0
6 6 6 3 3 0 0 0 0 0 0 0 0 0 0 0 0 0 0 0 0 0 0 0 0 0 0 0 0 0 0 0 0 0 0 0 0 0 0 0 0 0 0
6 6 6 3 0 0 0 0 0 0 0 0 0 0 0 0 0 0 0 0 0 0 0 0 0 0 0 0 0 0 0 0 0 0 0 0 0 0 0 0 0 0 0
6 6 6 3 0 0 0 0 0 0 0 0 0 0 0 0 0 0 0 0 0 0 0 0 0 0 0 0 0 0 0 0 0 0 0 0 0 0 0 0 0 0 0

GEFSSE_con_cape1000_090.txt.gz
Probability
26 77 100 100 100 100 100 100 100 100 100 100 100 100 100 100 100 100 97 90 84 84 71 77 71 68 68 74 74 68 77 71 84 77 84 87 81 90 94 84 84 58 84
35 94 100 100 100 100 100 100 100 100 100 100 100 100 100 100 100 97 97 97 87 81 68 74 71 65 68 74 84 74 71 61 68 71 84 81 84 87 90 87 77 84 90
55 97 97 100 100 100 100 100 100 100 100 100 100 100 100 100 100 100 97 94 84 74 71 77 81 71 77 84 87 74 71 68 68 71 74 77 84 90 90 87 90 97 90
71 97 97 100 100 100 100 100 100 100 100 100 100 100 100 100 97 94 94 87 84 87 90 81 77 74 77 81 87 77 74 71 71 71 61 65 71 84 87 90 94 97 90
84 97 100 100 100 100 100 100 100 100 100 100 100 100 100 97 94 90 90 90 87 87 87 87 84 81 81 77 74 87 87 81 68 61 65 77 87 87 90 90 90 97 90
94 97 100 100 100 100 100 100 100 100 100 100 100 100 100 97 97 90 87 87 81 87 87 84 84 94 90 90 87 90 87 74 65 35 48 74 90 87 87 87 94 97 97
97 100 100 100 100 100 100 100 100 100 100 100 100 100 100 100 97 94 84 87 84 81 77 77 84 90 87 84 94 94 90 71 45 48 55 65 90 90 90 87 94 97 97
100 100 100 100 100 100 100 100 100 100 100 100 100 100 97 97 90 94 90 81 74 74 77 71 74 90 90 90 87 94 87 74 26 16 39 71 97 97 94 97 97 97 97
90 97 100 100 100 100 100 100 100 100 100 100 100 100 97 100 97 94 90 77 74 68 58 61 71 84 94 90 94 87 90 74 39 32 23 87 97 94 97 97 94 94 97
97 97 97 100 100 100 97 100 100 100 100 100 97 97 94 94 90 87 97 94 77 71 61 58 68 74 81 87 97 94 90 68 48 29 45 94 94 94 94 97 94 94 94
97 97 97 97 100 97 97 97 100 100 100 100 100 100 94 77 61 84 74 68 74 74 61 61 84 81 84 90 94 94 94 65 39 39 61 94 94 90 90 94 94 94 94
97 97 97 94 100 100 97 97 100 100 100 97 94 94 94 87 84 65 81 74 77 81 77 71 71 71 58 77 90 97 90 55 45 45 90 94 94 90 90 94 94 94 94
94 90 90 87 97 97 100 100 100 97 100 97 94 94 87 77 71 61 71 81 90 77 74 84 74 39 48 61 77 65 77 52 55 29 87 94 90 90 90 94 94 94 94
87 90 87 90 100 94 97 100 100 97 97 87 84 81 71 71 74 61 74 61 68 68 71 61 65 48 55 61 45 68 77 68 61 52 94 84 84 87 90 87 90 94 94
87 87 90 97 100 97 97 100 100 100 81 77 77 74 71 71 68 68 68 71 42 48 65 74 55 61 55 55 45 45 71 71 58 39 84 84 81 84 81 84 87 90 84
90 87 87 97 97 97 100 100 97 84 81 71 71 68 65 68 61 61 65 61 45 39 42 48 45 58 55 45 39 48 55 48 74 61 74 87 84 90 84 81 84 87 84
87 87 87 94 94 94 94 97 87 77 61 61 61 55 61 55 55 48 42 48 32 35 58 48 45 42 55 48 39 42 48 48 55 52 45 68 65 81 94 87 81 87 87
84 84 84 84 94 94 94 87 74 71 65 61 55 52 48 35 39 42 32 32 39 29 29 29 29 32 29 35 42 42 42 52 55 55 52 61 71 45 65 74 77 84 84
71 81 84 87 90 90 87 74 65 71 61 48 42 35 35 29 26 26 26 26 19 6 10 13 13 26 26 32 29 45 42 52 55 42 39 48 55 48 61 74 68 81 81
68 74 81 87 87 87 77 71 58 55 45 32 32 32 19 16 16 19 16 10 3 3 6 10 19 23 23 23 13 19 26 35 42 35 35 42 48 39 45 58 58 58 77
55 65 74 71 77 84 68 52 48 42 32 19 23 16 13 13 13 16 6 10 6 3 3 3 6 10 10 16 13 13 19 19 23 35 35 32 35 29 45 48 55 52 65
45 42 48 68 68 71 65 52 48 42 26 19 13 19 10 10 10 10 10 3 6 6 6 3 10 3 6 10 13 19 23 19 23 0 26 23 23 35 26 26 35 35 29
35 35 26 55 61 68 61 48 35 35 19 16 16 16 10 10 10 6 3 3 3 3 3 3 13 6 0 3 6 6 13 19 23 16 16 19 19 29 19 19 19 26 23
29 19 35 52 58 52 52 39 29 23 19 13 16 16 6 3 3 3 0 3 6 0 3 3 0 3 10 6 6 10 6 13 13 16 6 10 16 16 13 0 0 13 19
23 26 32 45 55 48 35 45 39 26 26 13 13 13 10 3 3 0 0 0 0 0 0 3 3 0 6 10 0 3 0 0 0 3 0 3 6 6 3 13 6 6 6
23 26 29 32 39 42 32 35 39 35 32 16 16 13 13 13 6 0 0 6 6 3 6 10 6 3 0 6 6 3 0 0 0 0 0 0 3 6 3 3 3 3 6

GEFSSE_con_cape1000_096.txt.gz
Probability
84 97 100 100 100 100 100 100 100 100 100 100 100 100 100 100 97 90 90 90 90 87 84 71 74 71 77 65 77 77 77 77 84 81 87 94 94 94 90 87 74 74 81
90 100 100 100 100 100 100 100 100 100 100 100 100 100 100 97 97 97 94 87 84 81 84 81 65 68 68 68 65 68 71 65 77 77 77 81 84 87 90 90 84 81 84
97 100 100 100 100 100 100 100 100 100 100 100 100 100 100 100 97 97 94 87 90 87 81 84 74 71 71 77 68 71 68 71 68 71 68 61 77 87 90 90 87 87 84
90 97 100 100 100 100 100 100 100 100 100 100 100 100 100 100 97 94 90 90 90 90 87 87 74 81 74 77 71 65 68 61 68 71 58 42 55 87 90 87 84 84 84
90 100 100 100 100 100 100 100 100 100 100 100 100 100 100 94 94 94 94 90 87 90 94 74 71 74 74 71 71 68 55 65 58 58 68 65 71 87 90 90 87 84 84
97 100 100 100 100 100 100 100 100 100 100 100 100 100 100 94 94 87 87 90 87 84 84 74 74 81 77 84 77 61 65 55 61 55 71 74 77 90 90 90 77 81 84
100 100 100 100 100 100 100 100 100 100 100 100 100 100 100 97 94 87 84 81 84 81 77 77 84 77 77 74 74 71 61 61 61 52 84 77 77 94 90 87 87 81 84
100 100 100 100 100 100 100 100 100 100 100 100 100 100 100 97 97 90 84 81 81 77 74 77 77 81 74 68 71 74 81 74 61 55 74 77 90 97 94 90 94 90 87
97 100 100 100 100 100 100 100 100 100 100 100 100 100 100 97 94 90 84 74 71 68 71 71 74 74 77 68 65 74 77 81 68 61 65 74 90 94 94 90 94 87 81
97 94 100 100 100 100 100 100 100 100 100 100 100 100 97 97 97 100 97 87 71 58 52 58 61 55 68 68 77 74 77 81 39 52 65 81 94 94 94 94 94 94 84
90 94 97 100 100 100 97 100 100 100 100 100 100 100 100 100 94 100 94 94 81 68 65 61 58 52 68 77 87 81 84 65 39 55 61 90 94 97 94 94 94 94 90
90 90 90 94 97 100 97 100 100 100 100 100 100 100 100 100 100 100 97 97 90 84 77 77 81 74 71 74 77 84 61 48 45 52 74 97 94 94 94 94 94 94 94
87 87 81 87 94 90 94 97 100 100 100 100 97 97 97 97 97 94 90 90 94 94 94 97 94 77 84 77 77 68 74 32 29 58 84 100 94 94 94 94 94 94 90
84 84 87 90 87 90 90 94 100 100 100 100 97 94 97 97 94 90 87 90 94 94 94 90 97 87 81 77 81 74 68 61 58 58 77 97 97 94 90 94 94 94 94
81 81 84 84 84 87 87 90 94 97 100 100 94 90 81 90 81 77 81 87 87 94 94 87 90 81 81 77 71 61 68 65 58 58 71 90 97 94 94 94 94 94 94
81 74 74 81 84 87 87 90 90 97 90 84 77 77 68 77 81 74 81 77 77 77 87 84 90 90 90 94 77 84 68 68 84 68 65 84 97 97 90 87 87 87 84
81 74 71 74 87 87 87 94 90 90 81 81 77 68 68 74 71 65 77 68 71 71 74 71 77 77 87 87 84 65 74 74 81 77 61 61 77 90 90 84 84 84 84
77 74 77 74 87 87 90 90 90 77 77 77 71 65 61 68 61 71 74 74 68 74 74 77 74 71 77 81 84 81 71 77 68 84 71 71 52 45 74 81 77 84 84
74 71 77 77 81 84 87 87 87 84 84 81 68 71 65 55 52 55 65 74 61 71 74 48 68 71 68 74 81 87 74 77 68 58 65 65 65 58 52 61 81 81 81
74 71 71 77 74 74 87 94 90 81 71 68 74 61 55 55 52 48 61 55 48 61 65 68 65 61 71 71 19 19 68 74 68 55 48 55 61 55 45 45 55 68 71
68 68 65 65 71 77 84 84 87 81 84 77 58 58 52 48 39 29 42 45 35 58 52 39 45 42 55 58 58 35 61 48 58 68 58 55 58 55 58 52 42 42 55
65 68 65 65 74 71 81 84 90 87 77 61 48 42 39 32 26 13 35 39 29 55 23 29 29 48 42 35 52 42 29 42 58 26 58 48 45 58 55 45 55 58 42
71 65 58 68 68 77 84 84 81 81 74 55 39 42 35 23 19 19 16 26 35 42 42 26 32 19 39 32 32 42 26 23 26 42 35 42 55 58 52 58 61 65 58
58 52 61 58 65 71 77 71 65 58 61 55 52 45 26 23 16 13 16 23 29 32 58 32 29 35 29 39 29 23 26 26 29 23 26 32 45 52 35 23 26 52 55
48 48 55 58 58 68 68 74 68 58 61 65 55 45 39 19 10 13 16 13 19 29 32 19 29 32 48 39 42 45 26 29 26 19 13 19 29 32 35 45 29 35 32
48 48 48 55 55 65 71 68 68 68 68 65 61 45 45 42 26 16 23 23 23 29 29 19 23 23 32 45 48 48 35 23 13 16 13 23 29 32 26 39 35 39 32

GEFSSE_con_cape1000_102.txt.gz
Probability
100 100 100 100 100 100 100 100 100 100 100 100 100 100 100 100 100 100 97 90 90 90 94 94 87 87 87 87 81 87 84 90 97 90 97 94 94 94 94 90 77 74 90
100 100 100 100 100 100 100 100 100 100 100 100 100 100 100 100 100 97 94 94 94 94 90 84 90 84 87 81 71 77 81 97 94 87 97 97 94 90 87 87 81 74 87
100 100 100 100 100 100 100 100 100 100 100 100 100 100 100 100 100 94 94 94 90 94 90 94 87 77 81 74 71 68 77 84 90 90 84 71 87 94 90 90 90 87 90
100 100 100 100 100 100 100 100 100 100 100 100 100 100 100 100 100 97 94 97 94 97 90 97 87 84 81 81 77 68 71 81 84 74 16 23 61 90 94 90 87 87 87
100 100 100 100 100 100 100 100 100 100 100 100 100 100 100 100 100 94 94 100 97 94 87 84 90 87 90 81 74 74 74 77 68 45 16 29 61 90 97 84 84 84 81
100 100 100 100 100 100 100 100 100 100 100 100 100 100 100 100 97 97 100 100 100 90 87 84 87 90 97 87 77 65 71 77 58 16 32 45 71 87 97 90 87 84 84
100 100 100 100 100 100 100 100 100 100 100 100 100 100 100 100 97 100 100 97 90 84 94 87 87 90 97 97 77 74 74 65 16 16 35 48 77 90 97 90 90 87 94
100 100 100 100 100 100 100 100 100 100 100 100 100 100 100 100 100 97 94 90 87 84 87 77 87 87 94 87 87 84 81 65 42 26 39 48 87 90 94 90 94 97 94
97 100 100 100 100 100 100 100 100 100 100 100 100 100 100 100 100 97 90 87 81 77 81 81 77 81 84 81 84 84 81 71 13 23 29 61 84 94 94 94 90 84 90
94 94 97 100 100 100 100 100 100 100 100 100 100 100 100 100 97 97 100 87 81 81 74 68 58 68 87 84 87 94 90 52 3 16 26 74 87 94 94 94 97 87 87
77 81 84 94 100 100 100 100 100 100 100 100 100 100 100 94 94 94 94 94 81 84 71 65 55 61 74 81 84 87 52 3 3 10 29 84 90 90 94 94 94 90 90
77 77 81 87 90 97 100 100 100 100 100 100 100 97 77 55 55 81 97 97 90 87 81 87 84 77 58 13 29 42 6 6 13 10 42 87 90 94 94 94 94 94 94
61 71 71 84 87 87 94 100 100 100 97 94 90 84 61 48 55 74 81 90 77 68 48 61 71 32 16 10 6 3 3 13 6 6 55 84 94 97 94 94 94 94 94
55 65 68 71 71 74 81 87 90 87 84 81 87 74 52 39 39 29 32 32 19 16 16 16 16 23 13 6 6 3 3 10 6 10 52 87 87 94 94 90 94 94 94
52 52 61 58 52 61 71 77 81 71 74 68 65 58 35 32 19 19 29 19 19 16 19 10 13 10 6 6 3 3 3 0 3 16 39 84 84 94 94 94 94 94 94
45 42 45 39 45 45 52 48 65 65 52 52 52 42 39 16 16 19 10 6 10 13 13 6 10 3 3 3 6 3 3 6 3 10 23 74 94 90 94 94 94 94 94
42 42 39 35 39 42 45 35 42 45 45 52 48 42 29 23 16 13 10 6 3 0 6 0 0 0 0 6 3 0 3 13 3 3 26 52 74 90 90 94 94 94 90
39 39 45 52 39 32 32 29 32 35 39 45 42 35 35 23 16 13 10 6 3 0 3 0 0 0 0 0 0 0 3 6 10 6 13 26 35 68 84 94 94 94 94
35 42 45 39 42 32 29 26 35 39 39 42 32 29 29 26 16 6 6 6 3 0 0 0 0 0 0 0 0 0 0 0 3 6 6 10 10 19 39 77 84 87 77
32 39 42 39 35 29 29 19 23 19 26 26 26 29 26 26 13 3 3 3 3 0 0 0 0 0 0 0 0 0 0 0 0 0 3 0 3 3 3 19 61 68 84
39 39 39 42 29 26 26 23 23 19 16 16 19 23 23 16 10 3 3 0 0 0 0 0 0 0 0 0 0 0 0 0 0 0 0 3 0 3 3 3 6 16 26
35 32 32 26 26 26 19 10 13 13 6 10 6 16 13 6 3 3 0 0 0 0 0 0 0 0 0 0 0 0 0 0 0 0 0 0 3 3 6 0 0 0 0
35 32 32 26 26 16 16 10 6 6 6 3 3 6 6 6 6 3 0 0 0 0 0 0 0 0 0 0 0 0 0 0 0 0 0 0 0 0 0 3 0 0 0
35 29 19 19 13 10 10 6 6 6 6 3 3 0 0 0 3 0 0 0 0 0 0 0 0 0 0 0 0 0 0 0 0 0 0 0 0 0 0 0 0 0 3
32 26 19 13 10 10 10 6 6 6 6 3 0 0 0 0 0 3 0 0 0 0 0 0 0 0 0 0 0 0 0 0 0 0 0 0 0 0 0 0 0 0 3
29 23 16 16 16 10 10 6 6 3 0 0 0 0 0 0 0 0 0 0 0 0 0 0 0 0 0 0 0 0 0 0 0 0 0 0 0 0 0 0 0 0 0

GEFSSE_con_cape1000_108.txt.gz
Probability
71 97 100 100 100 100 100 100 100 100 100 100 100 100 100 100 100 100 94 94 90 90 90 81 77 81 84 84 84 84 87 81 84 94 90 94 90 90 87 87 77 65 84
87 100 100 100 100 100 100 100 100 100 100 100 100 100 100 100 100 97 97 97 97 94 81 77 81 77 81 81 81 81 87 90 90 87 87 87 90 84 87 81 77 65 84
97 100 100 100 100 100 100 100 100 100 100 100 100 100 100 100 97 97 97 97 97 90 87 81 81 74 71 74 81 84 84 94 87 87 84 68 77 87 90 84 87 90 84
100 100 100 100 100 100 100 100 100 100 100 100 100 100 100 97 97 97 97 97 100 94 90 84 77 74 65 68 74 84 84 84 90 87 55 58 68 90 94 94 97 97 90
100 100 100 100 100 100 100 100 100 100 100 100 100 100 100 97 97 97 100 100 100 87 84 87 81 71 74 74 68 74 84 84 90 55 45 61 74 87 94 94 94 90 90
100 100 100 100 100 100 100 100 100 100 100 100 100 100 100 94 94 100 97 94 94 84 90 90 84 74 77 74 71 71 77 77 61 39 52 65 74 84 87 94 90 90 90
100 100 100 100 100 100 100 100 100 100 100 100 100 100 100 97 97 97 100 97 94 87 90 90 81 90 84 77 71 74 74 74 13 35 52 68 81 94 90 94 94 87 87
100 100 100 100 100 100 100 100 100 100 100 100 100 100 100 100 97 97 97 94 87 84 84 90 90 81 77 81 74 81 74 68 42 35 55 65 87 94 94 90 90 87 90
100 100 100 100 100 100 100 100 100 100 100 100 100 100 100 97 94 94 97 90 84 81 87 84 90 77 87 81 74 68 74 61 19 45 48 74 90 94 87 90 90 90 90
97 97 97 97 100 100 100 100 100 100 100 100 100 100 100 97 94 90 90 87 77 74 74 71 68 74 87 84 77 77 71 55 26 35 58 74 94 94 87 90 84 90 90
94 97 97 97 97 100 100 100 100 100 100 100 100 100 100 90 87 87 87 84 81 77 71 68 71 81 84 84 84 84 52 19 26 29 61 81 94 90 90 90 87 87 84
77 81 84 94 94 97 100 100 100 100 100 100 100 97 81 65 71 84 90 90 84 81 77 81 87 77 29 39 71 52 16 10 23 29 52 90 94 94 94 90 87 90 90
68 74 74 81 90 94 94 97 97 97 94 94 87 71 45 32 52 58 58 77 55 77 45 55 45 23 13 16 10 13 10 13 19 29 55 90 90 94 94 94 94 90 90
58 68 68 68 77 81 87 94 87 90 84 77 71 52 29 23 23 23 26 42 35 19 16 19 19 13 10 6 6 10 10 13 6 19 52 84 90 97 94 94 94 94 87
52 55 61 65 65 58 71 77 81 71 68 52 52 48 26 19 19 16 16 13 6 6 6 6 6 13 3 3 10 10 10 6 13 19 45 71 87 94 94 90 94 94 94
42 48 55 58 52 52 48 58 58 55 48 39 39 35 26 13 13 10 10 3 3 3 6 6 6 3 3 3 6 6 6 10 6 23 39 71 84 94 94 90 94 94 84
32 48 52 52 48 39 42 39 45 39 35 29 26 26 23 10 6 6 6 3 3 3 3 3 0 0 0 3 3 6 10 10 6 13 29 55 81 87 90 87 87 94 90
29 35 52 52 35 29 23 19 23 29 23 19 13 19 26 13 6 3 3 3 3 3 3 0 0 0 0 0 0 0 3 13 13 13 23 42 65 74 84 87 94 94 90
23 26 39 32 29 23 19 10 10 10 16 13 10 13 16 16 10 3 0 0 0 0 0 0 0 0 0 0 0 0 0 3 10 13 13 23 32 48 61 71 84 90 81
13 19 29 23 19 16 13 10 10 10 10 6 16 16 13 16 16 0 0 0 0 0 0 0 0 0 0 0 0 0 0 0 3 6 6 10 16 32 32 42 65 68 81
13 19 19 16 16 13 10 10 10 10 3 3 10 10 13 16 13 0 3 0 0 0 0 0 0 0 0 0 0 0 0 0 0 0 0 3 3 3 10 19 29 39 48
19 16 13 10 6 6 10 6 6 6 3 3 6 6 13 10 6 0 0 0 0 0 0 0 0 0 0 0 0 0 0 0 0 0 0 0 0 6 3 3 3 13 16
13 16 10 13 10 6 3 6 6 3 3 3 3 6 6 3 0 0 0 0 0 0 0 0 0 0 0 0 0 0 0 0 0 0 0 0 0 3 0 3 3 3 6
13 16 10 10 10 3 3 3 6 6 6 3 3 3 3 0 0 0 0 0 0 0 0 0 0 0 0 0 0 0 0 0 0 0 0 0 0 0 0 0 0 3 3
13 16 10 6 10 3 3 6 6 6 6 3 3 3 0 0 0 0 0 0 0 0 0 0 0 0 0 0 0 0 0 0 0 0 0 0 0 0 0 0 0 3 6
16 16 13 10 10 3 3 3 3 3 3 3 3 3 0 0 0 0 0 0 0 0 0 0 0 0 0 0 0 0 0 0 0 0 0 0 0 0 0 0 0 0 3

GEFSSE_con_cape1000_114.txt.gz
Probability
39 84 97 100 100 100 100 100 100 100 100 100 100 100 100 100 94 94 84 81 81 81 87 84 74 74 77 90 87 87 84 77 81 71 77 84 81 87 87 84 81 58 97
65 87 100 100 100 100 100 100 100 100 100 100 100 100 100 100 97 97 97 87 84 90 81 81 77 68 77 81 81 81 77 84 81 77 84 84 87 87 84 74 81 81 94
77 94 100 100 100 100 100 100 100 100 100 100 100 100 100 97 97 97 97 94 94 84 84 74 74 81 74 81 81 84 81 84 84 84 84 77 77 90 87 90 97 94 90
81 97 97 100 100 100 100 100 100 100 100 100 100 100 97 97 97 97 97 90 87 84 87 84 74 71 68 81 81 84 87 68 81 84 55 52 58 84 94 97 97 97 94
90 97 100 100 100 100 100 100 100 100 100 100 100 100 97 97 97 100 94 90 90 87 77 84 74 71 71 74 77 87 77 71 65 45 35 65 87 90 94 94 94 94 87
94 94 100 100 100 100 100 100 100 100 100 100 100 97 97 97 100 97 97 97 81 84 81 81 74 71 71 77 71 81 84 71 58 10 29 52 77 94 94 97 94 94 87
90 97 100 100 100 100 100 100 100 100 100 100 100 97 97 97 100 97 87 87 81 84 84 77 84 74 84 81 74 74 71 55 13 16 26 55 94 94 90 94 94 94 84
90 100 100 100 100 100 100 100 100 100 100 100 100 100 100 97 100 94 87 90 90 84 84 74 81 87 81 77 77 77 77 48 10 3 10 58 94 94 90 87 90 94 84
97 100 100 100 100 100 100 100 100 100 100 100 100 100 100 97 97 97 94 87 87 81 87 84 81 84 84 77 81 87 65 42 10 6 6 65 77 87 81 87 87 87 84
100 100 97 97 97 100 100 100 100 100 100 100 100 97 100 94 90 87 94 84 81 81 87 90 81 74 71 81 84 84 71 42 0 6 26 68 87 87 87 87 87 87 87
100 97 97 97 94 94 97 97 100 100 100 100 100 94 100 97 90 84 77 74 74 77 74 94 87 84 71 71 68 65 52 26 3 16 52 71 87 87 87 90 84 84 84
97 97 94 90 94 90 90 100 100 100 100 100 100 94 94 97 94 74 81 77 81 87 81 87 87 74 61 52 55 55 29 13 19 19 74 87 84 84 87 84 84 77 81
90 90 94 94 94 90 100 100 100 100 100 100 100 100 100 97 90 84 94 100 100 90 87 90 65 42 45 68 68 52 39 16 26 13 55 94 87 84 77 77 77 81 84
87 87 84 94 94 94 100 97 100 100 100 100 100 97 97 94 94 87 97 94 90 90 100 68 84 68 61 52 39 32 55 45 23 39 87 90 94 87 87 87 77 77 81
87 84 84 90 90 90 97 97 90 97 94 94 97 97 97 84 84 77 90 97 74 81 87 84 61 77 77 65 42 48 52 52 32 26 65 84 87 94 90 84 84 81 74
77 84 87 84 90 90 97 97 97 90 97 87 90 94 87 77 81 81 90 94 74 68 61 65 58 74 65 58 52 55 42 42 52 39 39 68 74 84 81 77 77 81 71
81 84 87 77 81 84 90 90 94 90 81 84 94 94 90 81 90 87 68 90 65 68 90 77 68 55 61 52 61 45 45 61 55 55 26 52 65 74 84 81 81 84 77
87 84 81 68 74 74 84 87 90 90 77 84 90 94 90 81 87 90 77 55 71 61 48 68 52 42 39 45 48 29 48 68 58 48 32 42 55 52 65 84 84 90 84
87 87 74 71 74 71 74 87 87 94 90 90 94 90 94 84 84 77 81 81 74 55 39 29 42 29 35 48 35 52 23 35 48 32 29 32 42 48 58 74 87 87 77
77 71 68 61 68 74 74 84 84 81 90 90 87 84 81 84 77 74 71 84 52 45 48 45 55 61 45 52 6 10 19 29 39 32 23 26 45 32 32 35 71 68 81
71 65 65 65 71 71 74 71 74 68 77 74 81 71 74 68 68 71 52 68 55 45 39 26 35 39 42 35 19 29 26 13 16 48 19 23 23 29 39 35 61 65 68
65 65 65 68 65 65 61 68 71 68 61 68 65 68 71 65 61 58 65 52 42 52 48 42 42 35 35 35 35 35 32 23 26 3 26 35 19 32 26 32 42 48 39
61 68 61 65 61 52 55 61 68 68 61 58 61 61 68 58 55 55 55 45 42 29 39 48 48 42 35 35 26 19 26 13 13 10 6 16 39 39 19 23 26 29 29
61 61 68 58 58 55 45 42 42 45 48 48 55 52 55 55 52 55 52 58 45 29 48 32 23 32 42 39 29 29 16 6 6 19 19 16 19 26 26 10 10 29 32
45 48 52 58 48 48 45 45 45 35 39 42 48 48 52 45 48 42 55 52 39 32 32 32 45 35 26 29 13 16 13 10 3 6 13 13 19 16 16 23 32 23 32
45 52 48 52 52 48 45 39 42 39 35 35 42 42 52 48 42 45 42 42 39 32 35 39 42 39 32 32 23 16 6 6 6 6 3 19 13 13 6 23 19 26 26

GEFSSE_con_cape1000_120.txt.gz
Probability
58 87 94 100 100 100 100 100 100 100 100 100 100 100 97 94 81 84 77 77 71 68 77 77 65 68 68 71 71 74 71 74 87 90 84 90 87 77 81 84 77 71 87
77 87 97 100 100 100 100 100 100 100 100 100 100 100 94 94 90 84 77 84 77 71 74 68 74 65 71 77 71 77 77 71 77 81 81 77 74 81 81 71 81 87 94
84 90 100 100 100 100 100 100 100 100 100 100 100 97 94 97 94 94 90 87 84 81 74 74 71 74 81 74 81 77 74 71 77 71 77 48 71 81 77 77 94 97 97
84 90 100 100 100 100 100 100 100 100 100 100 100 97 97 97 97 94 90 84 74 71 81 77 77 71 74 77 84 71 68 68 71 61 58 26 39 84 90 90 94 97 94
90 100 100 100 100 100 100 100 100 100 100 100 97 97 97 97 97 94 90 87 84 84 77 84 74 65 74 84 81 74 74 74 71 61 55 71 71 87 87 97 97 94 94
97 100 100 100 100 100 100 100 100 100 100 100 97 97 97 97 97 87 94 94 84 84 81 81 81 77 77 71 65 68 65 65 58 58 68 68 74 90 90 94 94 90 94
100 100 100 100 100 100 100 100 100 100 100 100 97 97 97 97 100 94 97 90 87 84 84 81 84 81 77 71 61 58 55 58 58 55 77 77 84 94 94 90 90 87 90
100 100 100 100 100 100 100 100 100 100 100 100 97 97 97 100 97 90 90 84 90 90 84 87 90 77 77 74 65 48 58 81 55 52 61 74 87 90 94 94 84 87 90
100 100 100 100 100 100 100 100 100 100 100 100 97 97 100 100 97 84 90 94 84 90 84 84 84 84 71 68 48 42 48 77 74 45 32 61 94 97 94 94 87 87 87
97 100 100 100 100 100 100 100 100 100 100 100 100 97 100 100 94 87 97 90 84 87 84 87 81 81 74 74 61 52 65 65 32 29 35 68 94 94 94 90 84 84 77
97 94 90 94 97 94 94 97 100 100 100 100 100 100 100 100 97 97 97 87 77 81 84 84 84 77 84 81 58 58 48 35 35 23 35 87 90 90 94 84 84 81 74
94 90 97 90 87 87 87 94 100 100 100 100 100 100 100 100 100 97 97 94 77 84 87 87 87 84 87 52 45 58 42 23 32 26 45 97 90 87 87 87 84 81 77
94 90 87 84 90 87 87 90 94 97 100 100 100 100 100 100 100 94 90 94 97 94 97 94 90 68 61 74 45 48 58 29 23 16 61 97 94 87 87 84 81 74 71
97 90 87 77 77 84 90 87 94 97 97 100 100 100 100 100 97 97 97 94 100 100 100 94 97 94 81 77 77 71 52 45 32 32 71 94 94 94 84 77 77 74 77
97 94 87 77 77 74 84 87 87 87 94 97 100 97 97 100 97 97 100 100 100 100 100 100 100 100 90 84 77 58 71 55 48 32 55 90 90 90 87 74 65 65 71
97 90 87 81 77 77 77 84 87 90 94 97 97 97 97 94 97 97 100 100 100 100 100 100 100 100 97 94 87 71 61 58 65 48 48 77 90 81 84 81 77 68 71
94 84 84 81 77 77 77 81 87 90 97 97 97 97 97 97 97 97 100 100 100 100 100 100 97 100 94 94 84 74 84 65 68 71 55 48 68 84 84 84 84 84 74
81 84 84 77 74 77 81 81 81 90 97 97 97 97 97 97 94 94 94 94 100 100 100 100 97 94 90 90 84 87 87 94 74 74 61 55 45 32 77 84 81 81 74
81 81 81 81 77 74 77 77 81 87 97 94 94 94 94 97 94 90 90 97 90 97 100 77 97 87 90 87 84 81 84 90 87 55 71 55 61 52 32 74 84 84 77
84 81 84 81 81 68 74 74 74 74 90 94 94 94 94 97 94 94 90 90 87 97 94 94 87 90 87 81 29 52 74 87 84 77 55 74 68 52 52 42 68 71 81
84 84 87 84 81 77 77 74 65 77 81 90 94 94 87 90 94 94 87 87 90 94 90 74 77 74 71 74 68 58 65 68 77 94 77 77 68 65 65 55 39 29 39
84 84 87 84 81 74 77 68 74 81 84 94 94 90 87 84 84 74 87 84 87 90 77 68 77 77 71 71 71 42 35 48 68 32 74 71 61 52 58 52 68 65 42
84 81 74 84 81 77 71 71 65 71 71 81 90 90 81 81 81 94 84 81 87 77 77 74 71 68 58 71 65 52 26 23 23 45 65 68 71 77 65 61 65 77 68
84 81 77 74 71 71 65 61 58 52 52 77 90 94 81 81 81 81 77 84 84 77 84 74 68 65 68 74 68 68 61 58 32 19 61 58 68 74 61 42 35 58 65
84 74 77 77 68 68 61 61 65 65 71 74 84 90 87 74 71 71 77 77 81 84 84 74 84 74 74 77 74 61 55 68 58 26 13 26 45 48 61 68 52 61 42
77 74 74 74 71 74 65 58 65 77 65 68 81 74 74 74 74 71 77 77 74 81 81 71 65 68 74 71 71 71 52 45 42 48 29 23 19 48 52 58 48 42 35

GEFSSE_con_cape1000_126.txt.gz
Probability
77 90 97 100 100 100 100 100 100 100 100 100 100 100 97 94 97 97 97 100 97 94 94 84 94 87 90 90 90 90 90 90 90 87 90 87 84 87 87 94 94 77 94
84 94 97 100 100 100 100 100 100 100 100 100 100 97 97 97 97 97 97 97 94 90 84 84 87 84 81 84 84 84 90 87 87 87 90 90 84 84 84 87 90 84 97
90 94 97 100 100 100 100 100 100 100 100 100 100 97 97 97 97 97 97 97 94 84 87 84 87 81 77 81 81 81 84 84 77 87 74 58 77 87 81 84 90 97 94
90 94 97 100 100 100 100 100 100 100 100 100 100 100 100 97 97 97 90 94 90 87 87 84 87 84 81 84 81 87 84 94 81 68 13 29 52 87 87 90 94 97 97
90 90 100 100 100 100 100 100 100 100 100 100 100 100 100 100 97 97 97 97 94 84 84 87 87 81 87 77 87 87 84 74 68 35 16 29 52 90 97 94 94 90 94
90 97 100 100 100 100 100 100 100 100 100 100 100 100 100 100 100 97 97 97 90 90 87 87 90 81 87 81 77 74 77 74 42 16 16 35 65 97 97 94 94 94 94
97 100 100 100 100 100 100 100 100 100 100 100 100 100 100 100 100 100 97 97 94 87 90 90 90 84 77 74 61 77 81 68 10 10 26 35 77 100 100 94 94 94 90
100 100 100 100 100 100 100 100 100 100 100 100 100 100 100 97 97 100 94 97 97 94 94 94 90 90 68 71 71 81 77 71 32 13 26 45 87 100 100 90 90 87 90
100 100 100 100 100 100 100 100 100 100 100 100 100 100 100 97 97 97 94 94 97 94 94 94 90 81 84 87 84 81 84 81 10 10 23 65 94 97 94 87 90 90 87
100 100 100 100 100 100 100 100 100 100 100 100 100 100 100 97 97 97 97 94 90 94 94 84 74 71 71 84 71 77 77 42 10 13 16 68 97 97 90 87 90 87 87
100 97 97 100 100 100 100 100 100 100 100 100 100 100 100 87 81 97 87 94 90 90 81 81 71 71 77 68 61 71 29 6 6 10 26 84 94 94 90 87 84 87 87
90 94 94 87 87 94 94 94 97 100 100 97 87 94 77 58 58 81 94 97 94 90 87 87 94 81 39 6 19 16 0 6 3 10 48 87 94 94 90 84 84 84 87
77 81 77 77 81 81 87 87 87 87 90 87 81 77 55 55 68 61 68 84 77 81 45 61 61 16 3 3 3 0 0 3 3 10 58 97 97 94 87 87 84 90 84
71 74 71 77 77 68 77 81 84 74 77 81 77 58 45 39 35 26 32 29 23 13 6 10 6 6 3 0 0 0 3 3 3 13 45 97 97 87 87 84 84 84 87
61 61 58 68 58 55 52 65 74 71 65 68 77 58 35 32 23 23 23 23 23 19 6 3 3 3 3 3 3 3 3 3 6 13 48 81 94 94 90 87 84 84 90
58 58 58 52 48 42 42 42 52 55 45 52 65 48 48 35 29 26 26 26 26 19 13 6 6 6 3 6 3 3 3 3 3 3 26 74 87 94 94 90 87 87 87
52 52 61 58 45 39 39 42 48 45 35 52 48 42 39 29 26 19 23 19 19 16 10 6 6 6 3 0 3 3 3 3 3 10 16 32 68 90 94 94 97 90 87
52 55 52 55 45 35 32 29 42 42 35 45 45 42 39 35 19 16 13 16 16 6 10 6 6 3 0 0 0 3 3 3 3 6 6 13 26 48 81 84 94 90 87
61 58 48 48 52 45 39 32 35 35 35 45 42 39 39 35 23 13 13 13 6 3 6 10 6 0 0 0 0 0 0 0 3 3 3 6 3 10 23 71 84 87 81
55 55 55 52 48 42 35 39 26 19 29 35 39 29 35 23 32 10 6 16 10 3 3 3 3 3 0 0 0 0 0 0 0 3 3 6 3 3 3 10 52 68 77
58 58 55 52 42 29 32 29 19 16 19 29 26 23 32 32 23 10 13 10 3 3 3 3 0 3 0 0 0 0 0 0 0 0 0 0 3 3 3 3 3 3 19
71 52 48 42 39 32 29 26 19 10 13 19 19 19 23 42 13 16 0 10 3 0 0 3 0 0 0 0 0 0 0 0 3 0 0 0 0 0 0 0 0 0 0
71 52 45 45 32 29 26 23 16 10 6 13 13 16 23 35 19 10 0 0 0 0 0 0 0 0 0 0 0 0 0 0 0 0 0 0 0 0 0 0 0 0 0
55 45 39 35 29 26 23 23 16 10 6 3 6 6 6 10 19 10 6 0 0 0 0 0 0 0 0 0 0 0 0 0 0 0 0 0 0 0 0 0 0 0 0
52 52 42 39 29 26 23 23 13 6 6 3 3 0 3 6 13 10 6 0 0 0 0 0 0 0 0 0 0 0 0 0 0 0 0 0 0 0 0 0 0 0 0
42 55 45 42 29 19 26 16 16 10 6 6 6 3 3 3 3 3 3 3 0 0 0 0 0 0 0 0 0 0 0 0 0 0 0 0 0 0 0 0 0 0 0

GEFSSE_con_cape1000_132.txt.gz
Probability
58 90 100 100 100 100 100 100 100 100 100 100 100 100 100 100 100 100 100 97 94 94 97 87 81 77 81 84 87 84 81 81 77 81 77 81 87 90 84 87 84 74 87
81 94 100 100 100 100 100 100 100 100 100 100 100 100 100 100 100 100 100 94 94 87 81 81 84 84 90 84 87 84 84 81 87 81 84 90 87 90 84 84 81 77 90
87 94 100 100 100 100 100 100 100 100 100 100 100 100 100 97 100 100 97 90 87 87 87 77 81 81 77 84 77 81 81 81 87 84 81 68 87 90 87 81 87 87 84
94 94 100 100 100 100 100 100 100 100 100 100 100 100 100 97 97 97 97 90 90 84 90 84 77 77 77 74 74 71 81 71 84 77 55 55 68 90 87 87 87 90 90
94 94 100 100 100 100 100 100 100 100 100 100 100 100 100 100 97 97 90 90 90 87 87 87 77 81 84 81 74 77 81 81 84 45 42 55 74 94 90 90 87 81 87
90 94 100 100 100 100 100 100 100 100 100 100 100 100 100 100 100 97 97 97 90 90 90 94 84 90 87 81 74 71 77 81 48 26 45 58 71 94 94 97 87 84 90
90 94 100 100 100 100 100 100 100 100 100 100 100 100 100 100 97 94 94 97 97 90 87 87 87 84 81 84 71 74 77 71 16 26 45 55 87 94 94 90 87 90 84
90 100 100 100 100 100 100 100 100 100 100 100 100 100 100 100 100 94 94 94 97 97 90 94 94 94 77 74 77 84 77 65 29 32 45 58 97 97 87 90 87 84 81
100 100 100 100 100 100 100 100 100 100 100 100 100 100 100 100 97 94 94 90 97 97 90 90 90 87 81 81 90 81 74 65 26 35 39 74 97 97 81 87 87 87 84
100 100 97 97 97 100 100 100 100 100 100 100 100 100 100 94 94 94 94 97 90 94 90 87 84 81 81 84 84 87 81 52 19 29 42 77 94 87 81 84 81 87 84
94 94 90 90 94 100 100 100 100 100 100 100 100 100 100 77 81 87 94 94 90 94 90 77 74 84 87 90 84 71 48 23 19 32 45 77 97 87 84 84 74 84 81
94 87 90 84 87 94 97 90 90 90 90 87 87 90 52 42 58 81 90 97 90 90 90 90 90 71 39 29 61 42 13 13 19 32 45 81 90 84 84 87 84 84 74
84 87 81 77 77 84 81 84 84 81 74 71 68 52 23 26 39 42 58 71 65 71 52 55 39 16 16 16 10 6 10 13 13 32 45 77 87 81 84 84 77 81 77
65 81 77 71 65 65 61 71 58 65 68 65 58 29 23 16 16 19 35 32 19 13 13 13 10 6 10 3 6 6 10 10 10 26 45 74 84 84 81 84 81 71 81
58 61 68 65 61 61 52 65 58 45 55 45 42 23 23 16 13 13 13 13 10 0 3 6 6 6 3 3 6 6 3 13 10 26 48 68 81 84 84 84 77 71 68
52 58 61 61 48 32 39 52 52 48 42 39 32 32 10 13 13 13 13 3 0 0 0 3 3 3 3 3 6 6 6 10 13 19 35 61 77 84 84 84 74 74 68
45 48 52 45 39 29 26 26 35 32 32 32 29 23 13 10 10 13 6 6 0 6 6 3 3 3 3 3 3 6 6 3 13 19 39 48 68 77 81 84 87 87 87
48 39 48 45 39 26 19 19 19 16 16 16 23 16 16 6 3 3 10 10 3 6 6 3 3 0 0 0 0 3 3 3 3 10 19 35 58 61 68 74 84 87 77
42 35 35 39 26 16 13 16 13 13 16 13 13 13 10 10 3 6 13 10 3 0 0 3 3 0 0 0 0 0 3 3 3 6 13 16 19 29 52 52 81 84 81
29 29 29 26 16 10 6 10 10 6 6 6 6 10 6 10 10 6 6 3 0 0 0 0 0 0 0 0 0 0 0 0 3 3 3 3 6 10 16 29 52 61 71
32 26 19 19 13 6 3 13 13 10 10 10 6 3 6 13 6 6 6 0 0 0 0 0 0 0 0 0 0 0 0 0 0 0 0 3 3 10 3 10 16 29 39
39 26 16 13 6 6 3 3 6 10 13 13 6 6 6 10 10 6 0 0 0 0 0 0 0 0 0 0 0 0 0 0 0 0 0 0 3 3 3 3 6 10 3
39 26 26 13 6 6 10 3 6 6 6 6 10 6 6 13 10 10 0 0 0 0 0 0 0 0 0 0 0 0 0 0 0 0 0 0 0 3 3 3 3 3 3
39 32 26 16 13 10 10 3 3 6 10 6 6 6 3 6 10 6 3 0 0 0 0 0 0 0 0 0 0 0 0 0 0 0 0 0 0 0 0 0 0 0 0
42 35 35 26 23 16 13 10 3 3 3 3 6 3 0 0 3 6 10 0 0 0 0 0 0 0 0 0 0 0 0 0 0 0 0 0 0 0 0 0 0 0 0
35 39 29 29 23 19 19 13 10 3 3 3 3 3 3 3 3 0 3 0 0 0 0 0 0 0 0 0 0 0 0 0 0 0 0 0 0 0 0 0 0 0 0

GEFSSE_con_cape1000_138.txt.gz
Probability
6 35 90 94 94 97 97 97 97 97 97 97 97 97 100 100 100 94 90 84 81 84 87 87 81 84 81 77 84 77 77 77 77 84 81 77 77 84 81 74 77 68 94
16 61 94 97 94 97 97 97 97 97 97 97 100 100 100 100 100 94 90 87 87 74 74 77 81 77 74 74 74 77 81 81 84 81 81 81 81 77 77 74 77 87 97
32 77 90 97 100 100 100 100 100 100 100 100 100 100 100 100 100 97 90 84 81 77 71 71 74 81 81 87 84 77 77 87 84 87 74 61 68 65 68 77 87 87 94
42 74 84 100 100 100 100 100 100 100 100 100 97 97 97 100 97 87 84 77 68 71 77 77 74 74 77 84 87 84 81 84 81 74 48 48 48 68 71 84 84 90 94
42 77 100 100 100 100 100 100 100 100 100 100 100 100 97 94 90 90 87 84 81 84 81 74 74 77 84 77 71 74 81 81 74 48 45 71 77 74 74 87 84 87 84
48 65 100 100 100 100 100 100 100 100 100 100 100 100 100 94 94 90 90 94 90 81 84 77 77 74 71 68 74 77 81 68 58 19 45 65 81 77 74 81 81 81 81
52 71 94 100 100 100 100 100 100 100 100 100 100 100 100 100 100 100 94 97 90 90 94 84 87 77 74 71 74 74 68 55 13 16 45 68 87 84 74 71 77 77 81
52 68 97 100 100 100 100 100 100 100 100 100 100 100 100 100 100 97 97 94 90 87 90 97 90 84 71 65 77 77 61 61 6 6 35 58 81 84 77 74 74 71 74
58 71 90 100 100 100 100 100 100 100 100 100 100 100 100 100 100 97 97 94 94 94 97 90 81 81 74 74 74 81 74 39 19 29 23 61 81 87 74 77 77 68 65
68 74 77 81 97 94 100 97 100 97 97 97 100 97 97 94 94 90 94 94 90 90 90 84 84 81 77 77 84 81 58 55 6 6 26 45 90 87 74 74 71 74 74
81 84 84 81 90 81 84 94 97 97 97 97 97 97 97 90 77 84 94 90 90 84 90 84 77 71 74 81 84 68 48 19 6 23 39 74 87 77 74 71 68 68 77
84 84 84 74 77 71 81 90 90 97 97 97 97 97 90 94 90 77 87 94 87 84 87 84 81 58 55 55 61 58 29 6 6 16 55 84 84 71 71 68 74 74 61
81 84 84 77 77 68 81 84 84 90 90 94 94 90 94 87 84 87 87 94 94 84 68 77 58 45 42 55 55 35 32 10 10 16 45 84 74 74 74 71 77 71 61
77 94 84 81 87 77 74 77 84 87 90 87 97 90 77 77 81 81 87 84 87 97 94 71 90 58 65 55 45 32 29 32 26 35 87 77 77 77 68 61 71 65 55
87 94 90 87 87 90 87 81 81 84 84 84 97 90 87 71 77 74 90 94 58 74 87 84 84 74 74 65 32 35 32 39 32 32 61 71 74 74 77 68 74 65 55
100 94 87 84 87 84 87 90 77 77 94 71 84 84 87 71 74 84 94 100 61 58 55 71 71 77 61 61 55 42 42 19 39 45 39 58 68 71 77 77 71 58 52
100 94 84 81 81 77 77 84 68 74 68 71 77 84 77 77 94 87 81 97 65 68 81 77 74 61 65 48 52 48 55 52 39 45 48 48 55 68 77 74 71 65 61
90 84 84 71 71 71 77 84 71 74 61 68 71 84 87 81 90 97 77 74 87 65 65 74 58 48 45 45 61 45 55 61 52 52 45 48 45 29 52 77 68 71 65
87 87 87 87 77 68 65 74 74 81 77 71 74 84 87 84 87 94 77 87 90 61 52 39 45 45 45 58 39 61 48 52 68 32 35 23 39 42 42 68 58 61 55
90 90 90 87 77 71 71 68 77 77 74 74 74 84 84 90 90 90 81 87 65 68 71 65 71 77 61 61 29 26 32 35 45 48 42 35 39 29 26 32 55 52 61
90 94 94 87 87 68 68 65 68 68 68 68 68 81 84 90 90 94 65 90 87 71 74 48 58 52 52 48 55 58 42 23 42 39 48 39 19 29 32 35 48 48 61
90 90 90 84 84 74 61 68 61 58 61 68 71 87 87 84 87 74 90 77 87 94 84 77 77 65 45 48 55 61 35 48 55 10 45 48 42 39 42 23 61 55 35
90 90 81 84 84 77 74 58 52 52 52 58 68 77 68 77 84 84 84 74 84 68 74 81 90 77 58 48 39 42 39 42 26 35 39 39 48 55 35 48 48 55 52
87 81 87 84 84 84 77 68 58 55 48 52 61 61 61 68 65 68 74 81 81 65 77 68 55 65 77 55 48 55 35 29 39 29 32 23 35 48 35 13 19 45 52
81 84 84 84 81 81 74 77 68 52 48 52 61 55 61 55 58 58 71 74 81 71 71 68 68 71 68 58 52 35 39 39 23 32 26 19 29 29 35 42 29 26 32
77 81 77 87 77 77 74 61 65 61 61 48 55 48 58 58 61 52 68 77 71 68 74 77 74 71 71 68 65 48 45 39 35 35 23 29 32 13 29 35 23 32 42

GEFSSE_con_cape1000_144.txt.gz
Probability
39 68 94 94 97 97 97 97 97 97 97 97 97 97 97 97 97 90 90 90 94 87 77 74 61 68 61 71 71 71 81 81 87 87 84 77 87 90 84 81 84 74 90
55 71 94 94 97 97 97 97 97 97 97 97 97 97 97 94 94 94 90 90 84 77 71 68 61 58 65 77 84 81 77 81 84 84 81 84 84 81 84 84 94 87 94
58 81 90 97 97 97 97 97 97 97 97 97 97 94 97 94 90 90 84 74 68 65 61 55 58 65 74 65 77 81 84 87 87 84 84 48 77 87 84 87 94 97 97
48 74 94 100 97 97 97 97 94 94 94 94 94 97 97 97 94 87 77 71 65 68 71 68 74 74 74 74 81 81 81 71 74 74 48 35 52 77 81 84 84 84 87
55 90 100 100 100 100 100 100 97 100 100 97 94 97 97 94 87 87 81 74 74 77 77 77 77 71 74 74 77 74 68 65 58 58 35 48 65 81 74 81 84 84 68
90 87 100 100 100 100 100 100 100 100 100 100 97 94 90 90 84 90 87 81 77 84 77 81 81 68 74 68 65 61 55 58 65 42 42 58 65 84 74 77 77 74 81
87 84 100 100 100 100 100 100 100 100 100 100 100 94 94 94 94 90 94 90 87 84 81 81 77 71 74 68 65 58 55 65 55 39 55 61 81 84 74 71 71 71 81
81 90 100 100 100 100 100 100 100 100 100 100 100 97 100 97 97 94 94 94 87 87 87 84 74 71 74 65 65 61 68 74 48 26 55 52 84 84 74 74 74 81 77
84 94 97 97 100 100 100 100 100 100 100 100 100 100 97 97 94 90 94 94 94 94 97 74 68 68 71 65 52 52 77 84 52 42 39 52 87 87 71 74 61 68 74
77 87 94 94 100 97 97 100 100 97 97 97 97 94 94 94 97 94 97 94 90 90 81 77 81 77 65 61 52 55 68 71 23 23 45 65 97 90 74 74 68 61 68
71 71 87 84 97 97 94 94 97 97 97 94 97 94 94 97 97 97 94 90 87 87 74 81 81 77 68 55 52 65 65 42 10 35 42 87 94 87 74 71 65 61 68
65 65 87 81 87 94 87 97 97 94 97 97 97 97 97 97 100 90 90 97 87 84 77 84 87 77 65 39 39 58 48 58 32 45 55 90 87 81 74 65 71 71 61
65 71 65 68 77 77 90 97 94 90 94 97 94 100 97 97 100 90 84 87 97 90 84 81 74 55 71 77 55 48 74 26 26 23 65 90 84 77 65 68 71 58 61
68 61 65 71 87 90 90 84 87 90 94 94 100 90 90 97 97 97 97 97 100 100 97 84 87 87 74 77 68 65 71 42 32 35 65 84 84 74 65 65 55 55 52
71 71 81 90 94 90 84 81 81 87 77 90 97 94 94 97 100 100 100 100 97 100 97 97 94 94 94 84 68 48 55 61 55 39 52 77 84 81 74 71 58 52 52
90 87 90 87 87 87 87 84 81 84 90 84 94 97 94 100 100 100 94 97 97 100 100 100 97 90 97 90 77 71 61 48 65 55 52 77 77 84 81 71 68 58 52
97 94 97 94 90 87 84 81 77 77 68 87 94 90 90 100 100 100 97 100 97 97 100 100 97 97 94 90 81 77 77 68 58 65 48 45 68 81 87 87 74 68 58
97 97 97 87 87 90 87 87 84 71 87 87 90 90 94 97 100 100 100 100 100 100 100 97 97 94 94 90 90 87 81 87 68 68 71 68 45 32 77 87 81 74 65
97 97 97 94 94 87 87 87 84 84 81 90 84 90 94 97 100 100 100 100 100 100 100 84 94 90 94 87 87 87 81 81 74 55 74 68 71 58 35 65 81 77 68
97 97 97 94 94 90 84 84 81 84 84 90 84 94 90 97 97 100 100 97 100 100 100 100 90 97 94 84 45 48 77 71 71 71 65 52 61 58 39 29 48 52 68
97 94 97 97 94 87 81 77 77 77 81 84 90 90 90 97 97 97 97 94 97 100 100 87 81 90 94 94 81 71 74 58 61 84 65 52 35 52 55 42 39 39 29
97 97 97 97 94 87 81 81 81 77 71 81 84 81 81 94 90 84 97 94 100 97 97 90 97 94 84 87 87 71 52 45 52 35 65 61 52 55 55 39 52 61 45
94 94 94 94 94 90 84 77 81 74 68 81 81 84 87 87 87 90 94 97 97 94 97 97 94 87 87 84 74 74 55 19 42 52 61 58 58 68 58 55 52 65 65
94 94 94 94 94 90 84 77 61 61 58 65 68 77 87 87 87 84 81 87 94 94 94 94 87 90 87 81 84 87 81 65 35 26 45 45 52 58 58 35 39 68 65
90 94 94 94 90 90 90 84 77 65 68 74 71 84 84 87 84 84 84 84 84 90 94 94 94 90 94 84 87 84 84 84 48 35 19 32 58 58 68 68 58 61 55
90 97 94 94 90 94 87 84 77 74 77 77 68 68 71 84 87 71 81 90 90 84 90 90 94 94 97 94 90 84 87 77 65 55 23 32 32 55 58 55 61 58 52

GEFSSE_con_cape1000_150.txt.gz
Probability
65 81 94 90 94 94 97 97 97 97 97 97 97 100 100 100 100 100 100 100 97 97 90 90 87 94 97 94 97 97 94 90 87 87 87 87 90 90 94 97 90 74 90
71 87 97 97 97 97 97 97 97 97 97 97 97 100 100 97 100 97 100 100 100 94 90 94 90 87 87 90 90 90 87 87 87 81 84 87 87 84 90 90 84 74 77
84 84 97 97 97 97 97 97 97 97 97 97 97 100 100 100 100 100 100 97 90 84 81 81 77 84 81 90 87 87 90 90 87 87 81 39 68 90 90 94 94 84 71
81 84 94 97 97 97 97 97 97 97 97 97 100 100 100 100 94 97 90 90 87 84 84 84 77 77 77 74 77 84 84 84 90 71 16 29 45 87 97 94 90 81 74
87 94 97 97 97 97 97 97 97 97 97 97 100 100 100 97 94 87 90 90 84 81 77 81 87 81 77 81 84 77 81 77 74 29 16 16 39 84 94 84 81 74 68
94 97 97 97 97 97 97 97 97 97 97 97 100 100 97 97 94 87 87 84 87 84 84 74 74 84 71 77 71 68 71 71 39 19 13 23 48 87 90 81 81 84 77
94 100 100 100 97 97 97 97 100 100 100 100 100 97 97 94 90 94 90 90 87 94 87 74 74 77 74 68 68 71 71 55 13 13 10 23 55 90 87 81 77 77 74
94 100 100 100 100 100 100 100 100 100 100 100 100 97 97 97 94 94 97 90 94 100 90 81 77 71 71 68 68 68 71 48 26 13 13 26 68 94 87 77 81 81 71
94 97 97 100 100 100 100 100 100 100 100 100 100 97 97 94 94 94 97 97 94 90 87 77 74 61 74 74 74 68 74 58 10 10 16 42 90 90 84 90 74 81 68
87 94 94 90 97 100 100 100 100 100 100 100 97 97 94 94 97 97 97 94 94 87 84 71 68 61 68 77 77 77 77 32 6 16 13 61 97 84 87 77 77 71 77
74 77 77 81 81 90 97 97 97 97 97 97 94 94 90 74 65 90 87 94 94 90 84 61 61 65 65 58 77 84 45 0 6 13 10 74 94 84 84 77 77 71 71
74 71 68 71 71 74 81 90 87 90 90 84 68 74 45 32 32 65 90 94 94 94 77 81 74 65 42 16 29 39 3 6 3 6 29 90 90 87 77 81 81 74 71
58 71 68 68 68 55 65 61 65 52 52 58 58 58 29 16 29 45 39 68 58 65 42 48 52 35 16 13 6 3 3 0 3 3 39 87 90 90 84 77 77 71 61
52 55 58 55 52 52 52 52 58 52 45 48 48 52 23 13 16 19 19 19 19 13 10 16 13 16 6 3 3 3 0 0 0 6 45 84 87 87 87 77 81 74 71
42 45 52 52 48 42 39 52 65 58 52 45 45 39 26 16 16 16 26 19 16 10 3 6 10 6 10 3 3 3 0 0 3 3 29 77 84 87 81 71 65 71 71
39 35 42 35 45 42 42 39 48 55 52 35 39 35 29 13 13 13 10 13 19 13 6 6 6 0 0 3 3 3 0 0 0 6 16 68 84 87 90 77 68 71 71
42 39 39 45 39 39 39 39 48 52 42 39 39 19 23 26 19 16 10 3 6 6 6 3 3 0 0 0 0 0 0 3 0 3 10 23 55 77 84 87 84 71 61
52 55 52 55 39 39 32 29 29 32 39 39 35 23 26 23 13 3 16 13 10 10 6 3 0 0 0 0 0 0 0 3 3 0 3 3 13 42 68 87 84 77 65
55 52 48 48 45 35 35 32 29 35 32 29 32 13 19 23 35 13 10 13 6 3 3 10 0 0 0 0 0 0 0 0 0 3 3 0 0 0 16 52 84 84 65
55 55 52 52 48 35 39 35 35 32 26 26 32 35 19 23 35 10 10 13 13 6 3 3 0 0 0 0 0 0 0 0 0 0 0 3 3 0 0 10 39 58 74
68 68 61 55 52 45 42 39 39 35 26 19 23 35 29 26 26 10 23 16 10 10 3 3 0 0 0 0 0 0 0 0 0 0 0 0 0 0 0 0 0 6 10
74 68 61 55 52 45 48 39 35 32 26 16 13 23 29 29 23 35 13 13 10 10 6 3 0 0 0 0 0 0 0 0 0 0 0 0 0 0 0 0 0 0 0
84 77 77 61 48 48 52 39 32 26 19 10 10 6 13 23 26 23 13 6 10 10 6 6 3 0 0 0 0 0 0 0 0 0 0 0 0 0 0 0 3 0 0
84 84 81 61 55 45 42 35 29 26 23 19 10 6 10 16 29 16 19 10 13 13 10 10 10 3 3 0 0 0 0 0 0 0 0 0 0 0 0 0 3 0 0
84 87 90 81 61 58 48 42 29 26 26 19 13 13 13 13 16 29 23 19 13 6 6 10 10 6 3 0 0 0 0 0 0 0 0 0 0 0 0 0 0 3 3
87 87 90 81 74 68 55 48 32 26 26 26 19 19 16 10 13 23 32 10 10 10 10 10 10 10 6 6 0 0 0 0 0 0 0 0 0 0 0 0 0 0 3

GEFSSE_con_cape1000_156.txt.gz
Probability
42 65 90 94 100 97 90 97 100 97 97 97 97 100 100 100 100 100 97 97 97 94 90 90 87 84 97 90 87 84 81 77 81 77 77 77 77 87 90 84 68 55 81
55 81 90 90 97 97 97 97 97 97 97 97 97 100 100 100 100 100 100 100 97 90 87 90 87 84 90 87 94 84 81 74 74 77 84 77 84 84 84 65 61 61 77
71 84 90 94 94 97 97 97 97 97 97 97 97 100 100 100 100 100 100 97 94 87 90 94 87 90 90 87 81 81 77 81 81 74 65 61 77 84 81 65 71 74 68
81 84 87 97 97 97 97 97 97 97 97 97 97 97 97 100 94 94 94 90 87 81 81 84 90 90 84 81 81 81 84 84 77 71 42 48 65 84 81 74 71 71 81
77 81 94 97 97 97 97 97 97 97 97 97 97 97 94 97 94 87 90 84 77 77 74 77 74 71 84 81 81 84 84 81 68 29 23 35 71 84 81 74 74 68 55
77 94 97 97 97 97 97 97 97 97 97 97 97 94 94 97 90 90 90 87 81 77 74 74 68 74 87 90 84 87 87 77 35 23 19 39 71 84 77 74 68 65 61
87 94 97 97 97 97 97 97 97 97 97 94 97 97 97 97 94 90 87 87 90 94 77 74 77 81 74 74 81 87 74 55 10 13 26 42 74 94 84 77 68 68 71
90 90 94 97 97 97 97 97 97 97 97 97 94 97 94 94 90 94 90 94 94 87 81 74 74 68 71 71 71 71 65 52 19 13 23 42 71 90 84 68 65 65 65
87 87 90 97 97 97 97 97 97 94 94 100 97 97 97 97 94 94 94 94 84 77 74 77 68 68 71 74 68 68 65 52 16 16 16 52 81 87 77 71 65 65 65
84 84 84 87 94 97 97 97 94 94 97 100 100 97 97 97 87 87 94 87 77 71 77 68 68 61 77 74 68 71 61 23 10 13 23 55 81 87 81 71 71 61 55
81 74 81 81 81 84 94 97 97 97 94 94 94 97 94 55 61 81 87 84 74 61 68 71 71 58 65 68 74 74 35 10 19 16 23 65 77 77 74 77 74 77 55
65 74 68 68 68 71 84 77 74 81 74 68 65 58 35 32 39 74 87 87 74 65 68 71 74 65 39 35 55 42 6 10 13 13 29 65 65 68 68 77 71 68 52
52 68 61 58 61 61 52 61 52 55 58 45 45 35 23 16 19 19 32 48 45 42 32 39 35 16 16 13 16 6 6 10 10 10 29 65 68 65 68 71 65 61 61
42 61 58 58 52 52 48 58 45 45 42 39 26 23 16 13 10 13 13 13 10 6 13 23 16 16 10 6 6 6 3 3 6 10 29 68 74 71 71 71 65 65 55
42 42 48 52 45 45 35 45 45 42 32 23 19 16 16 6 10 10 10 10 6 6 3 3 6 10 6 3 3 6 0 0 0 6 32 68 81 84 68 68 65 58 61
26 29 35 48 42 39 32 32 42 39 26 19 16 13 10 3 6 3 6 6 6 6 3 3 3 6 0 3 3 3 0 0 3 13 19 45 71 87 87 74 71 58 58
26 29 29 39 39 35 32 26 39 35 29 19 16 13 13 3 3 3 3 3 3 3 3 6 3 0 0 0 3 0 0 0 3 13 16 32 52 71 71 84 74 61 55
26 26 26 39 32 29 26 26 32 26 19 19 13 10 10 10 3 3 3 3 3 3 3 6 0 0 0 0 0 0 0 0 0 0 13 19 32 42 52 68 68 71 58
26 26 19 19 29 26 19 16 16 6 19 19 16 10 10 16 13 3 3 3 3 3 3 6 0 0 0 0 0 0 0 0 0 0 6 13 16 26 32 52 65 68 55
35 29 29 23 23 26 19 16 10 13 13 13 10 10 3 6 6 3 0 3 3 3 3 3 0 0 0 0 0 0 0 0 0 0 0 3 3 3 3 13 29 52 55
29 32 35 26 23 29 23 19 13 10 13 6 10 3 3 3 0 3 3 0 3 3 0 0 0 0 0 0 0 0 0 0 0 0 0 0 0 0 0 3 6 10 19
29 32 35 23 19 23 26 23 16 16 10 10 6 3 3 6 3 3 0 0 3 3 0 0 0 0 0 0 0 0 0 0 0 0 0 0 0 0 0 0 0 3 0
45 35 35 23 23 23 23 16 13 13 13 13 3 3 6 3 6 3 0 0 0 3 6 3 3 0 0 0 0 0 0 0 0 0 0 0 0 0 0 3 3 3 0
52 48 42 32 26 19 16 16 19 19 19 10 6 0 0 3 3 6 0 0 0 0 0 0 0 0 0 3 0 0 0 0 0 0 0 0 0 0 0 0 0 3 3
61 61 48 35 29 23 23 23 16 19 13 10 6 3 3 3 3 6 3 3 3 3 0 0 0 0 0 0 0 0 0 0 0 0 0 0 0 0 0 0 0 0 0
65 71 68 45 35 29 29 26 23 23 16 13 13 10 10 10 3 3 6 3 3 3 0 0 0 0 0 0 0 0 0 0 0 0 0 0 0 0 0 0 0 0 0

GEFSSE_con_cape1000_162.txt.gz
Probability
13 26 74 74 77 84 97 100 97 100 94 94 97 100 100 97 94 97 90 90 87 90 87 87 90 84 84 81 81 77 74 77 77 77 81 81 84 81 81 61 65 48 65
13 32 81 87 87 94 94 97 97 97 94 97 100 100 100 97 97 90 90 94 81 87 84 94 84 81 77 81 81 81 74 81 74 74 77 77 74 77 74 52 65 55 65
23 52 68 87 90 97 97 97 97 97 94 94 94 97 97 100 100 94 84 90 87 74 81 77 81 90 87 87 84 77 74 68 68 71 71 58 65 68 71 68 74 61 61
23 45 61 87 97 97 97 97 97 97 97 97 97 94 97 97 97 97 94 81 74 74 77 81 84 84 81 77 77 71 71 65 68 65 39 32 35 61 74 71 74 65 71
32 48 90 94 97 97 97 97 97 97 97 97 97 90 90 90 84 81 74 74 71 71 77 77 81 84 77 77 74 68 61 61 48 29 23 48 61 71 71 81 71 58 68
42 52 90 97 97 97 97 94 97 97 97 97 97 94 90 87 84 81 77 71 71 77 81 77 71 71 81 74 77 68 61 58 35 13 13 42 48 77 74 65 61 65 65
45 58 87 97 97 97 94 97 97 97 97 97 97 94 90 84 84 84 84 81 77 74 71 74 65 74 77 71 65 58 48 39 19 13 19 29 68 74 61 68 61 65 65
45 61 90 97 97 97 97 97 97 97 94 97 87 90 90 87 90 87 84 77 74 65 74 74 77 74 71 68 68 58 58 42 16 13 13 32 68 77 74 71 77 71 65
52 61 71 84 94 94 97 97 97 97 94 94 94 94 90 94 94 87 84 81 71 68 71 65 65 52 65 68 58 61 39 32 26 13 6 39 68 74 58 55 58 65 65
58 55 74 65 84 81 81 90 90 90 90 87 94 94 94 87 84 84 77 77 71 68 68 74 58 61 65 65 61 55 39 39 16 10 16 39 71 68 61 55 68 61 68
68 71 65 61 71 74 68 77 84 87 87 87 90 94 90 74 68 71 65 71 61 61 74 68 61 65 55 55 48 58 39 32 16 19 26 58 71 68 61 55 61 58 68
58 61 68 65 68 61 48 81 84 71 77 81 81 77 74 77 74 55 71 77 68 68 65 65 68 61 48 42 35 32 32 32 23 13 29 68 61 58 61 55 58 52 42
45 55 45 61 61 48 65 68 68 68 87 74 77 81 84 74 61 58 81 84 84 58 74 68 58 39 26 45 32 35 29 16 16 10 32 61 65 52 58 61 61 55 52
45 52 52 65 71 58 48 58 61 61 81 58 81 77 77 71 58 55 74 65 68 81 81 71 71 45 32 26 35 32 23 26 29 16 68 65 65 71 58 55 55 58 58
52 52 58 68 74 81 87 74 52 55 42 58 87 87 84 71 65 58 61 77 55 58 61 77 68 65 42 32 23 29 35 23 29 26 52 71 68 71 68 61 52 52 42
61 68 71 74 87 87 84 84 68 58 84 55 61 77 77 84 71 68 84 81 55 58 58 68 55 58 48 45 35 26 32 26 32 39 29 61 71 71 71 68 61 58 39
77 81 87 84 84 84 77 74 68 74 61 65 68 81 84 84 94 84 68 81 65 65 77 77 71 58 52 48 45 42 48 45 32 52 35 42 61 68 74 71 65 58 61
90 90 84 58 81 87 84 87 74 65 61 74 74 87 81 90 97 100 77 65 77 61 58 71 65 58 39 42 45 45 48 61 48 61 35 35 48 29 58 71 68 68 55
90 90 84 81 87 84 81 81 77 81 81 84 84 84 87 90 90 87 90 90 81 74 74 55 55 61 45 52 42 65 45 35 58 39 45 39 45 52 48 68 68 61 55
87 94 87 90 90 90 77 71 74 77 71 84 84 87 81 84 84 77 77 81 77 81 84 74 71 84 68 65 26 19 48 35 39 42 52 45 52 42 39 42 68 55 55
87 94 94 94 90 87 84 74 71 74 68 74 71 68 77 81 77 90 68 81 87 81 81 55 74 71 61 71 58 52 45 32 32 55 45 42 45 55 45 45 58 65 61
87 90 90 94 94 87 90 87 84 77 77 74 65 74 81 81 77 61 90 90 90 94 94 87 87 71 71 68 71 58 42 45 68 13 48 45 35 48 39 39 52 68 61
94 90 90 97 94 90 87 87 77 84 87 71 81 77 71 74 74 74 77 81 90 81 81 90 87 77 71 74 65 58 35 39 26 39 35 39 48 48 48 45 45 61 71
94 94 94 97 94 94 90 87 84 87 77 77 81 71 71 61 68 61 68 74 87 87 90 87 68 81 77 55 65 68 48 55 39 35 45 16 26 45 35 29 23 42 61
94 94 94 94 94 90 87 84 90 84 77 71 71 71 71 61 68 65 61 71 94 87 90 81 84 87 77 65 65 71 65 71 45 55 35 26 26 26 26 26 39 32 45
87 94 94 94 97 87 87 87 90 84 77 77 74 68 68 77 77 61 65 74 81 87 84 84 81 74 87 87 81 61 61 45 52 58 45 58 52 32 32 39 29 32 39

GEFSSE_con_cape1000_168.txt.gz
Probability
35 52 77 74 74 74 81 84 87 94 97 94 94 94 94 90 90 90 87 90 81 81 74 71 77 77 68 77 74 77 81 94 90 81 81 77 71 74 74 71 58 35 68
39 58 77 74 74 81 84 90 90 94 94 94 90 94 94 90 84 84 84 87 87 84 77 77 77 81 68 81 77 84 84 87 84 81 74 68 65 61 65 68 61 45 74
35 52 74 84 87 87 94 94 94 90 94 94 90 87 94 87 87 77 84 81 81 81 74 74 74 68 77 77 81 84 81 77 74 71 68 35 55 58 74 71 74 77 71
39 52 81 90 90 94 94 94 94 90 94 94 87 87 84 81 84 74 81 84 74 77 81 74 77 74 74 77 74 74 74 68 68 71 45 29 16 61 71 68 65 65 68
45 74 84 94 97 97 97 94 94 94 90 90 90 87 87 81 81 65 58 61 71 77 71 71 77 77 81 71 65 61 65 55 55 48 35 42 48 71 74 61 68 65 48
68 68 90 97 97 94 94 94 94 97 97 94 87 87 84 77 74 71 65 68 68 65 68 74 77 71 68 65 48 39 42 35 42 23 32 42 48 81 61 58 74 71 65
61 71 81 97 90 94 94 94 94 97 97 94 87 87 84 74 74 71 74 71 68 61 61 71 74 74 65 48 42 39 39 35 29 32 35 58 68 84 61 52 68 74 68
68 71 90 97 94 94 94 94 94 94 90 90 77 84 74 77 74 71 74 65 65 68 61 65 68 61 65 48 42 35 29 45 26 23 45 45 84 84 58 58 61 61 61
71 77 84 87 90 94 94 94 90 87 90 87 77 84 84 74 81 74 68 68 65 65 61 58 55 52 55 45 29 42 52 61 39 23 23 35 81 84 65 52 58 55 61
65 65 74 81 84 84 87 90 87 87 90 81 77 87 84 77 81 84 81 81 65 61 61 58 52 48 45 39 39 35 42 48 23 13 23 35 84 77 58 65 55 61 58
65 74 74 74 81 81 81 81 84 87 87 84 81 90 90 90 71 84 77 81 58 58 61 61 58 55 48 48 48 45 42 26 23 16 26 65 84 71 58 55 52 55 52
52 55 71 65 71 77 77 84 94 87 87 90 97 94 97 94 84 65 81 74 61 65 65 61 65 61 45 35 45 42 39 35 29 19 29 84 84 81 52 48 55 58 58
39 48 42 39 65 68 81 84 90 90 84 90 90 94 94 94 87 81 68 68 81 71 65 77 65 48 48 48 32 29 45 32 26 19 35 87 87 84 65 55 52 52 39
39 39 39 55 74 84 87 87 90 87 94 90 90 94 94 90 87 90 84 81 90 84 87 84 84 71 71 52 48 45 45 32 35 32 45 81 77 81 68 68 65 61 55
45 61 81 94 94 90 94 94 84 94 84 94 100 97 100 94 97 87 90 90 77 87 90 87 84 87 74 71 61 48 61 52 42 35 42 81 84 81 71 68 65 58 52
84 84 87 90 94 94 94 94 94 87 97 87 97 97 97 94 94 94 90 94 87 87 87 90 87 84 90 87 71 65 71 58 61 65 45 71 81 84 84 74 65 58 55
94 90 90 94 90 97 90 94 94 90 84 87 100 100 97 94 94 94 97 94 84 84 90 90 90 90 84 77 81 77 71 71 65 68 55 39 35 81 84 81 71 58 58
94 94 94 84 94 94 97 97 94 90 90 87 94 97 97 97 94 94 97 94 94 90 90 90 90 87 84 87 81 71 77 74 71 65 52 48 39 29 58 81 77 71 61
100 97 97 97 97 97 97 97 97 90 87 94 97 97 100 100 100 97 100 100 94 94 94 84 87 87 77 81 74 81 74 84 77 65 58 58 55 52 35 48 81 74 71
97 97 97 97 97 97 97 90 90 94 87 87 94 90 97 100 97 94 100 100 97 97 94 90 87 90 90 87 35 55 65 68 71 68 65 58 55 58 42 42 42 58 77
94 97 97 97 97 97 97 90 90 90 87 87 87 87 87 97 97 94 90 100 97 90 90 84 84 81 74 77 74 68 61 65 68 81 68 52 48 55 52 61 45 45 32
97 97 97 97 97 97 97 90 90 90 90 84 84 87 94 90 87 84 97 90 90 87 81 81 81 77 68 71 77 74 61 61 65 35 65 71 58 55 45 42 58 71 55
97 97 97 97 97 97 97 94 94 94 90 84 84 81 90 90 90 90 94 77 84 87 81 77 77 77 71 77 77 77 58 39 58 65 68 61 65 71 65 61 68 58 58
97 94 97 97 97 97 97 94 94 90 90 84 84 84 87 87 87 90 87 84 87 84 81 74 74 84 84 74 81 71 68 74 48 55 61 48 58 55 52 32 29 52 65
94 97 100 100 100 97 97 97 97 97 97 90 87 84 84 84 84 77 74 77 77 81 77 77 77 84 81 71 71 68 61 74 65 65 29 42 45 48 52 68 58 61 58
90 100 100 100 100 100 97 97 97 97 90 87 81 84 81 77 77 74 74 77 84 81 77 84 74 74 87 77 74 65 61 55 58 45 42 39 42 48 58 58 61 61 58

GEFSSE_con_cape1000_174.txt.gz
Probability
45 65 77 77 81 84 87 87 90 94 97 100 97 97 94 97 100 100 94 97 77 87 90 90 87 87 90 90 94 81 81 77 74 77 84 77 84 81 84 81 81 58 77
55 71 77 81 81 84 87 90 90 94 97 97 94 94 97 94 94 97 94 87 81 77 77 87 87 84 90 94 90 77 81 84 77 81 84 74 68 77 77 68 52 42 74
65 71 87 81 84 87 87 87 94 97 97 97 97 97 94 94 87 87 90 90 87 74 77 84 87 84 84 90 90 94 87 84 74 68 71 26 48 81 81 77 71 74 65
61 71 77 81 87 87 84 87 97 97 97 97 94 94 90 87 84 84 87 90 87 77 77 81 77 74 81 87 84 77 81 77 68 48 13 6 29 68 77 77 71 68 65
61 71 81 94 94 90 94 94 94 94 94 94 90 84 84 84 81 87 90 84 81 77 77 74 74 68 65 77 68 68 74 68 42 19 6 3 16 68 77 74 77 68 65
68 77 87 97 97 97 97 97 97 94 94 94 84 90 87 87 84 84 81 81 81 77 77 71 68 65 61 55 52 52 58 42 16 6 6 6 26 68 74 71 71 71 71
65 77 87 97 97 97 97 97 97 97 97 94 94 90 90 90 81 74 74 81 77 77 77 71 68 55 52 52 48 52 48 35 6 0 0 6 29 77 74 74 68 77 71
74 77 94 97 97 97 97 97 97 94 90 87 87 87 84 84 81 74 71 65 74 77 77 74 55 58 52 55 52 48 42 29 10 6 3 3 48 81 74 71 77 77 71
71 81 90 90 94 94 97 97 97 90 90 90 87 87 87 77 77 71 61 65 68 74 68 55 45 42 48 45 52 61 55 39 3 3 6 6 68 81 77 71 68 65 61
61 71 81 84 90 90 94 97 97 94 94 94 87 90 90 87 81 77 81 84 68 61 55 45 42 42 42 42 52 55 52 35 3 3 3 26 81 81 65 58 61 61 58
55 61 71 71 71 81 81 94 90 94 94 90 87 87 84 48 52 81 74 74 68 65 65 52 42 42 52 39 48 55 35 10 3 3 3 48 81 84 77 71 58 58 58
45 55 58 68 61 61 71 74 68 68 71 58 48 68 39 35 32 45 84 81 68 61 65 65 65 58 42 19 16 42 19 3 0 0 6 74 77 81 84 65 52 58 52
45 48 52 58 52 52 48 61 52 52 42 42 39 32 26 29 19 42 23 55 52 52 32 42 35 23 19 16 10 6 3 3 3 0 13 87 87 81 77 65 71 65 55
26 35 48 48 45 39 39 52 42 48 35 42 39 32 23 16 16 19 10 13 13 6 6 10 10 13 13 10 13 3 3 6 3 0 10 87 94 87 74 77 71 58 52
29 39 45 39 42 32 42 35 45 45 45 42 29 29 26 19 10 13 10 10 13 10 6 3 6 10 13 13 13 10 3 3 3 0 6 84 94 90 77 84 74 65 55
32 45 48 45 39 32 26 29 39 32 23 35 26 29 23 19 13 10 10 13 13 10 10 6 6 10 6 13 6 10 0 0 3 0 0 42 81 81 77 77 71 68 61
32 42 48 45 32 29 29 29 26 26 26 26 23 29 19 16 13 6 10 10 3 10 10 6 13 10 6 6 6 10 0 3 3 3 0 13 35 81 77 77 77 74 74
29 42 42 55 39 32 29 23 26 32 19 13 19 19 26 19 13 13 6 6 10 13 10 10 6 10 6 3 3 6 3 3 3 0 0 0 3 16 71 77 77 84 71
35 35 39 48 45 42 29 29 35 35 32 23 26 19 23 23 19 13 10 10 19 19 13 13 10 6 3 3 6 3 0 0 6 6 0 3 0 3 3 32 77 77 71
39 39 45 45 35 35 32 48 39 39 29 19 23 26 23 26 32 16 13 19 23 13 6 6 6 10 6 6 10 10 0 0 0 0 0 0 3 3 0 0 10 48 71
45 42 48 55 42 39 42 48 42 32 32 23 26 32 16 26 35 26 23 19 16 13 6 3 10 16 13 10 6 3 0 0 0 0 0 0 3 6 0 0 0 0 3
55 58 45 58 58 48 45 48 42 29 29 23 23 35 32 29 26 39 32 26 13 16 10 6 6 10 10 10 3 0 0 0 0 0 0 0 0 3 3 0 0 0 0
58 65 55 58 71 61 58 61 45 32 32 39 35 42 39 35 29 29 29 23 23 13 13 10 10 10 10 10 6 0 0 0 0 0 0 0 0 0 0 0 0 0 0
68 68 68 65 68 77 68 65 58 48 42 26 29 32 42 42 35 29 23 29 19 19 19 13 10 10 10 10 6 3 3 0 3 0 0 0 0 0 0 3 0 0 3
77 81 81 81 77 77 81 71 58 55 42 32 35 32 35 35 39 45 39 32 26 26 19 19 13 13 10 13 10 6 6 3 3 3 0 0 0 0 0 0 0 0 0
74 81 81 84 84 84 77 74 61 58 52 39 39 39 32 32 35 39 42 35 23 26 29 19 16 16 13 13 13 6 6 3 3 0 0 0 0 0 0 0 0 0 0

GEFSSE_con_cape1000_180.txt.gz
Probability
19 39 65 71 71 81 87 100 97 100 100 100 97 94 94 97 94 94 87 84 81 84 84 77 84 87 71 77 81 77 68 77 81 81 84 87 87 71 74 65 48 45 65
39 55 71 74 77 84 90 90 97 100 100 100 97 100 94 97 97 87 87 84 84 84 84 84 84 77 77 74 71 71 71 71 74 84 77 81 74 71 58 48 32 42 55
48 61 77 77 90 94 90 94 94 100 97 97 97 97 97 97 90 90 87 90 84 81 81 87 84 81 81 77 61 65 74 74 71 81 65 39 68 65 61 52 45 52 48
58 65 74 87 90 94 90 94 100 97 97 97 97 94 90 90 90 84 90 90 84 77 74 81 77 74 68 71 68 71 71 68 65 48 16 23 32 52 45 55 42 48 45
55 68 77 87 90 90 94 90 94 94 94 97 100 90 90 87 87 84 90 87 81 77 74 77 71 65 65 74 71 71 71 65 52 10 6 13 32 58 55 61 52 48 52
58 74 77 87 84 87 97 97 94 94 100 94 87 87 87 84 87 87 87 77 71 71 71 68 65 65 61 61 61 61 55 45 16 6 6 6 35 61 61 52 42 55 45
61 71 84 87 94 90 90 90 97 97 94 94 87 84 87 87 84 77 74 74 74 74 74 65 61 61 68 55 48 42 39 32 3 6 3 6 39 74 65 55 61 58 65
61 74 87 90 94 94 87 90 87 94 90 90 90 84 84 84 74 81 74 71 71 68 65 61 61 61 58 52 52 45 45 26 10 3 3 10 48 74 68 71 65 61 52
68 71 77 84 90 90 94 90 87 87 90 84 90 87 81 74 68 71 71 71 65 61 58 48 48 42 42 39 35 32 29 29 3 3 3 10 58 71 71 55 65 48 42
52 65 77 77 84 90 90 90 87 90 87 87 87 84 77 81 71 81 84 68 52 55 55 45 42 35 39 39 42 42 42 26 3 3 10 13 65 65 68 48 68 58 39
48 48 48 61 52 68 84 90 84 87 90 77 74 81 74 42 39 65 71 65 61 58 45 39 26 32 35 39 45 52 29 10 0 6 3 35 68 71 55 55 48 55 48
26 39 35 39 45 45 68 68 52 55 58 55 48 45 35 29 26 48 68 71 55 45 39 55 61 42 29 19 23 26 19 10 0 3 3 35 68 68 58 68 58 58 52
16 26 42 32 35 39 45 45 32 32 39 42 32 26 23 23 16 19 23 26 29 35 29 35 29 23 19 16 19 10 10 6 10 6 13 55 71 77 74 71 65 65 55
16 29 29 32 35 32 35 35 32 23 23 29 29 19 16 13 6 13 13 6 6 10 13 13 10 16 16 13 16 16 13 13 10 10 10 55 74 81 77 71 68 61 61
16 29 32 35 29 29 23 23 35 19 13 16 16 13 13 6 3 3 6 3 6 10 10 6 3 10 10 13 13 13 10 13 13 10 13 35 77 84 81 81 71 71 65
19 23 26 29 29 26 19 13 19 16 13 13 10 13 16 10 6 0 0 0 3 3 3 3 3 3 10 13 13 13 10 10 10 10 6 16 65 84 74 74 71 74 68
13 16 19 16 19 13 16 13 16 16 13 10 13 10 13 13 0 3 0 0 3 3 3 6 6 6 10 10 10 10 10 6 10 10 10 0 19 58 84 77 71 71 65
13 13 16 32 19 10 10 13 13 10 10 10 10 10 10 13 3 0 3 3 0 3 10 10 6 6 6 6 6 6 6 6 6 3 3 0 13 23 52 77 74 74 71
10 10 13 19 19 13 3 6 10 6 6 6 6 6 6 3 6 3 3 3 3 6 6 6 10 6 6 3 6 6 6 6 6 6 3 0 3 3 16 32 74 77 71
13 10 13 16 13 13 10 0 0 3 6 6 6 6 10 6 13 6 6 3 6 6 10 6 3 3 3 3 6 13 3 3 3 3 0 0 3 3 3 3 13 39 61
13 16 16 16 13 3 10 3 6 10 10 6 10 6 6 10 10 6 6 10 10 10 10 3 3 6 10 10 6 3 0 0 0 0 0 3 3 0 3 0 0 0 3
16 16 13 13 10 6 13 16 13 16 13 10 10 6 13 10 10 10 6 6 6 13 10 6 3 6 10 10 10 3 0 0 0 0 0 0 0 0 6 3 0 0 0
16 16 16 19 16 10 10 13 13 16 16 16 13 6 13 19 16 16 13 10 6 10 10 10 6 10 10 10 10 10 3 0 0 0 0 0 0 0 0 0 3 3 3
23 26 16 19 23 19 16 16 23 19 19 16 10 10 6 16 19 19 16 13 13 10 6 6 6 6 10 10 10 3 0 0 0 0 0 0 0 0 3 0 3 10 3
35 35 35 29 29 23 23 23 26 23 13 13 13 13 13 16 19 23 23 13 10 10 10 6 6 6 10 10 10 6 3 0 0 0 0 0 0 0 0 3 3 0 3
42 42 39 32 32 29 26 19 19 23 16 16 10 13 13 16 16 29 26 13 6 6 6 6 6 10 6 3 6 6 6 6 6 3 3 3 0 0 0 0 0 0 0

GEFSSE_con_cape1000_186.txt.gz
Probability
6 19 52 58 61 65 65 65 77 74 77 74 87 94 94 94 94 90 90 84 71 71 71 77 84 74 84 81 81 77 77 77 81 71 74 68 71 68 61 48 55 39 65
10 26 58 68 68 68 81 84 94 81 81 87 90 97 97 94 87 90 90 87 77 77 74 68 77 74 81 77 81 71 71 81 81 81 68 52 65 61 48 32 52 48 65
10 35 48 71 74 77 97 94 94 94 90 90 90 90 90 90 90 87 87 81 87 84 74 84 74 68 68 65 61 68 68 68 74 71 58 39 42 42 45 52 65 68 58
16 35 52 81 87 84 94 90 90 94 90 94 94 87 90 94 87 84 81 87 84 77 74 81 77 77 71 61 65 65 65 61 58 48 23 13 19 39 48 55 55 58 52
26 39 77 94 90 94 94 94 87 90 90 90 90 87 87 90 90 87 84 84 74 74 74 77 71 77 77 71 68 74 68 58 39 16 3 3 23 42 45 39 42 45 32
26 42 71 84 87 87 90 94 87 81 84 87 90 90 81 84 81 81 81 81 74 68 68 65 61 68 68 68 61 55 58 48 23 3 13 10 19 55 45 42 42 32 39
13 29 68 84 87 81 84 77 81 77 74 84 81 84 77 74 74 77 68 71 71 71 61 55 52 52 61 58 52 45 42 35 23 6 0 3 35 65 35 42 48 35 42
19 26 68 87 84 84 77 81 71 71 77 74 81 65 74 71 77 71 71 77 74 61 58 48 58 52 55 42 39 35 35 23 6 3 3 3 52 58 35 48 52 48 61
16 26 45 68 84 84 81 77 74 71 74 74 71 71 74 71 61 58 61 68 65 65 52 42 45 45 48 48 48 35 19 19 13 13 3 19 42 52 55 58 48 52 48
29 32 61 55 74 74 71 74 74 71 65 74 77 77 65 65 65 58 61 68 45 35 42 42 35 32 35 39 35 35 23 13 13 13 13 26 61 48 52 52 45 48 52
32 39 39 42 58 61 52 68 71 81 71 77 81 74 68 61 55 58 58 68 39 42 42 35 29 39 39 32 26 39 19 23 13 6 19 32 55 42 42 52 55 42 55
39 39 39 45 48 45 42 65 77 65 74 81 81 77 65 68 61 45 65 68 52 42 48 39 35 42 29 29 32 39 23 16 16 10 26 52 58 58 48 52 58 58 52
26 29 35 42 48 48 65 68 71 77 84 81 74 87 87 74 68 58 71 74 71 61 48 42 29 29 26 32 32 29 26 13 19 13 29 55 65 74 68 65 61 48 52
26 35 32 42 61 71 68 71 74 71 74 68 81 87 77 74 74 65 68 58 52 58 58 45 42 23 23 19 13 13 23 23 19 19 55 65 68 74 71 74 71 68 68
29 32 39 71 87 87 90 81 61 61 61 68 87 87 84 77 74 68 77 77 42 42 39 68 58 58 48 35 23 19 19 19 13 19 52 61 71 77 77 77 74 74 68
61 65 71 84 90 94 87 87 81 68 90 65 77 81 87 74 74 74 68 84 61 61 48 55 61 71 55 52 32 26 26 26 35 42 39 55 65 74 81 81 77 68 61
77 77 90 90 94 90 87 84 84 77 71 74 84 90 87 77 90 90 68 81 71 68 77 71 61 61 61 55 48 39 35 52 39 42 45 52 65 68 77 77 77 68 65
90 94 94 74 84 90 94 94 84 71 81 81 90 97 90 87 87 90 81 65 81 71 71 68 65 58 68 48 61 55 52 58 58 61 52 58 65 65 74 77 81 77 74
97 94 97 90 84 84 94 94 84 84 87 87 90 97 94 84 81 81 84 81 74 65 68 58 52 65 61 68 52 65 52 58 68 52 58 52 61 61 61 74 81 68 74
97 97 94 90 87 87 84 94 87 84 84 84 87 90 90 87 84 84 84 84 68 68 71 65 68 61 65 74 35 35 48 52 65 61 55 45 58 58 52 68 74 77 71
97 97 90 94 90 90 84 84 94 87 87 84 87 81 84 87 94 97 71 81 77 61 71 68 65 52 52 61 68 48 39 26 39 65 61 52 48 55 52 68 71 74 74
94 94 90 94 90 90 94 94 94 90 87 87 87 87 81 81 90 77 94 81 87 94 84 74 71 55 52 58 58 48 42 42 65 16 39 55 52 52 52 52 58 71 68
94 94 87 94 90 94 94 90 94 94 90 90 87 90 87 77 77 77 90 87 81 84 84 77 74 71 68 65 55 65 55 35 35 29 42 32 42 55 52 35 52 58 68
90 90 94 94 94 94 94 94 90 87 87 84 84 87 87 84 81 81 87 84 87 84 87 61 58 74 74 71 65 77 65 61 42 45 32 26 35 48 45 29 16 42 65
81 90 94 97 94 94 94 94 94 94 94 81 77 87 90 87 87 74 81 81 81 74 74 74 74 74 74 68 61 58 48 61 48 61 45 52 42 35 39 48 42 45 52
81 87 94 94 97 94 94 94 97 97 94 94 87 87 84 84 87 81 74 71 74 74 77 81 84 74 74 74 71 55 58 55 58 52 39 68 58 35 29 42 35 39 42

GEFSSE_con_cape1000_192.txt.gz
Probability
29 39 58 61 58 58 58 65 68 68 68 74 81 74 81 74 71 74 71 74 71 71 68 61 55 65 65 71 65 71 74 65 65 68 71 68 61 58 65 61 58 42 58
29 45 65 65 58 55 55 65 68 68 71 74 77 74 77 77 74 74 71 74 74 74 68 61 68 68 61 61 61 74 71 65 55 58 58 65 48 35 39 42 58 42 55
35 48 52 68 61 58 61 71 68 68 71 74 74 74 77 81 74 68 65 68 68 65 58 58 65 55 61 58 65 74 65 58 52 45 55 35 42 45 55 61 65 45 45
32 45 52 71 65 65 68 71 74 74 77 77 77 84 81 74 74 68 65 71 58 65 58 48 58 58 58 52 52 58 45 52 42 45 45 19 13 42 58 58 55 42 52
52 52 68 77 77 74 74 77 77 77 68 65 71 77 77 81 77 74 74 68 65 55 55 58 58 52 52 45 42 42 45 45 35 32 23 29 23 42 42 42 35 35 45
58 58 68 87 87 81 77 74 77 71 74 71 65 74 74 77 74 74 77 65 61 61 58 55 52 48 52 52 42 39 29 26 35 26 19 23 29 48 39 35 29 29 45
42 42 65 90 90 74 74 74 71 68 65 77 77 74 71 74 71 71 68 58 61 61 55 58 55 55 55 58 26 26 23 26 35 39 26 35 35 68 52 42 35 32 32
39 45 71 100 87 84 71 68 68 71 68 65 68 65 68 65 65 61 61 61 61 58 58 55 48 39 35 32 29 23 26 26 19 10 32 19 68 61 42 32 39 39 35
29 45 52 71 84 84 74 74 74 77 71 71 61 55 52 55 52 58 68 68 55 55 52 45 42 26 26 26 32 26 19 42 32 13 6 26 71 68 45 39 39 52 39
26 42 42 58 71 74 71 71 68 74 74 74 68 58 55 48 65 61 68 68 48 39 42 39 26 29 32 32 32 26 45 48 13 10 6 26 77 65 48 42 45 42 42
35 32 29 45 74 74 74 61 68 68 68 71 71 68 71 65 61 74 58 58 48 42 35 35 26 26 35 45 39 52 52 16 10 13 19 42 74 61 48 58 55 52 45
29 26 45 42 52 48 48 74 77 68 77 77 84 77 81 81 77 61 74 68 55 35 42 48 42 39 35 29 39 52 32 23 19 23 26 65 81 61 52 58 52 48 48
32 39 39 42 48 48 71 77 87 84 87 84 87 87 77 81 77 74 61 61 68 55 52 52 48 39 26 29 39 39 32 23 26 19 26 84 81 74 71 61 58 39 52
42 32 39 52 74 87 90 90 90 87 87 84 81 84 81 81 77 74 74 74 74 77 77 74 65 58 45 45 35 42 39 35 32 32 29 71 77 68 68 71 71 52 48
35 52 58 90 94 97 100 100 90 94 87 84 84 87 81 84 81 71 84 84 74 74 77 74 71 68 61 52 48 39 52 45 39 45 45 74 74 77 71 65 71 71 65
71 84 87 90 97 100 100 100 97 97 94 90 90 84 84 84 84 77 81 77 77 77 71 77 77 71 71 71 65 61 68 48 52 55 42 61 81 87 74 71 74 77 71
87 94 97 94 94 97 97 94 90 90 84 87 90 87 90 94 87 81 81 77 81 71 74 77 77 77 71 68 68 65 55 68 61 61 58 48 58 81 87 84 81 87 81
94 94 97 81 94 100 97 97 94 87 87 87 90 90 84 97 94 84 84 77 84 77 81 87 81 81 77 74 77 74 61 68 61 61 61 55 55 35 58 84 84 84 81
94 100 97 97 97 97 97 94 94 90 97 94 94 97 97 90 94 90 84 87 87 84 84 68 74 81 77 68 68 74 68 71 68 58 58 58 65 68 58 58 87 87 77
94 100 100 100 97 97 100 97 97 97 94 97 94 94 97 97 87 94 87 90 87 87 87 84 81 81 84 77 52 42 71 71 71 68 61 61 71 71 61 61 58 61 81
94 100 100 100 100 100 97 97 97 97 94 94 97 90 90 94 90 87 84 87 87 90 87 81 81 77 71 74 71 58 65 71 61 77 74 71 71 71 71 65 65 65 52
100 100 100 100 100 100 97 97 97 97 97 97 97 97 90 84 87 74 81 84 90 90 90 87 87 87 77 65 68 65 55 55 65 42 68 77 68 65 65 61 68 71 74
97 100 100 100 100 100 97 97 97 97 97 97 94 97 94 87 81 81 84 77 87 90 90 87 84 71 68 71 65 55 48 45 55 65 68 61 68 68 71 61 65 68 71
90 97 100 100 100 100 97 94 94 97 97 97 94 90 90 84 84 84 87 81 84 84 84 81 81 74 74 68 71 74 65 65 45 58 58 55 68 61 58 45 52 58 68
81 97 100 100 100 100 94 94 97 97 94 94 94 94 90 87 87 87 90 90 84 81 77 81 81 77 74 71 77 71 61 68 48 45 42 45 58 68 61 68 65 61 61
87 97 100 100 100 97 97 94 97 97 97 94 90 94 94 90 87 87 84 84 77 84 81 84 81 71 74 74 71 74 77 65 58 55 39 45 52 55 55 65 61 61 68

GEFSSE_con_cape1000_198.txt.gz
Probability
39 39 58 65 65 65 65 71 74 77 84 84 81 81 84 84 77 77 81 84 81 84 77 81 84 81 81 77 77 77 68 68 68 74 81 77 77 77 71 71 58 42 68
39 48 65 65 68 71 71 71 77 81 84 84 87 84 84 81 77 74 77 77 74 68 68 71 71 77 77 71 65 68 68 71 68 71 81 52 61 71 68 55 32 42 52
42 52 58 61 68 68 68 71 74 74 81 81 84 84 84 77 81 77 74 71 65 61 65 65 61 65 74 65 65 58 68 68 61 65 45 13 42 65 71 61 52 52 52
45 45 55 68 68 71 68 71 71 74 81 81 84 84 77 71 71 74 74 74 68 61 58 58 58 55 58 61 52 48 52 55 42 39 10 3 10 55 68 52 45 58 55
39 52 61 71 71 71 71 74 74 81 81 84 77 77 71 74 71 71 74 68 58 65 58 55 58 55 52 52 35 39 39 45 29 16 3 3 10 58 61 55 55 52 45
39 52 68 71 74 81 87 84 74 71 71 77 81 81 81 81 81 74 71 65 55 61 65 65 58 52 42 35 39 39 26 32 23 6 3 3 10 58 55 45 48 39 45
42 55 61 77 81 81 84 81 77 77 71 74 77 81 81 84 74 81 65 61 58 61 65 65 55 42 45 45 32 29 32 26 10 3 0 0 10 74 52 52 48 48 35
42 55 71 90 84 81 84 87 84 84 81 81 84 77 77 77 71 74 68 68 58 61 65 65 52 48 45 45 32 26 29 26 6 6 0 3 29 71 48 45 39 39 35
39 48 55 65 71 84 87 90 84 77 77 77 81 84 81 77 81 77 77 68 58 55 58 55 45 42 35 39 42 45 39 35 10 0 0 0 52 77 61 55 45 45 45
35 39 52 58 55 58 71 87 87 84 81 77 81 77 77 77 74 77 84 81 61 58 45 39 42 42 39 48 45 45 48 32 3 0 0 13 68 71 65 55 52 48 48
26 29 35 39 32 35 45 74 81 74 74 74 74 77 74 45 39 61 71 71 65 52 45 39 42 39 52 45 52 55 55 13 0 0 0 26 65 74 61 55 52 58 48
16 16 19 19 26 32 35 58 52 55 58 48 42 48 39 10 13 42 74 74 65 55 55 48 45 42 42 13 16 42 26 10 3 0 3 35 74 74 68 65 52 61 61
10 10 16 16 16 16 19 19 19 23 29 29 35 26 19 16 16 19 23 42 39 42 26 35 42 23 10 6 3 6 3 6 0 6 3 58 71 71 71 61 58 58 61
10 10 16 13 10 19 16 26 13 10 10 13 19 13 16 10 6 10 6 6 6 10 10 10 13 10 3 6 3 6 3 6 0 3 3 58 77 81 74 68 65 71 68
6 10 16 19 16 6 13 16 19 13 16 10 16 13 16 13 10 10 6 6 6 10 10 3 3 6 3 3 3 6 3 6 0 3 3 58 77 84 81 77 77 71 74
6 13 23 19 19 16 13 19 16 13 16 19 10 13 13 6 16 23 23 10 10 10 3 3 3 3 3 3 10 10 10 3 3 3 0 23 74 81 84 84 81 77 71
13 19 19 26 26 23 19 16 19 16 13 19 16 19 16 10 19 19 13 10 6 13 6 0 3 6 6 10 10 10 10 6 3 6 6 0 16 68 84 84 84 84 77
16 19 26 29 26 26 29 26 16 16 16 16 19 23 26 23 19 16 16 13 13 13 6 3 3 6 6 6 10 10 10 10 10 10 10 3 3 13 58 90 84 90 84
16 19 16 23 26 26 29 29 29 32 29 19 29 19 26 16 26 23 23 23 16 10 3 6 10 6 6 10 10 10 6 6 3 3 13 10 10 10 3 23 81 84 81
19 23 26 29 29 35 35 39 45 39 39 32 32 35 35 29 29 26 23 23 13 10 3 10 13 3 3 3 6 10 6 3 3 3 3 6 6 10 10 10 16 52 77
39 29 29 32 39 48 45 48 48 39 39 39 39 39 39 42 45 23 39 32 26 10 10 10 6 10 6 10 10 3 0 0 3 3 3 3 6 6 10 6 0 0 13
39 35 39 45 45 48 48 42 45 42 32 32 35 39 39 42 45 35 26 29 23 10 10 10 10 13 13 10 6 3 0 0 0 0 3 3 6 6 3 6 6 3 3
48 42 52 48 45 55 48 52 52 48 48 52 55 48 42 39 39 35 35 39 39 32 23 16 16 19 16 10 10 6 3 0 0 0 0 3 6 3 3 0 3 10 10
52 55 58 55 52 58 65 61 48 52 55 52 45 48 48 48 39 32 35 39 29 32 23 19 19 16 16 13 10 6 6 0 3 0 0 0 0 0 0 0 3 6 3
52 65 74 68 81 74 65 58 61 55 48 45 48 55 55 55 48 52 42 42 42 35 29 26 29 23 16 16 13 10 6 3 3 3 3 3 0 0 0 0 0 0 0
58 65 74 81 81 77 71 65 58 52 48 48 52 55 52 52 48 52 48 45 45 42 35 39 32 29 29 16 6 6 6 6 6 3 3 3 3 3 3 3 0 0 0

GEFSSE_con_cape1000_204.txt.gz
Probability
13 29 55 65 71 71 71 74 74 84 84 77 81 81 81 81 87 90 90 94 94 100 90 87 84 77 65 71 71 71 74 71 74 84 74 77 77 84 81 71 55 35 55
16 35 55 65 71 71 74 77 74 81 87 90 84 81 81 81 84 87 90 90 87 87 87 87 87 77 71 77 74 74 68 68 71 58 58 48 52 65 68 48 26 39 45
26 42 55 65 71 71 74 71 74 74 81 84 87 84 77 81 74 81 81 81 81 77 77 74 71 74 71 65 65 65 65 74 68 52 45 29 52 52 55 42 35 52 48
32 39 48 68 71 71 71 74 77 74 74 77 84 87 77 74 81 71 74 74 65 68 61 65 65 71 61 65 65 61 65 65 48 29 10 13 23 42 52 45 45 45 48
29 35 45 61 68 68 65 68 77 84 84 81 81 74 77 77 71 65 68 61 52 55 58 55 58 55 45 45 45 48 55 52 32 19 13 3 19 45 45 58 42 48 45
29 39 55 65 65 65 68 74 74 84 81 81 77 81 74 71 71 65 65 58 55 48 52 58 52 52 45 32 32 45 42 42 19 6 3 10 13 42 48 48 39 45 42
26 45 52 68 61 68 65 68 71 74 81 84 81 84 81 74 71 71 61 61 52 52 35 45 45 45 45 35 32 29 39 29 10 3 0 6 10 55 55 55 52 48 48
29 42 55 68 68 68 68 68 61 81 77 84 87 87 77 77 77 74 71 65 65 65 55 48 42 42 45 35 29 32 39 19 10 0 13 6 19 58 55 58 61 48 48
39 45 52 55 58 68 71 74 77 71 68 74 81 84 81 77 71 74 68 65 61 61 58 55 48 35 42 42 42 42 39 32 13 13 10 6 32 52 48 55 52 45 42
32 32 39 42 48 52 68 77 84 84 84 84 77 87 77 71 71 68 71 65 55 55 48 52 48 39 48 48 45 48 39 35 16 6 6 6 35 39 39 52 55 45 42
26 29 23 23 19 26 45 68 74 81 77 68 68 68 58 35 35 52 71 58 55 55 42 42 48 52 45 45 52 52 48 16 6 3 0 13 42 55 48 58 55 58 48
13 16 13 16 19 26 42 45 52 58 58 55 52 45 32 26 19 39 61 71 58 45 48 52 52 42 29 16 26 29 23 13 3 6 0 23 52 61 68 77 65 61 55
6 10 13 10 16 13 19 26 23 23 19 23 23 13 16 10 10 13 13 19 39 45 39 35 32 26 23 10 6 6 13 13 6 6 10 32 65 61 65 71 71 65 61
0 10 6 6 3 6 6 13 10 13 10 10 6 3 10 3 3 3 6 3 6 10 13 13 13 13 13 6 6 6 13 6 3 3 3 19 68 71 71 65 71 68 68
0 10 6 6 6 3 3 3 13 6 6 6 6 10 6 6 3 3 6 3 3 3 6 6 13 13 13 6 6 10 13 13 10 6 3 13 71 84 77 68 65 65 68
3 3 6 6 6 3 3 3 6 6 3 6 6 6 6 6 3 3 0 3 3 3 3 6 6 6 6 6 10 10 10 10 13 13 10 6 45 81 84 77 74 71 68
6 0 3 10 3 3 3 3 6 3 6 6 6 6 6 6 3 0 0 0 3 3 3 0 10 6 6 10 6 6 10 13 13 16 13 10 16 55 77 77 77 74 74
3 3 3 13 6 3 3 3 0 0 3 6 6 3 3 6 6 0 0 0 3 0 0 3 3 3 6 3 3 3 6 10 10 13 6 10 10 13 48 77 77 77 77
3 3 0 10 0 3 3 0 3 0 0 0 0 3 3 6 10 3 0 3 3 0 0 6 10 3 3 10 10 6 6 6 6 6 6 6 13 10 10 23 65 77 74
3 3 3 3 6 6 6 3 6 6 3 0 0 3 6 10 19 6 3 3 3 3 3 3 6 3 3 3 3 6 0 3 3 3 3 3 10 6 6 10 16 48 68
6 3 3 6 3 6 6 10 13 13 6 3 6 13 16 13 16 10 13 13 6 6 6 10 6 6 3 3 6 3 0 0 0 0 3 3 3 3 10 10 10 10 16
6 6 3 6 6 6 10 10 10 10 16 13 16 23 19 19 19 23 10 10 6 6 6 10 6 3 10 10 6 3 3 0 0 0 0 6 3 6 13 13 13 10 6
6 6 6 3 10 10 6 6 16 19 19 23 23 16 19 26 32 29 19 13 13 10 13 13 10 10 13 10 6 6 6 6 3 3 0 3 6 10 10 13 13 16 6
6 6 3 6 13 10 6 10 16 19 16 16 19 16 23 23 26 29 26 19 16 16 19 16 16 10 10 10 10 6 6 6 6 3 3 3 3 3 6 3 10 10 6
6 13 13 13 10 6 6 6 13 16 16 19 23 26 26 23 29 32 32 23 23 23 19 16 16 16 10 10 10 10 10 3 3 3 10 3 3 3 3 3 3 3 3
10 16 19 16 13 13 10 13 13 23 23 29 29 26 26 23 23 32 32 26 23 23 26 19 16 19 13 13 10 10 10 10 6 3 6 6 6 3 3 6 0 3 6

GEFSSE_con_cape1000_210.txt.gz
Probability
3 26 55 55 61 65 68 74 77 84 77 84 77 84 81 81 84 94 90 90 90 77 81 81 74 68 74 71 65 68 68 81 74 77 77 71 74 77 68 48 39 35 48
3 35 55 61 68 71 77 77 74 84 81 81 81 81 84 84 90 87 87 90 84 84 84 77 74 61 68 65 68 74 68 71 68 65 61 61 61 65 45 26 32 42 58
16 35 45 61 68 68 74 71 74 84 77 84 81 81 77 77 84 84 87 81 81 77 77 77 71 61 61 65 68 71 65 65 52 48 32 16 35 48 42 32 42 45 45
16 39 42 61 68 71 74 74 71 77 74 77 74 71 68 74 77 71 74 71 74 77 68 65 61 58 61 68 65 65 61 52 39 39 10 3 6 32 45 35 32 39 39
19 32 55 61 65 74 77 68 65 77 71 71 71 71 71 65 71 65 71 61 65 61 55 55 58 52 55 61 58 48 48 45 32 16 6 6 19 32 39 39 42 48 45
19 35 55 65 68 71 68 68 68 71 68 71 68 71 71 65 71 68 71 61 58 52 45 48 32 35 39 39 45 45 39 39 26 6 6 6 16 52 39 39 39 42 39
19 26 55 68 61 68 65 65 68 68 71 71 77 81 74 65 68 61 58 61 61 55 52 48 39 42 35 32 39 45 29 29 19 13 19 16 26 61 52 48 39 29 35
16 19 42 68 61 61 61 58 61 68 68 74 77 77 74 71 68 61 65 61 55 48 42 35 42 29 35 39 42 42 32 29 10 6 13 19 48 55 55 55 52 48 39
13 23 29 35 48 52 48 58 65 65 71 71 74 71 68 68 65 61 65 68 55 45 45 48 35 29 45 42 45 39 32 19 19 13 10 29 48 45 52 48 48 48 42
23 35 39 29 32 32 48 61 65 65 74 74 71 74 71 65 65 61 65 65 52 45 32 45 42 35 42 48 42 35 32 19 19 19 23 26 45 35 45 55 58 48 42
32 32 42 32 32 35 42 55 65 68 71 74 84 65 61 55 52 68 48 52 48 45 45 45 35 42 39 42 35 45 35 19 16 16 23 32 42 39 45 55 55 61 52
32 35 42 35 29 26 39 52 65 52 65 61 61 61 65 68 52 45 52 52 39 39 39 42 42 42 32 39 42 39 23 23 26 16 19 32 29 45 52 61 58 58 52
23 19 29 39 35 42 52 58 55 68 68 58 58 65 71 58 52 48 65 65 68 55 55 58 39 29 29 29 35 32 19 23 19 23 19 35 32 48 58 58 61 65 58
19 19 26 39 45 48 48 55 52 61 61 52 71 58 61 65 65 61 77 61 65 68 74 61 68 45 45 39 29 23 19 23 19 26 58 55 58 61 74 71 61 61 58
32 32 26 48 58 68 81 68 48 55 48 48 74 71 68 58 65 61 74 74 61 65 65 81 77 65 55 52 45 39 39 39 35 32 48 74 65 71 77 74 68 58 58
35 48 58 58 71 81 87 90 65 52 87 52 65 71 65 65 74 74 71 77 71 68 61 58 61 71 52 52 39 35 39 29 42 48 39 55 74 74 77 77 77 65 58
55 58 71 68 71 77 68 68 45 55 52 61 77 77 74 71 81 71 71 68 65 68 71 71 61 61 61 52 39 39 45 35 35 52 48 48 55 74 81 77 90 77 74
65 68 74 48 68 77 77 74 58 58 65 65 74 84 84 81 77 81 68 65 77 71 68 61 65 58 58 55 58 48 45 55 52 52 52 48 55 48 65 84 87 87 77
74 87 90 74 74 77 81 87 68 71 74 71 81 81 81 77 77 68 65 71 81 77 68 65 48 52 48 55 48 55 42 45 48 42 45 42 55 65 65 84 81 87 87
81 84 87 90 94 94 90 94 87 84 84 90 84 84 87 81 74 68 74 74 74 68 68 71 71 68 58 68 42 39 39 42 48 42 42 48 58 55 58 58 81 74 84
84 84 90 90 97 100 94 90 97 100 100 94 90 81 81 84 71 77 61 74 81 71 77 68 71 68 71 68 55 52 42 39 35 39 45 55 55 52 52 68 77 81 81
77 87 97 97 97 100 100 97 100 100 94 94 94 97 90 81 77 65 77 71 71 84 84 81 81 71 71 74 65 52 45 32 52 26 35 45 48 52 55 39 65 84 90
77 81 84 100 100 100 100 97 100 100 97 97 97 97 87 87 81 84 68 74 74 77 81 87 87 74 77 74 65 48 29 35 32 29 35 45 55 52 48 55 58 68 65
68 81 90 97 97 100 100 100 94 94 94 97 97 97 90 84 81 77 87 84 84 81 90 84 74 81 77 77 74 74 58 45 45 39 35 32 39 55 48 35 45 52 48
58 71 74 90 90 94 97 100 100 90 90 94 94 94 90 90 84 81 77 84 77 74 84 84 87 90 84 81 71 71 61 65 39 39 35 32 39 39 39 45 42 42 45
61 68 71 87 90 90 90 87 90 94 90 87 90 87 84 77 74 71 71 74 77 74 81 81 81 81 81 81 81 71 68 68 55 52 48 55 45 39 45 39 42 42 42

GEFSSE_con_cape1000_216.txt.gz
Probability
16 32 68 68 71 71 68 74 77 71 68 68 71 77 77 81 77 74 74 71 74 74 74 68 61 68 65 71 68 68 71 65 71 77 77 74 68 58 48 52 45 58 68
16 45 65 71 74 74 71 68 77 71 68 68 71 74 77 74 77 81 81 77 77 77 71 68 71 74 68 71 58 52 58 65 68 65 65 52 42 35 48 58 48 52 65
16 39 55 74 74 71 65 68 74 71 71 68 65 71 77 81 84 81 81 77 81 81 74 71 61 65 58 55 45 32 42 42 52 48 45 26 35 35 35 48 55 65 61
23 26 45 71 71 65 61 65 71 68 71 65 65 71 74 74 74 74 74 81 74 74 68 65 58 55 55 58 55 32 26 42 48 55 26 19 19 42 39 39 55 55 55
23 26 65 68 65 65 65 58 61 65 61 58 65 68 71 74 68 68 68 68 61 58 55 58 48 45 42 42 42 32 29 35 42 39 23 23 32 48 45 42 39 39 42
29 32 55 68 68 61 58 58 58 61 61 65 61 68 71 71 68 74 68 52 45 45 45 42 35 39 42 26 19 32 39 45 35 29 19 19 29 61 48 39 42 39 42
32 26 45 65 61 58 65 55 61 55 61 58 61 68 71 71 74 61 61 55 58 48 32 42 42 39 32 26 16 26 29 32 26 26 16 23 45 68 52 52 45 42 39
29 29 55 71 68 58 65 61 55 55 58 58 58 58 65 68 68 65 58 58 45 42 35 45 35 32 39 29 23 19 39 29 16 13 26 29 61 74 65 55 52 45 42
26 35 35 45 58 65 65 71 65 58 58 61 58 58 58 68 61 55 55 58 52 42 35 32 39 35 26 29 29 32 32 45 23 26 23 23 68 77 61 65 55 45 52
23 29 29 35 42 45 52 71 71 65 61 58 58 65 68 58 58 55 58 55 52 42 35 39 35 39 35 42 35 32 35 42 16 19 23 32 71 65 55 55 58 58 48
26 26 26 32 45 42 39 55 65 65 65 61 61 61 71 61 58 61 48 52 48 45 35 35 42 39 52 45 42 45 39 26 13 19 23 45 71 68 52 58 55 52 48
32 26 29 26 32 39 35 48 65 48 58 61 68 61 74 74 68 48 61 52 42 42 39 39 52 39 42 26 45 52 26 29 16 16 32 61 71 65 58 58 61 55 52
29 32 29 35 45 45 52 58 65 71 71 65 74 84 84 84 77 61 65 61 58 58 52 52 52 45 35 45 58 42 32 19 19 16 35 61 58 58 65 68 58 55 58
42 42 39 58 61 71 65 61 71 65 71 68 84 84 84 84 87 81 77 74 77 77 77 68 84 77 74 61 61 45 32 32 23 26 42 71 68 68 68 65 61 61 61
42 48 52 71 87 84 81 77 61 74 68 71 87 87 90 90 84 81 84 90 84 84 84 81 77 77 77 68 61 48 45 52 45 39 42 65 71 71 71 71 71 68 65
65 71 71 77 87 90 84 90 90 74 87 71 81 84 87 84 87 84 84 84 84 84 81 84 81 77 74 65 65 61 61 52 52 48 45 55 77 87 84 81 68 68 68
84 87 87 81 87 94 87 84 81 77 55 84 81 81 90 87 87 84 81 81 81 84 84 84 81 81 71 65 65 58 58 58 55 58 61 58 55 71 90 87 84 77 74
84 97 100 68 81 94 94 90 77 74 81 84 94 90 90 94 90 87 81 77 81 81 84 81 84 81 81 74 71 68 61 65 58 61 65 68 68 48 68 84 87 87 84
97 97 100 100 97 97 97 97 94 94 94 90 94 90 90 87 84 90 84 81 84 81 81 71 81 81 74 81 74 74 68 65 61 58 61 58 71 71 52 65 84 87 87
97 100 100 100 100 100 100 100 100 100 97 94 94 90 94 90 87 90 87 81 84 81 81 77 77 84 84 84 61 65 71 74 74 74 74 58 61 65 61 55 74 71 84
97 100 100 100 100 100 100 100 100 100 100 97 97 94 94 90 87 87 81 87 84 81 81 74 74 77 81 84 77 77 77 81 81 84 71 61 58 71 74 77 74 71 68
97 100 100 100 100 100 100 100 100 100 100 100 97 100 94 90 90 81 87 87 90 81 84 84 77 77 77 77 81 74 71 81 74 52 81 71 65 74 65 68 77 84 77
94 97 100 97 97 97 97 97 97 100 100 100 100 97 100 94 94 84 87 81 81 74 81 90 90 84 87 84 84 74 71 61 68 77 77 71 71 71 68 71 74 84 71
94 94 97 97 97 97 97 97 97 97 97 97 100 97 90 87 90 90 90 84 84 77 84 87 87 81 90 84 84 90 81 84 71 68 58 58 61 61 61 48 58 77 74
77 90 97 97 97 94 94 94 94 94 94 94 94 94 90 81 81 81 90 90 84 84 84 87 87 87 87 90 90 77 74 84 74 68 65 58 55 55 65 65 61 68 61
81 87 90 90 94 94 94 94 94 94 94 94 90 90 84 84 81 77 84 87 84 81 81 87 84 84 84 87 90 84 77 84 77 74 77 74 61 61 61 65 61 58 55

GEFSSE_con_cape1000_222.txt.gz
Probability
19 39 65 68 68 71 71 74 71 77 84 81 74 68 71 77 77 71 68 68 68 68 74 74 81 74 74 84 81 81 84 87 84 84 87 81 71 65 74 65 52 48 61
19 39 65 71 77 71 74 74 74 74 77 74 81 84 74 74 77 77 71 71 71 74 71 71 68 74 74 74 65 68 74 84 84 77 71 52 48 58 65 65 55 48 65
23 39 52 84 74 74 74 74 74 74 74 77 77 81 81 77 77 77 77 77 77 74 74 68 65 65 65 68 61 58 55 61 71 71 35 16 42 58 55 61 65 65 61
26 35 45 81 77 74 74 77 71 74 77 77 84 81 81 81 81 77 74 77 77 74 68 65 52 45 42 52 65 48 48 42 48 32 3 10 23 48 61 68 65 61 61
23 35 52 77 77 74 71 74 74 74 71 74 77 74 74 74 77 77 77 77 68 68 65 61 42 39 32 35 45 52 58 48 35 26 3 3 10 52 68 68 68 65 58
26 42 55 71 71 74 68 71 71 71 71 77 81 81 74 77 77 77 71 68 65 65 55 52 42 42 35 32 39 35 39 29 13 10 6 6 16 65 52 58 55 71 65
23 42 55 68 68 74 71 71 71 77 74 77 74 71 71 74 74 77 71 61 61 48 52 52 45 39 39 35 29 26 29 26 10 3 3 3 19 74 61 55 52 61 58
19 26 52 68 68 61 65 68 68 77 74 77 74 74 71 74 74 74 65 65 52 52 45 45 42 35 32 32 29 29 42 39 16 6 3 6 35 68 68 61 55 48 45
23 29 42 52 58 68 71 71 74 77 77 74 74 74 71 68 68 61 58 55 48 48 45 42 32 32 32 35 35 42 52 35 16 6 3 13 52 65 68 74 65 55 52
19 29 29 32 42 48 61 74 81 81 84 77 81 68 71 74 77 74 68 55 52 55 45 42 39 42 42 42 39 48 42 29 16 3 0 16 65 71 74 68 77 65 61
16 19 23 26 26 26 35 58 68 74 74 77 65 74 61 32 26 58 61 61 58 52 42 42 45 52 48 42 45 45 26 16 6 3 0 39 68 71 61 55 61 65 71
13 13 13 16 13 16 32 35 35 52 48 42 35 48 19 16 16 32 71 68 68 58 58 61 65 52 45 19 23 32 23 10 6 3 0 52 74 68 68 68 65 61 58
10 13 10 10 6 6 6 16 19 16 23 19 23 23 6 6 3 19 16 35 32 52 32 39 45 29 16 10 6 10 6 13 3 3 3 65 74 71 71 74 71 61 58
6 6 6 6 6 6 6 6 10 10 13 16 19 19 13 6 6 6 10 10 10 13 10 16 16 10 10 10 10 10 10 3 6 6 6 61 74 71 74 74 71 65 61
10 6 10 6 6 6 6 10 10 10 10 19 16 13 16 10 6 6 6 6 10 6 10 13 16 13 10 10 10 6 10 6 6 10 3 45 68 81 74 74 71 68 61
6 6 10 10 13 10 10 13 16 19 23 19 16 16 19 13 3 6 3 3 10 10 13 13 13 13 13 13 6 6 6 3 6 13 3 29 74 81 81 81 68 65 55
10 19 16 16 19 16 13 13 19 19 19 16 23 23 26 13 6 6 10 10 3 10 10 10 13 6 10 16 13 10 6 0 6 16 13 6 26 65 77 77 74 77 61
13 23 19 29 19 13 13 23 26 26 26 23 26 26 26 23 23 23 16 13 13 16 16 13 6 13 13 10 10 10 13 13 16 13 16 13 13 16 58 81 84 74 74
13 19 19 26 23 23 23 29 23 26 29 29 29 26 26 32 29 26 26 23 16 16 19 26 10 13 13 10 13 16 16 13 13 13 23 13 10 6 13 42 74 81 74
16 29 26 26 39 35 32 26 16 23 29 32 29 23 26 26 32 23 23 19 16 16 19 13 16 10 10 13 23 16 13 10 6 10 10 6 6 10 10 13 29 55 84
32 32 32 32 39 39 35 26 26 26 29 26 19 19 26 26 32 29 29 26 19 23 16 16 10 10 13 10 13 13 10 6 10 13 6 6 10 10 13 16 13 13 26
39 42 42 42 42 42 35 26 29 29 26 19 19 23 26 23 23 35 19 26 26 19 19 19 16 19 16 13 10 13 6 10 6 6 6 6 3 10 13 19 19 10 10
42 45 48 55 45 42 35 35 26 23 26 23 19 26 26 26 26 26 23 23 23 23 19 19 19 16 13 16 13 13 3 3 3 3 0 0 0 3 3 3 10 10 13
45 48 48 58 58 52 52 42 26 29 29 23 19 32 29 26 29 23 19 19 23 23 23 16 16 16 16 13 13 10 6 3 6 3 3 0 0 0 3 6 3 0 0
58 58 58 65 61 68 55 48 39 32 32 29 32 32 35 39 32 35 35 26 23 26 32 19 19 13 16 16 16 13 10 10 3 3 3 3 6 3 3 3 0 0 3
52 58 61 61 65 71 68 52 39 39 39 42 39 35 39 35 39 35 45 39 29 35 32 35 23 29 26 23 19 13 13 10 13 6 10 6 6 6 3 3 0 0 0

GEFSSE_con_cape1000_228.txt.gz
Probability
3 19 68 58 74 77 74 77 74 71 77 74 81 74 74 81 84 81 81 84 84 84 81 77 87 90 84 84 81 84 81 81 77 74 74 68 65 68 68 61 52 52 68
10 23 68 65 65 77 68 74 74 74 74 74 74 77 81 81 77 74 74 81 77 77 77 81 87 84 77 71 81 87 77 77 74 58 58 52 55 65 68 61 48 55 61
16 26 52 65 68 71 71 74 77 71 74 74 74 81 84 84 77 77 81 77 77 71 74 74 71 65 68 71 68 71 71 74 65 55 48 35 55 65 61 58 68 68 61
19 26 35 61 71 68 71 74 71 74 71 77 74 74 81 90 90 81 77 74 74 68 65 68 61 55 68 58 58 55 52 55 55 32 16 19 26 55 58 61 58 58 55
23 26 39 65 68 71 71 71 74 77 71 71 81 77 74 74 74 81 81 74 74 68 58 39 42 45 55 55 58 65 45 39 32 16 6 10 29 48 55 61 68 55 55
19 29 45 68 71 71 71 71 68 71 71 77 71 71 74 71 77 77 71 68 68 65 52 45 45 42 35 45 42 48 55 42 16 13 3 10 26 55 55 61 71 65 58
23 32 52 71 71 71 71 71 68 68 68 74 71 71 74 68 68 65 74 61 52 61 61 48 45 42 35 35 45 48 42 39 23 6 6 10 26 55 58 71 74 74 68
23 32 45 61 61 68 68 68 68 68 61 68 65 71 65 68 65 61 68 55 55 48 55 48 48 39 45 39 39 39 35 29 16 13 13 13 35 61 65 74 74 71 65
19 32 42 45 58 68 68 65 68 71 74 77 71 68 71 71 61 58 65 58 55 45 42 45 45 45 39 42 39 39 35 29 19 13 10 19 42 58 68 71 71 74 61
16 26 29 42 45 45 52 68 71 74 68 71 74 71 74 71 55 61 68 65 55 48 45 48 32 39 39 42 52 42 45 32 16 16 10 23 55 58 61 65 71 68 68
16 19 23 29 26 29 35 55 61 71 68 68 68 74 58 35 32 45 48 61 61 48 45 42 42 42 45 48 48 58 39 19 16 10 13 35 55 61 68 68 68 74 74
16 16 19 19 23 26 39 32 29 42 45 39 35 32 19 16 16 32 48 68 61 61 55 55 55 45 45 32 32 35 16 16 13 10 10 42 52 55 61 68 81 74 65
16 19 13 13 10 13 23 19 19 19 23 19 19 16 10 10 6 10 10 26 29 29 29 29 35 16 19 16 13 10 10 13 10 10 13 45 61 61 55 74 74 68 58
13 10 10 10 10 10 6 13 6 13 13 10 10 6 10 3 0 0 0 0 0 6 10 10 13 13 10 13 13 13 10 10 10 6 6 39 68 71 68 74 71 65 68
6 10 10 6 6 6 6 6 6 6 6 3 3 3 3 0 3 0 0 0 3 3 3 3 10 10 13 10 16 16 16 6 13 13 13 26 61 71 74 68 68 58 55
6 3 3 6 6 6 6 6 6 6 3 3 0 0 0 3 3 3 3 3 3 3 3 3 6 16 6 6 13 16 13 10 10 16 19 16 65 74 74 84 65 61 55
3 3 3 3 6 6 3 3 3 3 3 3 3 3 3 3 3 3 3 6 6 10 6 6 10 10 6 3 6 16 13 13 16 19 16 19 32 68 77 84 84 71 58
6 3 3 6 3 3 3 3 3 6 6 6 6 0 6 6 6 3 3 3 6 3 3 6 10 10 6 3 6 6 6 10 19 23 23 19 23 26 48 74 77 84 74
6 6 6 6 6 3 3 3 6 6 3 6 3 6 6 6 13 3 3 3 3 0 0 3 10 3 3 3 3 6 13 13 13 13 19 16 19 16 32 32 65 84 71
6 6 6 6 6 3 3 3 6 10 6 3 3 6 10 13 13 10 6 0 0 0 6 0 10 3 3 3 10 13 13 16 13 13 13 19 16 19 23 16 35 52 61
10 6 6 10 6 6 6 10 13 16 6 3 3 10 10 10 16 16 13 3 3 13 13 10 6 6 6 10 13 6 13 10 6 6 3 6 6 13 13 16 16 23 35
6 10 13 13 6 6 6 10 10 13 10 6 13 16 13 13 19 19 10 10 10 10 10 6 0 10 10 10 6 10 10 3 10 6 3 10 3 6 13 10 16 16 13
19 16 19 13 13 6 10 13 6 3 3 10 16 13 6 10 19 19 16 13 10 10 10 6 3 6 6 10 10 10 10 10 6 3 3 3 10 6 3 10 16 10 6
23 19 19 16 13 10 6 10 10 6 6 10 6 10 6 10 19 19 19 16 13 10 6 3 3 6 3 3 6 6 10 10 10 16 3 3 0 3 6 3 10 6 6
19 19 19 16 16 16 16 10 6 6 3 3 3 6 6 10 13 19 23 23 23 16 10 6 6 3 3 3 6 6 3 0 0 6 10 3 0 3 3 3 10 6 3
16 16 23 19 16 13 13 19 16 10 6 3 6 16 13 13 23 23 26 23 23 19 19 19 13 6 6 3 10 10 6 10 3 3 3 3 3 6 3 6 0 0 0

GEFSSE_con_cape1000_234.txt.gz
Probability
10 16 45 52 71 77 81 74 74 74 65 74 77 81 77 81 77 81 81 84 87 84 84 84 81 77 81 84 87 84 84 81 74 74 74 65 65 71 65 55 52 39 65
6 19 52 65 68 74 74 74 74 71 71 71 68 81 81 81 81 84 84 84 84 84 84 77 77 81 81 81 81 81 84 84 71 65 55 52 52 55 55 52 52 58 61
10 26 39 71 71 74 71 74 74 71 71 74 71 77 81 81 84 81 81 81 81 84 84 81 77 81 81 84 84 81 81 68 61 58 52 35 45 52 61 52 61 71 65
16 29 45 68 74 68 71 68 71 71 68 77 71 81 74 74 77 77 77 71 71 77 77 81 71 68 65 61 65 71 65 58 45 26 13 16 26 48 61 58 58 58 65
13 32 55 65 68 71 71 74 71 68 68 68 74 71 68 74 74 77 71 68 65 65 68 61 61 58 52 52 61 58 55 45 23 13 16 23 39 52 61 61 58 55 58
13 26 48 65 68 71 71 71 68 68 65 71 71 68 74 77 71 71 71 68 58 48 65 61 58 58 52 48 55 48 45 26 19 3 13 26 39 65 58 52 48 55 55
13 19 45 61 71 71 68 65 61 61 65 68 65 68 68 74 74 61 55 55 48 52 55 58 48 58 55 42 35 42 39 29 16 3 6 26 45 52 58 58 71 65 58
13 16 42 61 65 71 68 65 61 52 55 55 65 58 61 71 74 74 55 55 55 48 58 52 42 55 42 42 39 39 32 29 6 3 6 23 48 52 58 68 77 61 55
13 16 32 45 55 61 65 61 61 52 58 55 58 55 55 61 61 68 65 58 48 48 45 39 55 58 45 39 35 32 32 19 10 10 6 23 42 61 52 61 77 65 55
19 23 23 26 45 48 55 68 71 65 68 71 68 71 68 68 55 55 61 65 45 39 39 42 52 42 42 39 42 42 19 19 16 16 6 16 61 48 52 55 61 68 52
16 23 23 16 29 39 35 45 61 68 68 74 68 71 71 58 39 58 45 58 52 52 42 48 52 45 48 42 48 48 35 29 16 19 23 23 45 42 48 58 61 61 61
19 23 23 19 23 23 19 52 61 48 61 58 68 61 61 65 65 29 45 58 61 58 42 42 48 42 32 32 32 39 26 19 19 19 16 52 58 55 58 61 61 65 71
19 16 19 23 32 32 35 42 45 58 71 55 65 65 77 58 58 45 55 71 74 55 58 48 52 45 39 32 32 32 32 23 19 23 26 42 52 52 65 65 61 61 68
19 16 16 32 35 39 39 35 55 45 52 55 71 65 52 58 52 55 61 55 58 65 68 55 61 48 42 35 32 29 39 35 32 29 52 52 48 52 68 68 61 61 65
23 19 19 35 48 61 68 55 39 45 48 52 65 65 52 58 58 45 55 65 58 58 65 68 58 48 52 45 39 39 39 42 35 35 35 55 58 58 61 71 65 61 55
35 29 26 45 52 58 65 61 45 35 68 48 55 55 68 55 61 58 68 81 61 65 52 55 52 65 55 52 42 42 48 42 42 39 39 45 61 65 71 71 74 71 61
55 48 45 45 48 61 58 52 48 35 39 39 45 52 58 55 74 74 68 65 65 61 68 71 48 48 52 45 32 39 45 45 45 55 52 55 52 61 71 87 77 74 71
65 68 65 39 48 68 65 61 39 39 35 39 48 52 52 55 71 81 61 55 61 61 61 61 48 32 42 39 48 42 39 52 48 55 55 55 58 55 71 81 81 87 77
68 68 71 61 58 61 68 71 55 55 45 42 39 48 55 58 61 68 65 65 68 55 61 48 35 42 35 45 42 55 42 48 55 48 52 52 58 58 61 81 84 87 77
71 71 71 77 77 77 71 77 81 68 52 55 52 58 58 55 58 58 58 68 61 55 58 52 65 65 58 55 23 32 32 39 48 45 45 42 58 52 45 55 68 61 65
71 74 74 74 81 87 81 74 74 68 71 58 52 52 71 68 55 71 58 71 68 61 61 55 58 52 52 61 39 35 42 39 39 42 39 39 39 45 52 52 55 61 71
71 77 81 81 81 84 87 90 87 84 74 68 71 71 74 74 68 58 71 58 65 71 77 65 65 48 45 45 45 39 29 26 48 32 42 39 42 42 39 35 58 74 74
68 74 74 77 81 81 84 84 81 87 77 71 77 81 77 77 74 71 68 68 68 61 68 74 68 68 52 52 52 52 35 29 29 39 42 39 48 48 42 39 39 55 68
74 81 81 87 87 87 87 81 81 84 81 87 94 74 77 74 74 71 74 71 74 65 71 61 61 68 74 55 45 61 55 61 48 42 42 39 32 39 42 35 39 55 58
71 81 81 87 87 87 87 87 87 84 77 81 77 77 81 77 77 77 77 77 77 71 68 71 74 77 74 61 52 39 45 61 48 52 42 42 35 32 29 42 45 45 52
74 77 81 90 90 90 87 84 87 90 87 84 84 81 77 84 77 77 77 74 77 74 77 77 77 74 74 74 71 58 48 48 48 48 35 35 42 29 32 39 35 35 39